GFSWCAN_925_thetae_045.txt.gz
Theta_e
303 302 303 304 303 302 301 302 304 306 306 306 306 307 307 307 307 308 309 309 306 305 305 306 307 309 309 310 312 310 310 310 311 313 314 314 317 314 314 315 316 318 319 319 319 324 330 320 320 322 327 324 323 322
302 303 304 303 302 301 302 304 307 306 307 306 307 307 307 307 308 308 309 309 308 304 307 306 306 307 308 308 309 310 310 309 309 310 311 310 311 315 312 318 314 317 315 316 317 318 318 318 318 318 318 319 319 319
303 304 303 301 301 302 304 307 307 307 307 307 307 307 308 308 309 309 309 308 306 305 307 307 310 309 309 309 309 310 309 307 308 308 308 309 311 311 313 313 311 311 312 313 314 315 314 317 316 315 315 317 317 316
304 302 301 301 302 304 307 307 307 307 307 307 307 308 308 308 309 309 309 308 306 306 309 311 310 309 308 308 308 307 308 308 307 307 307 310 311 308 310 310 311 311 311 311 312 312 312 315 313 313 314 314 317 317
302 302 301 302 306 306 307 307 307 307 308 307 308 309 308 308 309 310 309 307 307 308 310 309 308 309 308 308 307 307 306 307 308 307 308 308 308 308 308 309 312 309 310 312 312 310 310 310 310 311 311 312 313 316
302 302 303 307 308 307 307 309 308 308 307 308 308 308 309 311 312 312 310 307 307 307 309 312 311 311 309 307 307 307 306 306 306 305 304 304 306 306 308 309 309 309 309 307 309 310 310 309 310 311 311 312 312 314
302 304 308 308 308 309 310 311 309 307 308 308 309 310 310 310 310 310 312 310 308 308 310 313 318 312 310 308 307 307 304 304 304 303 303 303 304 306 304 308 308 309 310 311 311 314 314 311 311 312 314 313 314 315
304 308 309 309 309 310 311 311 308 308 308 309 309 309 309 311 311 311 307 306 307 308 308 316 318 317 312 314 312 306 306 305 305 305 304 304 304 302 305 306 310 310 312 317 318 318 313 312 313 314 315 316 314 313
307 309 309 309 310 311 312 311 310 309 309 309 310 311 313 312 314 312 306 307 307 309 314 317 318 321 312 315 310 308 306 310 304 307 309 305 303 308 310 311 311 311 311 315 316 316 316 315 315 317 317 316 315 314
309 310 309 309 311 312 312 311 311 310 309 309 311 315 319 314 309 309 310 312 312 312 314 317 315 320 317 316 316 315 309 314 317 316 311 312 313 313 310 310 311 312 310 311 313 315 317 315 314 315 315 314 313 314
310 310 310 310 311 313 313 312 311 309 309 312 318 321 313 310 313 314 322 322 324 318 321 314 319 323 318 320 318 318 320 318 319 317 317 314 314 314 312 309 309 310 311 310 311 312 312 315 316 316 316 316 315 314
310 310 310 310 312 314 313 313 312 312 319 314 315 319 315 316 321 324 324 324 325 324 325 325 323 322 323 317 317 320 322 321 319 315 314 315 314 313 312 310 308 307 311 311 310 310 311 312 312 312 313 312 313 312
310 311 311 310 312 314 314 315 315 313 315 318 320 324 324 323 319 321 322 324 323 321 319 322 326 324 322 323 323 322 321 320 317 315 312 316 314 313 312 310 308 306 307 311 311 309 309 309 310 311 311 310 309 309
311 311 311 311 313 315 314 313 315 315 314 323 324 316 323 324 321 320 317 317 317 315 316 321 326 326 325 323 320 320 320 315 314 314 315 314 314 313 312 311 308 306 305 306 311 310 309 308 308 309 309 308 309 308
312 313 314 316 316 315 313 314 315 315 320 325 322 318 323 320 317 316 316 316 315 315 317 322 324 320 320 319 316 316 317 316 314 316 315 314 313 312 311 310 310 307 306 305 305 310 310 308 308 308 307 307 307 306
313 319 319 318 315 314 313 316 317 318 323 323 322 320 320 318 317 316 316 315 314 316 317 321 319 318 316 315 314 314 315 316 315 316 314 314 313 313 312 311 310 309 308 306 305 307 309 310 309 308 308 308 306 306
315 321 319 314 314 313 316 319 324 324 321 321 322 320 321 319 317 317 316 315 315 316 318 317 315 317 316 313 313 312 314 312 310 314 314 314 313 313 312 311 311 309 307 306 306 308 308 309 308 307 306 305 305 305
317 319 313 313 315 320 325 321 321 321 320 320 322 321 322 321 319 317 317 316 316 314 316 317 316 313 312 311 312 311 310 308 308 309 313 313 313 311 310 311 307 308 307 305 306 308 306 305 305 307 305 303 302 302
314 313 313 314 316 317 326 321 323 324 322 322 322 320 320 321 322 319 318 318 317 316 316 316 314 312 312 311 311 310 309 308 307 308 310 308 310 309 311 308 304 305 308 305 305 305 306 305 303 303 304 302 301 301
314 317 315 315 317 325 327 326 322 328 324 323 323 322 322 322 322 320 318 317 317 317 316 314 314 313 312 312 312 310 310 308 308 308 308 307 304 304 307 306 305 305 304 305 302 302 302 302 301 302 302 300 300 300
320 323 318 319 327 324 326 324 325 323 324 325 324 325 324 324 323 320 319 319 317 316 315 315 314 314 312 310 309 308 310 307 308 307 307 305 304 305 305 304 304 304 304 303 303 302 301 301 301 301 301 300 300 300
323 321 320 325 326 324 326 322 323 326 326 326 326 324 324 324 322 320 320 320 319 317 316 316 316 314 315 315 311 309 308 307 307 307 304 304 304 304 304 304 303 303 303 303 303 302 301 300 300 301 300 301 299 300
322 322 326 327 325 319 319 322 327 327 325 323 325 323 322 323 323 322 321 320 319 318 316 316 314 312 313 312 311 312 308 307 307 304 304 303 302 302 302 302 302 302 302 302 302 302 300 300 300 299 299 299 301 301
324 325 329 329 325 321 325 327 327 326 325 324 324 323 322 323 321 321 321 318 316 316 317 317 313 314 314 315 313 309 305 303 303 303 302 302 301 301 301 302 301 300 300 301 301 301 301 300 300 299 299 300 300 300
321 320 322 312 323 323 323 323 322 321 322 322 322 323 323 320 319 321 321 319 317 316 316 314 313 313 312 311 308 305 303 302 302 303 301 300 300 300 300 301 299 298 299 300 300 300 300 300 300 299 299 299 300 299
315 324 321 325 326 324 320 320 323 319 321 320 322 323 323 323 322 322 321 319 317 316 316 315 313 311 311 309 307 305 303 302 301 302 301 300 300 300 300 300 299 298 297 298 298 299 299 299 299 299 299 298 298 298
315 324 326 325 323 322 324 322 323 324 324 322 321 322 323 323 321 316 316 316 317 314 313 311 310 310 309 307 305 304 303 302 302 302 301 301 300 299 299 299 298 298 298 297 297 297 297 297 298 298 298 298 297 298
326 328 325 325 326 325 322 323 322 323 325 323 323 322 320 322 321 318 319 315 315 314 312 310 309 308 308 307 306 305 304 302 302 302 302 302 301 300 299 298 298 297 298 297 296 297 296 296 297 297 298 298 297 297
326 325 326 328 326 327 325 325 324 324 324 324 322 320 321 320 318 317 317 315 315 314 312 311 310 310 309 307 306 303 302 302 302 303 302 302 301 300 299 298 298 298 298 298 296 296 296 296 296 297 297 297 297 298
326 326 326 327 327 325 325 324 324 323 324 321 322 321 320 319 317 315 315 314 312 311 310 309 309 308 306 304 303 302 301 301 301 301 301 300 300 299 298 298 298 298 297 297 298 298 297 296 297 297 296 296 296 297
325 324 323 323 325 324 323 323 322 321 322 317 319 321 322 320 316 315 313 313 311 310 309 307 306 305 303 302 302 301 301 300 298 298 297 297 297 297 296 297 298 298 297 297 297 297 297 296 296 296 296 296 296 296
325 326 324 325 323 321 324 322 323 321 320 320 318 319 322 320 322 316 310 309 309 308 306 305 304 302 302 301 301 299 298 296 295 294 294 294 294 295 295 295 296 296 297 297 297 297 296 296 296 296 296 296 296 296
324 324 326 322 324 323 321 321 321 321 324 323 322 322 320 321 317 313 309 307 306 306 305 303 303 302 301 301 299 297 296 295 295 295 294 294 294 294 293 293 294 295 296 296 296 296 296 296 296 296 296 296 296 295

GFSWCAN_925_thetae_048.txt.gz
Theta_e
306 303 304 303 302 301 302 304 307 306 306 307 306 307 307 307 307 308 308 309 307 305 305 306 307 309 309 310 311 309 307 306 305 309 312 312 314 314 314 315 316 318 320 318 319 327 329 316 319 321 316 316 317 317
303 304 303 302 301 302 304 306 307 307 307 307 307 307 308 308 308 309 309 309 308 306 307 307 307 307 307 307 308 309 308 307 306 307 307 309 311 312 312 316 311 315 313 316 315 319 316 314 318 316 313 314 313 314
304 303 302 301 302 305 306 306 307 307 307 307 307 308 308 308 309 309 309 308 307 305 305 307 310 310 308 308 308 310 308 307 306 303 304 308 310 308 311 311 311 310 310 311 309 311 311 311 311 311 310 311 311 311
303 302 302 303 306 307 307 307 308 308 307 306 307 308 308 308 308 309 308 308 306 305 305 307 309 309 308 307 307 307 308 306 306 303 303 305 308 306 308 307 308 310 309 310 310 309 310 311 311 310 311 311 311 311
302 302 303 307 308 308 308 309 308 307 307 307 308 308 308 309 309 309 308 306 306 306 305 304 306 308 307 306 305 305 305 306 307 307 305 306 307 305 303 304 310 310 310 311 312 310 310 309 309 310 312 312 312 311
302 303 307 308 308 308 310 311 309 307 307 308 308 309 310 311 311 311 309 307 307 307 304 307 307 310 308 306 305 304 305 304 304 304 304 304 304 305 305 306 308 307 308 312 316 311 310 309 309 310 313 312 312 312
303 306 309 308 308 310 311 311 308 308 308 308 309 310 310 310 310 311 309 309 308 308 307 309 312 310 310 308 305 305 303 302 303 303 304 304 305 305 304 307 306 311 310 311 313 316 314 313 315 313 311 312 313 314
304 309 309 309 309 310 312 312 310 309 309 309 309 310 310 310 309 309 306 307 308 308 305 313 315 315 311 312 310 302 304 305 304 304 305 304 304 302 307 307 310 310 310 311 313 314 313 313 313 313 313 313 315 316
305 310 310 309 309 311 312 312 311 310 309 310 310 310 312 311 312 311 307 307 307 308 311 314 317 320 310 313 308 306 302 309 304 307 309 306 303 308 306 309 309 312 310 310 311 312 314 315 315 315 314 314 314 313
308 310 310 309 310 312 313 312 312 310 310 309 310 313 314 313 310 309 308 309 310 306 306 312 313 319 317 315 314 312 309 313 315 310 307 310 313 311 310 309 308 311 311 310 311 311 312 313 312 312 312 312 310 311
310 310 310 310 310 312 313 313 312 311 310 311 313 314 312 310 312 311 316 313 311 314 311 309 314 318 315 318 317 315 317 312 310 311 310 313 313 312 311 309 306 307 311 310 309 309 310 311 310 310 310 310 309 309
311 311 311 310 310 312 314 313 313 312 316 316 314 313 312 310 313 319 317 317 317 317 316 317 315 316 316 312 315 317 318 315 315 310 310 313 314 311 309 309 306 304 310 310 309 309 309 309 309 309 308 308 307 307
312 311 311 311 310 313 314 314 313 314 313 314 316 318 317 314 313 320 318 314 313 311 310 315 319 316 316 314 316 317 317 316 309 310 312 313 310 309 308 307 307 304 305 310 308 308 308 308 308 306 307 306 306 306
312 312 313 311 314 316 314 314 313 314 313 316 322 310 316 317 317 315 311 310 310 309 309 311 320 318 316 318 313 317 313 309 310 311 311 309 308 307 306 307 306 305 303 305 310 308 307 307 307 306 305 304 304 304
312 313 316 318 317 313 314 313 313 314 317 321 317 315 319 315 311 311 310 309 309 308 309 313 317 311 311 313 310 311 312 310 311 310 308 307 307 306 306 306 306 305 303 303 304 309 308 307 307 307 305 304 304 303
312 316 319 318 314 313 314 314 316 315 320 321 318 315 314 312 311 310 310 309 307 309 309 310 312 312 311 308 311 311 310 304 308 308 306 306 308 306 305 305 305 307 303 303 304 307 309 309 308 308 307 306 305 304
313 320 320 316 312 315 315 316 322 322 320 319 319 314 313 312 311 311 309 308 308 307 310 309 311 314 308 310 310 308 308 305 303 304 305 306 307 306 305 306 306 305 304 303 305 305 304 307 304 303 301 302 302 304
314 315 314 313 313 316 323 321 322 318 320 315 316 314 315 312 311 311 310 309 308 308 308 312 308 310 310 310 308 305 304 301 300 301 302 307 307 307 307 306 305 303 304 303 303 303 303 302 303 301 301 300 301 301
313 313 314 313 315 316 322 323 320 323 320 317 316 313 313 313 312 311 310 311 312 309 307 307 309 308 307 305 305 304 303 301 302 302 302 303 302 302 303 305 302 305 303 301 301 300 300 300 300 301 300 299 300 300
314 317 319 319 317 320 326 321 322 322 324 317 315 315 314 313 313 313 311 309 308 309 309 310 310 307 306 304 303 303 302 301 301 301 301 301 302 302 303 304 303 302 302 301 300 300 300 300 301 300 299 299 299 298
317 323 322 318 323 319 323 318 319 320 317 318 318 318 317 317 317 312 311 310 309 308 310 309 308 306 307 307 307 307 304 304 302 301 301 301 302 301 302 302 302 302 300 300 298 299 299 299 299 299 300 298 299 298
320 321 319 322 324 327 321 322 316 316 319 318 320 318 318 319 318 315 312 313 310 310 309 309 307 307 307 306 307 307 307 307 306 305 303 301 297 298 299 301 301 299 300 300 300 299 300 299 299 301 300 299 299 299
322 322 323 325 326 314 315 320 321 321 323 319 319 320 319 321 319 315 315 314 312 310 311 309 310 311 309 310 310 309 308 306 302 301 300 300 300 300 300 300 299 298 298 300 301 301 300 299 299 300 300 300 299 299
323 323 326 325 320 315 320 324 323 324 321 319 319 321 321 320 316 317 320 316 315 313 311 311 309 306 308 307 303 303 301 301 301 300 300 300 298 299 299 298 298 298 298 299 300 300 299 299 299 299 299 299 299 298
317 317 316 311 317 322 322 322 322 320 321 319 320 319 319 317 316 318 317 314 314 313 312 311 309 306 305 303 301 301 301 301 300 298 300 300 299 298 297 297 297 297 298 298 299 299 299 299 298 298 299 298 298 298
316 320 318 323 324 324 325 324 323 322 322 321 319 318 318 318 320 318 315 316 315 315 313 310 307 305 306 305 300 300 301 301 301 299 300 300 299 299 297 295 295 297 297 297 297 297 298 299 299 298 298 298 298 298
315 320 321 319 320 320 320 321 321 321 324 322 320 322 323 322 321 317 313 313 314 315 314 310 309 308 306 303 303 303 302 302 301 301 300 299 299 299 298 297 297 297 297 297 296 296 296 297 298 298 297 297 297 297
325 324 326 323 325 320 323 322 322 320 322 323 321 320 324 322 318 315 313 316 313 314 311 309 309 308 307 307 307 305 304 302 302 302 300 300 299 298 298 298 297 298 297 297 296 296 296 296 297 297 297 297 297 297
325 323 323 323 326 323 323 322 322 320 320 321 322 319 319 318 316 314 316 316 315 314 310 311 310 308 303 301 301 301 301 300 300 298 298 297 298 298 298 298 297 297 298 297 297 297 296 296 297 297 297 297 297 297
324 322 323 325 324 324 324 321 321 319 315 316 315 315 316 316 317 315 313 312 310 305 304 303 302 301 300 300 299 298 297 298 298 297 295 294 296 296 298 298 298 298 297 297 297 297 297 297 297 296 296 296 296 296
321 322 323 322 321 320 320 320 317 315 315 316 316 316 318 316 314 313 309 307 306 303 302 302 301 301 300 299 298 296 295 295 295 294 295 295 295 296 296 297 297 297 297 297 297 297 296 296 296 296 296 296 296 296
323 324 323 324 322 320 320 320 319 316 317 317 318 319 318 316 317 310 308 305 304 303 302 301 301 299 299 298 297 296 295 295 294 294 294 294 293 294 295 295 296 297 296 296 296 296 296 296 296 296 296 296 296 296
324 323 323 322 322 321 320 319 321 320 320 320 319 318 320 317 314 310 307 305 304 302 302 301 301 300 299 298 297 296 296 295 295 294 293 294 293 293 293 294 294 295 295 295 295 295 295 295 296 296 295 295 295 294

GFSWCAN_925_thetae_051.txt.gz
Theta_e
305 304 304 302 301 302 304 306 307 306 306 306 307 307 308 308 308 307 308 308 307 305 306 306 307 309 309 309 308 309 308 305 306 308 309 309 312 313 314 313 314 316 317 319 320 327 331 316 319 320 315 314 312 311
304 304 302 301 302 304 307 306 307 307 306 306 307 308 308 309 309 308 309 309 308 306 308 307 307 307 307 308 309 308 308 307 306 307 307 309 313 310 311 315 311 315 312 314 314 318 316 312 317 311 311 312 312 310
304 302 301 302 305 307 307 308 307 307 306 307 307 308 308 308 309 309 309 309 307 305 302 304 308 309 307 306 307 310 308 304 304 304 305 307 311 308 311 311 312 310 310 311 311 310 310 310 311 311 311 311 312 311
302 301 302 305 307 307 308 308 307 306 307 307 308 308 308 308 309 309 308 307 307 302 303 306 307 308 306 305 306 308 307 306 303 302 302 305 309 306 310 309 312 310 310 309 311 310 311 312 311 311 311 311 313 313
302 302 305 308 308 308 309 308 307 307 307 308 309 308 309 308 308 308 307 306 306 305 305 303 305 307 306 305 305 305 305 305 305 306 305 307 306 306 304 306 310 308 308 310 313 313 313 311 311 311 311 312 312 314
302 303 307 309 308 309 310 308 307 307 308 309 309 309 309 309 310 311 308 307 307 307 303 309 305 307 307 306 304 303 303 303 302 304 303 304 304 306 308 309 309 310 310 311 314 314 316 312 311 311 311 312 314 313
303 304 309 309 308 310 311 310 308 307 309 309 310 310 310 311 311 311 308 309 308 307 303 308 313 309 310 307 302 302 302 301 303 305 305 304 304 304 305 309 308 311 310 310 312 314 315 315 315 313 314 314 313 313
303 305 309 309 309 310 312 311 310 309 309 309 310 310 310 309 308 309 307 307 307 307 303 310 317 315 311 310 309 300 303 302 302 305 306 306 303 303 304 306 308 310 309 310 310 312 311 312 312 312 312 313 314 315
304 308 310 309 309 310 313 312 311 310 309 309 310 310 311 311 310 311 307 306 307 307 312 313 315 319 310 312 305 305 302 309 302 307 309 307 305 309 308 307 308 309 310 309 310 309 310 310 310 310 309 309 310 310
305 309 310 309 309 310 313 312 312 310 310 310 310 312 311 312 309 307 306 308 309 304 303 311 309 318 313 314 315 313 306 309 313 311 308 311 312 309 309 308 305 306 310 309 310 311 310 310 310 309 309 308 308 308
307 311 311 310 310 310 313 313 312 311 310 311 312 312 311 309 311 310 315 313 310 313 309 306 309 313 314 317 316 314 316 310 309 310 309 311 312 309 307 306 305 303 308 309 309 309 308 308 308 307 306 306 305 306
309 312 311 311 311 310 313 314 313 311 315 315 314 313 310 309 310 317 314 313 315 315 312 314 313 310 312 311 315 315 317 314 314 308 310 309 307 307 306 306 305 302 308 308 307 307 307 307 305 304 305 305 304 304
311 312 312 312 311 311 315 313 313 312 312 312 313 315 315 312 310 316 314 312 310 308 308 310 314 313 314 311 314 315 315 313 306 307 310 310 306 306 305 304 305 304 305 308 307 307 306 306 305 304 303 303 303 303
311 312 312 312 317 314 312 313 313 313 312 314 320 312 314 315 316 315 310 308 307 307 307 306 313 315 312 318 311 314 310 307 307 301 305 306 305 305 304 303 304 304 302 302 307 307 307 306 306 305 304 304 303 303
312 312 315 316 317 313 312 314 313 313 316 319 315 313 317 313 310 309 307 306 306 305 306 311 310 307 307 310 306 308 309 306 305 304 305 305 304 304 304 304 303 303 302 301 303 307 307 307 306 306 305 304 303 303
311 313 318 319 318 313 314 314 314 314 317 319 318 315 311 310 309 308 308 307 304 305 305 305 309 310 309 307 309 310 308 301 304 304 304 303 306 304 303 303 303 304 303 300 303 304 308 307 307 307 307 306 304 301
310 315 320 316 313 312 317 314 319 319 321 317 315 311 310 310 309 308 307 306 304 304 307 306 309 312 306 308 309 306 306 303 301 300 299 301 303 303 303 304 304 303 302 302 302 302 305 306 303 301 300 300 303 304
309 311 312 312 313 315 320 317 320 321 318 314 315 315 311 309 309 308 307 306 305 305 305 310 305 308 309 309 306 304 302 300 298 298 299 301 301 301 302 303 304 300 301 300 299 299 299 301 300 299 299 299 299 298
309 312 315 314 317 316 319 322 319 319 320 314 312 310 310 310 309 308 307 307 307 305 304 305 308 307 306 303 303 302 301 299 299 300 299 300 301 299 299 301 301 302 300 299 298 298 298 299 299 298 298 299 297 297
313 316 319 321 318 318 323 322 319 318 321 314 312 312 312 312 310 311 308 306 306 306 308 308 308 305 304 303 301 301 300 298 299 299 299 299 302 299 299 300 300 300 299 298 298 298 299 299 299 299 298 298 297 297
316 322 321 318 318 316 319 318 315 316 315 315 313 315 317 315 315 310 309 308 307 307 309 306 306 305 304 304 304 304 302 301 301 300 300 300 300 298 298 299 299 299 298 298 297 297 297 298 298 298 298 298 299 298
319 320 319 320 321 322 320 319 314 312 315 315 316 316 317 319 318 316 311 314 312 309 309 307 306 305 305 304 305 306 306 304 303 300 298 299 295 296 296 298 297 296 297 298 298 298 297 299 299 298 299 298 298 298
322 321 321 322 325 313 315 316 317 317 320 320 318 319 318 318 318 313 314 313 312 312 310 308 308 309 307 308 307 306 306 302 298 298 297 297 297 297 297 297 297 298 297 298 298 298 298 299 299 300 300 298 298 298
322 322 323 323 318 316 316 320 319 320 319 317 317 317 319 317 314 315 318 313 311 312 310 309 310 305 306 306 304 302 301 300 299 298 298 298 296 296 296 296 297 297 298 298 298 298 299 299 298 298 298 298 298 298
315 315 314 310 315 319 320 320 319 319 320 319 319 319 318 315 317 316 315 313 310 311 309 310 308 305 304 300 298 299 300 300 298 296 298 299 297 296 296 296 297 297 298 298 298 298 298 299 299 298 298 297 297 297
316 320 316 321 322 321 322 322 321 320 320 321 320 318 318 319 321 319 314 313 313 311 309 310 308 305 302 300 297 298 300 300 299 297 298 298 298 297 295 293 294 296 297 296 297 298 298 298 297 297 297 297 297 297
316 319 315 314 316 318 319 319 318 318 321 322 318 321 322 321 320 316 310 310 311 314 314 313 312 306 303 302 302 303 302 300 299 299 300 299 299 299 298 297 296 296 296 296 296 296 297 297 297 297 297 297 297 297
322 321 323 320 320 318 321 319 319 320 318 317 317 319 320 319 316 311 309 315 314 313 313 310 307 304 301 299 300 301 301 300 300 299 299 299 298 298 298 297 297 297 297 296 295 296 297 297 297 297 297 296 297 296
322 320 321 322 322 320 320 320 320 318 316 316 318 317 316 314 313 312 314 314 314 314 307 302 299 300 299 300 299 299 299 300 299 297 296 294 295 297 297 296 297 297 296 296 296 296 296 297 297 297 297 296 296 295
320 319 322 322 322 323 321 317 318 315 313 313 313 313 313 313 314 311 308 304 302 300 300 300 300 299 297 295 294 295 296 297 297 296 293 292 294 296 297 297 297 297 297 297 297 296 296 296 296 296 295 296 295 296
316 319 321 320 319 318 317 315 315 314 313 314 312 313 315 312 312 305 303 302 301 301 301 299 299 298 297 295 294 293 292 294 294 295 294 294 295 296 297 297 297 297 297 297 296 296 296 296 296 296 296 296 296 296
319 320 321 321 318 315 314 315 314 314 315 316 316 316 314 313 314 305 303 302 301 300 299 299 299 297 297 296 296 295 295 294 293 293 293 293 294 295 296 296 296 296 296 296 296 296 296 295 296 295 295 295 295 295
320 318 318 319 318 317 316 317 317 317 316 317 317 316 316 313 311 306 303 302 302 301 300 299 298 297 297 297 296 295 295 294 293 293 293 292 293 294 294 295 295 295 295 295 295 295 295 295 295 295 294 294 294 294

GFSWCAN_925_thetae_054.txt.gz
Theta_e
304 304 303 302 302 304 307 307 306 306 306 306 306 307 307 308 309 307 308 308 307 306 305 305 307 309 309 309 307 307 308 304 307 309 309 309 312 312 313 312 312 315 315 318 317 322 328 312 315 319 314 311 311 312
304 303 302 303 304 307 307 307 306 306 306 306 307 308 308 308 308 308 309 308 308 307 306 306 306 307 306 307 309 308 308 307 307 308 308 308 312 309 312 315 311 316 313 312 313 315 312 311 312 311 310 311 311 311
303 303 303 305 308 307 307 307 307 306 306 307 308 308 308 308 308 309 309 307 305 305 302 303 307 308 305 306 308 309 308 305 304 304 306 307 311 307 312 312 313 311 309 311 311 312 313 312 312 311 311 310 311 312
303 302 303 307 309 308 307 307 307 306 307 308 308 308 308 308 308 309 308 307 306 301 304 306 306 308 305 305 306 306 306 304 301 300 300 303 309 306 308 307 311 310 309 308 310 312 312 314 315 313 312 311 313 312
302 303 304 308 308 308 309 308 307 307 307 308 309 308 308 308 308 308 306 307 306 305 308 307 304 307 306 305 304 304 304 303 304 304 304 305 305 305 306 307 309 311 309 311 312 313 314 314 314 314 313 313 313 314
303 303 305 309 308 309 311 309 307 307 308 309 309 309 309 309 310 311 307 307 306 306 303 311 307 305 306 306 305 303 303 302 302 303 304 304 304 306 308 309 309 310 310 311 315 314 314 314 313 312 314 314 314 314
303 303 307 309 308 309 312 311 307 309 309 309 310 310 310 310 310 310 308 308 307 306 302 307 314 309 308 305 301 301 302 301 303 305 305 304 305 304 305 309 308 310 309 310 310 311 312 310 310 309 309 311 313 313
303 305 308 310 309 309 312 311 310 309 309 309 309 310 310 309 308 308 308 307 307 307 302 308 314 316 309 307 306 299 301 301 303 306 306 307 305 304 305 307 308 309 308 309 309 309 309 309 308 308 308 308 308 308
303 305 310 310 309 309 312 312 311 310 309 309 309 309 310 310 309 310 307 307 307 306 310 312 315 317 309 310 305 303 300 307 301 307 309 307 305 309 309 309 307 308 310 310 309 308 309 309 308 307 307 306 306 307
304 306 310 310 310 309 311 313 312 311 309 309 309 312 311 311 308 307 307 308 309 306 303 309 307 313 310 312 314 312 304 306 311 311 308 310 310 309 307 306 305 306 309 309 308 308 307 307 307 306 306 305 305 305
305 308 311 311 311 310 310 313 312 311 310 310 311 311 311 309 310 310 314 314 311 313 309 307 309 311 311 317 315 313 313 308 308 311 309 305 303 307 306 305 304 303 307 309 307 306 305 304 305 305 305 305 304 304
305 309 311 311 312 310 310 314 313 310 312 313 313 312 310 308 309 315 311 310 312 315 309 311 311 309 309 311 315 312 317 311 312 306 306 301 304 305 305 305 304 302 306 307 307 306 305 305 304 303 303 303 303 303
306 309 311 312 311 314 314 312 312 311 311 311 312 314 314 310 309 315 312 310 309 307 306 307 309 312 313 309 312 313 313 310 304 306 307 306 304 304 304 304 303 303 302 307 306 306 305 305 304 303 303 303 302 303
306 308 311 312 316 315 313 312 312 312 311 311 319 313 314 313 315 313 309 307 306 305 305 304 308 312 309 315 308 312 308 305 306 299 302 304 304 304 303 303 303 303 302 301 305 306 306 305 305 304 304 303 302 302
307 308 311 314 316 317 312 313 313 312 313 316 315 311 313 311 308 308 306 305 305 303 304 309 307 304 305 308 305 306 308 305 302 303 303 303 303 303 303 303 302 302 302 300 301 305 306 306 306 305 305 304 301 301
307 310 316 316 318 314 312 314 312 313 315 316 317 317 310 309 308 307 306 306 302 303 303 303 307 308 308 306 308 309 308 302 304 302 302 301 303 303 303 302 302 302 301 300 301 303 305 306 305 303 301 301 303 301
308 316 313 311 311 312 314 313 314 315 317 318 314 309 312 309 309 307 305 305 302 303 307 305 308 310 304 307 308 305 306 304 301 299 298 297 300 302 301 301 302 302 300 301 300 302 304 303 301 299 297 298 298 301
307 307 307 310 313 313 316 314 318 320 322 315 314 314 311 308 308 306 305 304 304 304 304 308 304 307 308 309 306 303 301 300 298 297 297 298 298 298 297 297 300 299 299 298 298 298 298 299 297 296 297 297 297 298
308 310 312 315 316 314 315 319 317 318 316 313 311 308 310 309 308 307 305 305 304 303 304 305 307 306 306 303 303 302 301 299 300 299 298 298 299 298 297 299 299 300 299 297 297 297 298 298 297 297 297 297 296 297
312 315 319 320 319 316 320 319 317 315 318 315 309 311 310 311 311 311 310 308 309 308 309 309 308 306 304 302 300 301 300 298 298 299 299 299 300 297 297 297 298 298 297 296 297 298 297 298 297 297 297 297 298 297
317 321 320 316 316 315 316 317 314 313 314 314 311 312 315 314 316 310 309 306 309 309 312 309 309 306 303 303 302 302 300 299 299 299 300 299 299 296 297 297 297 297 297 297 296 296 297 297 297 297 298 298 297 298
319 320 319 318 319 320 318 319 315 311 313 314 316 316 318 318 318 315 309 311 310 308 310 311 309 306 308 305 303 303 304 302 301 298 297 297 295 295 295 296 297 297 297 297 297 296 297 298 298 298 298 297 298 298
320 321 320 321 323 313 314 314 315 315 318 318 315 317 317 316 315 311 314 311 310 310 310 308 309 308 306 305 304 305 304 300 296 296 296 296 296 296 295 296 296 297 296 297 297 297 297 297 297 298 298 297 298 298
322 321 321 321 318 316 316 317 317 317 316 316 316 318 319 316 315 316 317 312 309 309 308 310 308 305 304 305 304 303 302 299 298 296 297 296 295 295 295 295 296 297 297 297 297 296 298 298 298 298 298 297 297 296
313 314 311 307 313 318 318 319 318 318 319 318 318 318 316 314 317 316 313 310 307 309 308 307 308 305 303 300 298 299 300 299 297 295 297 296 295 294 295 296 296 297 297 298 298 298 298 298 298 297 297 297 296 296
315 318 315 320 320 318 319 320 320 319 318 319 318 316 313 313 319 318 312 310 310 309 308 308 308 305 302 300 297 297 298 299 297 297 298 297 296 296 294 294 294 296 296 297 297 297 297 297 297 297 297 297 297 297
315 320 314 311 314 316 317 317 317 317 320 321 316 319 319 319 318 313 308 308 309 312 312 311 310 307 303 300 301 303 304 302 299 299 299 298 297 297 297 297 295 296 296 296 296 296 297 297 296 296 296 296 296 296
318 318 321 319 318 317 320 318 318 318 317 315 316 317 319 318 315 310 308 311 313 312 307 303 302 301 299 301 303 300 300 298 298 297 297 297 297 296 296 296 295 296 297 296 296 296 296 297 296 296 296 296 296 295
320 320 320 322 320 318 318 319 319 316 314 313 316 316 315 312 311 310 312 307 311 302 298 298 297 297 297 297 297 297 298 298 298 297 296 294 293 296 295 296 297 297 297 296 296 296 296 296 296 297 296 297 296 295
317 316 319 320 321 322 319 315 316 313 312 312 311 312 312 311 312 307 304 303 302 299 299 299 298 298 295 295 294 294 294 295 295 295 293 293 294 295 296 296 296 297 297 297 296 296 296 295 295 295 295 295 295 295
315 317 320 319 319 316 315 313 312 313 312 312 311 313 312 310 306 301 301 301 301 300 299 297 295 296 296 295 294 293 292 293 293 293 294 295 296 296 297 296 296 296 296 296 296 296 296 295 295 295 295 295 295 295
316 319 319 320 317 314 313 313 313 314 314 314 314 313 311 312 311 303 300 300 299 298 298 298 296 295 295 295 295 294 293 292 292 292 293 294 296 296 296 296 296 296 296 295 295 295 295 295 295 294 295 294 294 294
318 317 316 316 316 316 315 315 316 316 315 316 315 314 313 313 311 304 302 301 300 300 299 298 297 296 296 296 295 294 293 293 292 292 293 294 294 295 294 294 295 295 295 295 295 295 295 295 294 293 293 294 293 293

GFSWCAN_925_thetae_057.txt.gz
Theta_e
304 303 302 303 306 307 307 307 306 306 306 306 307 307 307 308 308 307 308 308 307 309 310 308 308 309 308 308 310 308 309 308 308 310 311 311 313 313 313 311 311 310 312 313 312 315 318 310 312 321 317 315 315 317
303 302 303 304 307 307 308 307 306 306 306 307 307 308 308 308 308 308 307 307 307 307 309 306 307 306 306 307 308 309 308 308 307 308 309 309 311 310 314 317 310 316 314 317 317 317 311 311 312 313 314 315 314 316
303 302 303 305 308 307 308 307 306 306 307 307 308 308 308 308 308 308 307 306 306 307 308 308 310 308 306 305 307 310 309 307 307 305 306 307 311 307 311 312 311 309 309 311 310 312 312 313 314 314 315 315 313 315
302 303 303 306 308 308 309 308 307 307 307 308 308 308 308 308 308 308 308 307 306 305 312 311 306 309 305 305 305 307 308 305 304 303 306 307 309 306 309 306 309 310 309 309 311 313 311 311 314 316 317 315 315 315
302 303 304 308 309 308 310 308 306 307 309 309 308 308 308 308 308 307 306 307 306 308 313 315 309 307 305 305 305 305 306 307 307 308 307 307 306 306 307 309 309 309 312 312 313 314 315 312 311 312 315 317 316 316
302 303 305 309 309 309 311 310 307 309 309 309 309 309 309 309 310 311 312 307 306 306 309 314 311 309 307 307 307 305 305 306 306 307 307 307 305 307 310 311 307 309 311 311 312 311 310 310 309 309 311 311 310 310
302 303 305 310 309 309 311 311 310 309 309 309 310 310 310 310 310 311 311 308 307 306 309 314 316 310 308 307 306 308 305 306 308 308 309 308 307 307 308 310 309 309 309 309 309 310 311 309 309 308 308 308 308 308
303 304 306 310 310 309 311 312 311 310 309 309 309 309 309 309 309 309 308 307 307 307 306 315 317 317 309 313 313 304 309 308 308 309 310 309 307 308 310 310 309 310 310 309 308 308 308 308 308 307 307 307 308 308
303 304 308 310 310 310 310 312 312 310 309 309 309 308 309 310 311 310 307 307 307 307 313 313 317 322 312 313 310 308 307 313 306 312 313 311 308 311 311 310 309 309 310 309 307 306 306 307 306 306 306 306 306 307
303 304 308 310 311 310 309 313 312 311 309 309 309 311 317 311 308 307 307 308 310 308 308 311 312 317 317 317 317 314 310 313 313 313 311 312 311 310 310 309 309 309 310 308 308 307 306 306 305 305 305 305 305 305
304 304 306 310 311 311 310 312 313 311 310 310 313 316 311 309 309 312 315 315 314 315 312 309 311 316 314 319 320 315 317 313 313 311 310 312 311 310 310 309 309 307 309 308 307 307 306 305 305 304 304 304 304 304
305 305 306 310 312 310 309 312 313 310 311 313 313 312 310 312 314 317 316 314 316 320 316 317 318 312 316 314 318 318 319 315 317 310 310 314 310 311 310 309 309 307 307 309 308 307 306 306 305 304 304 304 304 304
305 305 306 310 311 314 313 312 311 311 311 311 313 316 318 316 316 317 317 317 315 314 313 313 314 318 315 316 318 318 316 316 310 311 313 312 313 310 309 309 309 307 305 307 309 308 307 306 306 305 304 303 303 303
306 306 308 310 313 315 316 312 312 311 311 316 321 319 319 319 318 318 317 316 314 312 312 310 313 320 317 319 315 316 312 310 311 313 314 312 313 311 310 309 308 308 307 306 306 309 309 308 308 307 307 305 303 303
306 307 311 312 313 315 316 312 312 311 312 319 320 321 319 318 315 315 313 312 313 309 310 314 314 312 311 312 310 311 311 312 312 312 312 313 311 309 311 310 309 308 307 306 305 307 308 306 308 306 305 306 305 302
307 311 317 316 316 313 311 312 311 312 315 319 321 323 319 315 317 314 314 314 310 309 309 309 313 313 312 311 311 312 312 313 311 311 310 308 309 309 310 308 308 307 306 305 305 306 308 307 306 303 302 301 303 305
308 314 308 307 307 310 313 312 312 316 319 322 322 319 318 316 317 316 313 314 308 311 313 311 312 312 309 311 312 310 312 309 307 307 305 306 307 307 305 303 305 306 305 305 303 304 305 304 302 301 302 300 300 300
307 306 306 307 309 312 313 312 318 322 325 325 322 321 316 316 316 316 313 311 311 311 312 312 309 311 311 311 311 309 308 306 306 306 305 306 305 305 303 303 303 304 305 302 302 301 302 302 301 301 300 300 300 300
308 311 311 312 314 313 316 319 317 324 323 320 318 316 315 315 314 313 314 311 309 309 310 310 312 312 311 310 309 307 306 306 306 306 305 304 304 303 302 302 302 303 303 302 302 301 301 300 299 299 299 300 300 300
313 317 320 318 318 315 321 324 318 321 322 322 317 318 317 318 318 317 314 313 314 313 312 313 313 312 310 310 306 306 307 306 305 306 307 306 302 301 302 301 302 302 300 300 300 299 301 300 299 299 300 299 300 300
316 320 318 316 315 314 319 322 323 321 321 321 317 319 323 321 321 319 316 312 313 312 314 313 312 311 309 307 304 304 305 305 307 307 305 303 301 300 301 300 300 300 300 300 301 300 300 300 299 300 300 300 300 300
318 319 318 317 319 321 323 322 323 318 319 320 323 321 324 324 322 320 316 317 315 314 314 314 313 313 313 313 310 306 306 305 304 301 299 299 302 301 301 300 301 301 301 301 300 300 300 299 299 299 299 299 299 299
319 320 319 321 325 318 321 316 321 320 324 324 321 322 323 322 320 316 319 316 316 314 314 311 312 312 310 309 306 306 306 304 302 301 300 300 299 299 299 299 299 299 300 300 299 299 299 298 298 300 299 299 299 299
319 321 324 325 324 324 321 322 321 323 322 322 322 321 322 321 319 318 320 318 316 313 312 313 311 313 311 310 311 309 307 302 301 299 300 300 299 299 298 298 298 298 298 299 299 299 300 300 299 299 299 299 298 298
316 318 316 310 317 322 321 322 323 322 323 322 321 322 322 320 321 320 319 318 315 315 316 313 313 313 311 309 306 303 300 300 300 301 299 299 298 297 297 298 298 298 298 299 299 300 300 299 299 299 299 298 298 298
311 320 319 321 324 323 323 324 323 323 322 323 321 321 319 320 321 320 318 316 316 317 317 315 315 314 311 307 307 301 301 300 300 301 300 298 298 299 299 300 300 298 296 297 297 298 299 299 298 298 298 298 297 298
317 323 321 317 319 320 323 322 321 322 323 324 322 322 322 321 319 319 317 314 316 315 313 310 311 308 305 304 303 302 301 300 300 299 297 297 297 297 297 298 297 297 298 298 296 297 298 298 298 298 298 297 298 298
322 322 323 323 323 323 325 323 323 324 321 321 321 321 321 320 319 318 316 312 312 305 300 299 299 299 298 297 297 299 298 297 297 297 297 296 295 295 296 297 298 297 297 296 297 297 298 298 298 298 298 297 298 296
322 324 324 326 324 324 325 325 325 323 320 321 321 321 320 318 316 313 311 307 305 301 300 300 298 297 297 296 296 295 296 297 300 300 300 299 299 296 296 298 298 298 297 297 296 296 296 297 298 297 297 297 297 296
321 321 324 324 325 326 324 322 323 319 317 318 318 318 317 316 310 304 304 303 302 302 300 299 298 299 298 298 296 295 294 294 295 296 297 298 297 296 296 297 297 298 298 298 297 296 295 296 296 296 296 296 296 296
320 321 324 324 324 322 321 318 317 317 317 317 316 319 317 312 306 301 301 301 300 299 299 298 297 297 298 297 297 296 294 293 293 294 295 296 296 297 296 297 297 297 297 297 297 297 296 296 296 296 296 296 296 296
320 322 324 325 322 319 317 318 319 319 319 319 320 317 316 316 313 305 300 300 300 300 298 298 298 296 295 294 293 293 292 293 293 294 295 296 296 296 296 296 296 296 296 296 296 296 296 296 296 296 296 296 295 295
323 322 321 321 322 321 319 319 320 320 319 320 320 319 317 317 316 307 300 299 301 300 299 298 296 295 295 294 293 293 293 293 293 294 294 295 294 294 294 295 295 295 295 295 296 296 295 295 295 295 295 295 294 294

GFSWCAN_925_thetae_060.txt.gz
Theta_e
305 303 303 303 306 308 307 307 306 306 307 307 308 308 308 308 308 310 309 310 311 314 313 311 310 311 311 311 312 311 312 310 309 312 314 314 315 313 315 312 312 313 315 314 314 314 316 315 316 318 317 318 317 319
304 303 303 304 307 308 307 307 306 307 307 308 308 308 308 308 308 309 311 308 307 309 314 311 310 310 309 309 310 312 312 311 308 309 311 311 313 312 314 318 312 313 313 315 314 315 315 313 313 312 313 316 317 316
304 303 303 305 308 308 308 307 307 307 307 307 308 308 308 308 308 310 311 310 309 312 314 313 314 311 309 309 309 313 310 309 309 306 307 309 311 309 314 313 310 307 308 314 312 314 312 313 313 315 316 317 317 316
304 303 304 305 309 308 309 307 307 307 308 308 308 308 308 308 308 309 311 310 310 311 317 316 310 313 309 309 308 309 310 309 307 307 308 309 311 308 310 307 308 305 306 307 309 310 311 312 312 314 316 317 317 317
303 303 303 306 309 308 310 308 307 308 309 309 308 308 308 308 308 310 310 310 309 312 317 317 313 312 310 310 310 310 311 311 311 310 310 310 308 308 309 311 309 309 311 312 312 310 311 311 310 311 312 313 312 312
303 303 304 306 310 309 310 309 309 309 309 309 309 309 308 309 310 312 316 311 309 310 314 319 316 314 313 312 310 311 310 312 312 312 312 310 308 309 310 312 307 310 309 308 309 310 308 309 309 309 310 311 310 310
303 303 304 307 310 309 309 311 310 310 309 310 310 310 310 310 311 315 317 312 309 309 312 319 319 317 311 312 309 312 312 312 313 313 312 311 311 310 311 311 309 310 309 307 307 308 308 307 308 308 308 309 309 308
303 304 304 308 310 310 309 312 312 310 309 309 309 309 309 309 310 313 311 308 308 310 312 318 320 320 315 318 318 308 315 314 313 313 312 313 312 311 314 310 311 310 308 308 307 306 306 306 306 306 307 308 308 308
303 304 304 307 310 310 310 310 312 311 309 309 309 309 310 311 315 314 308 307 309 310 318 318 323 321 317 318 315 313 313 317 313 316 312 311 310 313 314 309 310 311 310 309 307 306 305 304 305 306 305 307 308 307
304 304 305 307 310 311 310 309 312 311 310 309 310 314 319 316 310 308 308 311 312 312 312 316 317 320 319 319 320 317 313 315 315 314 313 313 313 310 309 309 310 310 310 310 309 308 307 306 304 305 305 305 306 306
304 305 305 306 309 311 311 309 312 311 310 313 317 320 314 310 312 313 317 318 318 319 317 316 317 319 318 321 322 319 318 316 318 315 313 313 314 310 309 309 309 310 310 310 309 308 307 307 306 304 305 305 304 304
305 305 305 306 308 310 310 311 313 311 315 316 316 314 314 316 319 322 320 320 322 319 319 319 318 317 319 319 320 321 320 319 317 314 312 316 312 310 309 309 309 308 308 309 309 309 307 307 306 306 304 304 304 304
305 305 306 307 309 313 313 312 311 311 311 314 317 322 323 324 323 319 319 319 319 317 315 316 317 319 318 320 322 322 317 317 314 313 316 312 312 310 309 309 309 307 307 307 308 308 308 307 306 306 306 304 303 304
305 306 307 309 309 313 315 315 311 311 313 320 324 323 324 321 319 320 319 318 317 316 315 315 316 322 322 322 318 318 316 314 313 316 315 311 312 311 311 309 309 309 307 307 306 307 308 306 306 304 304 304 304 304
306 307 312 311 312 313 315 312 312 311 317 323 324 324 321 319 319 320 318 318 317 317 315 315 318 318 316 315 313 313 313 313 314 314 312 312 311 312 311 310 310 309 307 307 306 306 306 306 304 303 303 302 304 304
307 309 315 312 312 308 309 312 311 315 319 322 324 325 321 320 320 320 319 319 318 317 315 315 315 315 314 313 313 313 312 315 313 311 310 310 313 311 309 308 308 308 307 307 305 305 306 305 303 303 303 302 302 303
307 316 309 307 306 309 312 315 316 320 323 324 323 322 322 322 322 321 319 319 316 317 319 315 316 315 313 313 314 311 313 310 309 308 308 310 310 310 309 307 308 308 307 307 305 304 304 304 303 303 303 302 303 302
309 310 308 306 308 311 315 315 320 324 326 324 323 321 322 322 323 320 319 317 317 319 317 317 314 316 315 316 315 311 310 308 308 308 308 309 309 309 307 307 307 307 308 307 305 304 304 303 303 303 302 302 302 302
307 309 312 310 310 316 319 322 320 325 324 322 322 322 322 322 321 320 320 318 315 314 315 315 315 317 314 311 311 310 310 308 308 307 307 308 308 307 306 306 305 306 307 306 305 303 303 302 302 302 302 302 302 301
313 317 319 315 316 320 322 325 324 327 325 324 323 324 323 322 323 322 318 317 318 316 316 316 316 312 311 313 311 311 309 309 310 308 307 306 304 304 305 304 304 305 305 304 303 301 303 302 302 301 301 301 301 301
316 318 317 316 318 319 321 325 326 325 323 323 323 324 327 326 324 321 319 317 316 317 318 316 315 314 311 311 312 311 309 309 310 308 306 305 303 303 303 303 303 303 303 303 304 303 301 302 301 301 301 301 301 301
318 318 320 317 322 326 328 327 327 327 325 325 325 325 326 325 324 321 319 317 317 316 316 316 316 315 315 315 314 313 311 310 310 305 301 302 304 303 303 303 303 303 303 302 302 302 302 301 301 301 301 301 300 300
319 320 322 323 327 326 324 321 325 324 325 326 324 323 324 324 322 320 319 318 318 317 316 315 315 315 315 313 313 311 310 311 309 305 303 303 302 302 302 302 301 301 301 301 301 301 301 300 300 301 301 300 300 300
318 324 326 328 328 327 326 327 325 326 327 325 324 324 324 323 322 320 319 318 318 316 316 316 315 316 312 312 312 312 311 310 307 304 303 303 303 302 301 301 301 301 301 301 301 301 301 301 300 301 300 300 300 299
319 323 321 316 324 326 325 324 325 325 326 325 324 324 325 322 322 320 319 318 317 317 316 314 314 313 313 312 310 309 309 307 305 306 305 303 303 302 301 301 301 300 300 300 300 300 301 300 300 300 300 299 299 299
312 322 323 321 325 327 325 325 325 326 326 325 325 324 323 323 321 320 318 318 318 318 318 317 317 314 311 309 308 307 306 305 306 306 305 303 302 302 302 302 302 300 300 299 299 299 300 300 299 300 299 299 298 299
317 323 325 323 324 324 326 327 326 325 326 326 326 324 323 320 319 320 317 317 318 316 313 310 308 308 307 305 304 303 303 303 303 302 301 301 301 301 301 301 300 300 300 299 299 298 299 299 299 299 299 299 299 298
323 323 325 326 325 326 328 328 328 327 325 325 324 323 319 318 320 317 316 315 313 306 305 304 303 302 302 301 301 301 301 301 301 300 300 300 300 300 300 300 298 297 298 298 298 298 299 299 298 299 299 299 299 298
324 325 324 326 327 328 329 329 327 326 324 324 324 323 322 320 316 314 312 311 306 305 305 304 303 302 301 300 299 298 298 299 301 302 302 302 301 300 300 299 298 298 298 298 296 297 298 298 298 298 298 298 297 297
323 323 326 326 326 327 328 326 327 325 323 323 322 320 318 315 310 310 309 307 307 306 304 303 303 302 301 300 299 297 297 297 298 299 300 300 299 299 299 299 298 298 298 298 298 297 296 297 297 297 297 297 297 297
323 324 325 326 327 327 325 324 323 322 322 322 321 322 319 312 307 306 308 307 305 304 303 303 302 301 300 299 299 298 297 296 297 298 298 298 298 298 298 298 298 298 298 298 298 298 297 297 297 297 297 297 297 297
325 325 326 327 327 325 323 324 325 325 324 323 323 321 318 315 314 308 305 305 305 305 302 303 302 300 298 297 296 295 295 296 296 297 297 297 297 297 297 297 297 297 297 298 298 297 297 297 297 297 297 297 296 296
327 326 327 326 326 327 325 324 325 324 323 323 323 323 320 320 319 310 304 305 305 304 303 302 300 299 298 297 296 295 295 294 294 295 294 294 294 295 296 297 297 297 297 297 297 297 297 297 296 296 296 296 295 295

GFSWCAN_925_thetae_063.txt.gz
Theta_e
307 304 303 303 306 308 308 307 307 307 307 308 308 308 308 308 308 313 313 312 314 318 315 314 314 315 314 313 316 314 314 314 312 314 314 315 316 316 314 315 313 315 318 317 317 316 315 318 317 317 321 319 320 321
307 304 303 303 306 309 308 307 307 307 307 308 308 308 308 308 308 312 315 312 312 314 317 314 314 312 312 312 313 314 313 312 310 311 312 312 315 314 315 318 314 314 315 317 315 314 316 316 316 316 316 317 316 320
307 304 303 303 306 309 309 308 307 307 308 308 308 308 308 308 308 311 315 314 313 318 317 315 315 314 312 311 311 316 313 311 310 308 309 310 312 310 316 314 312 313 309 314 314 313 313 310 313 312 314 317 315 318
307 304 303 303 306 309 309 308 307 308 308 308 308 308 308 308 308 309 315 314 314 316 318 319 315 315 313 312 311 311 311 311 310 310 312 310 312 309 312 308 309 307 304 308 312 310 308 309 310 310 312 315 316 316
307 304 303 304 306 310 309 310 309 309 309 309 308 308 308 308 308 310 314 315 314 316 320 320 317 316 314 313 312 312 312 314 314 313 312 312 309 309 310 311 310 308 308 310 311 308 309 310 308 308 310 312 312 313
306 303 303 304 306 310 309 311 310 309 309 309 309 309 309 309 310 312 318 316 314 314 317 322 320 318 316 315 315 312 314 313 313 312 314 312 309 310 312 314 310 309 308 308 308 308 307 307 307 306 308 311 311 311
304 303 304 304 307 310 310 310 311 310 309 309 310 310 310 310 312 315 318 314 311 313 315 320 321 321 318 317 314 314 312 315 313 312 315 312 312 311 312 313 311 310 309 307 307 306 306 305 307 305 308 308 309 309
303 303 304 304 306 310 310 309 312 311 310 310 310 310 310 310 311 314 314 311 310 313 315 321 319 322 319 321 321 315 317 316 315 315 313 314 313 314 314 311 312 311 309 308 307 306 305 305 306 305 305 307 308 308
303 304 304 304 305 308 310 310 311 312 310 309 309 309 311 313 316 316 312 310 312 314 320 320 321 320 320 320 319 318 317 320 316 318 314 314 316 316 314 310 310 312 311 309 308 307 306 305 305 306 305 305 306 307
303 304 305 305 306 308 310 311 310 311 310 309 311 316 320 318 314 311 313 316 314 315 317 323 317 319 319 322 321 319 318 318 318 316 313 317 317 311 310 309 310 310 311 311 309 308 308 307 306 305 306 306 305 304
304 304 305 305 306 307 311 311 310 310 310 315 321 322 319 313 315 316 321 323 323 324 321 321 321 321 319 323 322 324 321 319 321 317 314 315 317 312 310 309 310 309 309 311 310 309 309 308 307 306 306 305 306 306
304 305 305 306 307 309 310 310 311 312 319 318 317 317 319 318 321 326 325 324 324 323 322 320 318 319 319 322 323 323 322 320 321 315 315 318 316 312 311 309 309 309 309 309 309 309 308 307 307 306 306 305 306 306
305 305 306 307 308 309 313 313 312 313 313 318 320 323 325 326 326 323 322 320 320 319 318 317 317 319 323 322 323 323 322 319 315 315 320 316 314 313 311 310 310 310 308 308 308 308 308 307 306 306 306 305 305 306
305 306 307 312 310 310 314 315 313 311 313 324 325 324 325 323 322 320 322 322 320 319 317 316 317 320 323 323 321 319 318 314 315 320 317 315 314 312 311 310 311 311 310 309 308 308 308 307 306 305 305 305 305 305
306 306 310 311 311 312 313 313 311 312 320 324 324 329 322 321 320 321 321 322 321 322 322 322 318 320 321 319 316 315 315 316 316 318 313 314 314 313 313 310 309 309 310 309 308 307 307 306 305 305 304 305 304 304
306 309 315 312 311 308 308 309 311 318 321 323 323 323 322 321 322 322 324 322 321 322 320 319 319 319 318 317 317 317 317 319 315 310 310 313 312 311 310 309 309 309 308 308 307 306 306 306 305 305 304 304 305 304
309 318 315 310 307 309 313 316 320 322 324 324 324 322 322 323 323 323 322 322 322 321 323 320 321 320 317 317 320 316 315 313 310 310 310 311 311 310 309 308 307 308 308 308 307 306 305 305 305 305 305 305 305 304
313 313 311 310 309 313 316 316 322 323 326 325 324 322 323 323 324 323 323 322 321 320 320 318 317 319 320 319 317 314 312 310 309 309 309 310 310 309 308 307 306 306 307 308 307 306 306 304 305 304 304 304 304 304
308 308 308 309 310 317 321 324 322 324 324 323 323 323 325 325 325 324 323 321 319 318 318 316 317 319 318 316 315 312 311 311 311 310 310 310 308 307 307 306 306 307 308 307 307 305 305 304 304 303 303 303 303 303
313 315 319 314 313 322 322 323 326 327 327 325 324 324 325 326 325 323 320 319 319 318 318 317 316 316 316 314 313 315 312 310 310 312 310 308 306 306 306 305 305 305 306 306 305 303 305 304 304 303 302 302 303 303
316 319 318 316 317 322 322 323 326 325 324 324 324 324 326 325 323 321 321 319 318 316 316 315 315 315 314 313 314 315 313 311 311 311 309 308 306 305 305 305 305 305 305 305 306 305 304 304 303 303 303 302 302 302
321 319 323 319 322 325 328 325 326 327 327 325 324 324 323 323 322 321 319 318 317 317 316 317 317 318 317 317 314 314 315 313 312 309 304 304 306 306 305 304 304 304 304 304 303 304 304 304 303 303 303 303 302 301
319 321 324 323 327 329 328 325 327 326 326 325 324 323 322 322 321 320 319 319 319 317 317 317 316 315 316 314 313 313 313 313 312 310 307 306 305 304 304 304 303 303 303 303 303 303 303 302 301 302 303 302 302 302
319 325 326 326 328 329 327 328 326 326 326 325 324 324 324 322 322 319 318 318 317 316 315 316 314 314 313 312 314 313 311 311 309 308 307 306 305 305 304 303 303 302 302 302 302 303 303 303 300 302 302 301 301 301
323 322 324 321 326 328 327 326 326 326 326 325 324 323 322 322 321 319 317 317 316 316 316 314 313 313 312 311 309 310 309 307 307 307 308 307 306 305 304 303 303 301 301 302 301 302 303 301 301 302 301 300 300 301
321 321 325 323 324 326 325 325 325 325 325 325 324 324 323 321 320 319 318 317 317 317 315 314 313 311 310 308 308 307 306 306 306 307 307 305 304 304 304 304 304 303 301 300 300 301 301 301 301 301 301 300 299 301
321 322 323 324 325 325 326 326 327 325 325 325 324 323 321 319 319 319 317 316 315 311 309 307 306 306 306 305 304 304 304 304 303 303 303 303 303 303 302 302 302 301 300 300 300 300 301 301 301 301 301 300 300 300
323 323 325 325 325 326 328 328 327 326 324 324 324 324 321 320 321 319 318 315 310 308 306 305 304 304 303 302 302 302 303 303 303 303 302 302 302 301 301 299 297 297 298 298 299 300 300 300 300 300 300 300 300 299
324 324 325 326 327 327 328 327 325 325 325 325 325 324 324 322 319 317 315 311 309 308 307 306 305 304 303 302 300 300 300 301 303 304 304 304 303 301 300 300 300 300 299 298 296 297 298 300 300 299 299 299 299 299
325 325 327 326 326 326 328 324 326 328 326 325 325 324 321 319 316 314 313 311 311 309 307 305 305 304 303 303 301 300 300 300 301 302 303 302 301 301 300 300 299 299 299 299 298 298 298 298 298 299 299 299 299 299
324 325 326 325 324 325 326 327 326 326 326 325 324 325 324 317 311 312 312 312 310 308 306 306 304 303 302 301 302 301 300 300 300 300 300 300 301 300 300 300 300 299 299 299 299 299 298 299 299 299 299 299 298 298
324 325 325 324 326 329 327 327 327 327 327 327 326 324 321 317 315 312 311 310 309 309 305 305 304 302 300 299 298 298 299 300 300 300 300 299 299 299 299 299 299 299 299 299 299 299 299 299 298 299 298 298 297 297
325 324 325 324 324 327 327 326 327 327 326 326 326 326 324 323 322 316 310 309 310 309 307 305 303 301 300 299 298 297 298 297 296 296 296 296 296 297 298 299 299 299 299 299 299 299 298 298 298 298 298 297 297 297

GFSWCAN_925_thetae_069.txt.gz
Theta_e
322 317 310 306 304 304 308 309 310 309 308 308 309 308 308 308 311 314 318 317 316 320 318 317 316 315 315 315 318 315 315 313 313 315 314 315 314 312 312 313 313 317 319 316 316 316 316 315 317 318 316 313 313 315
322 317 312 306 304 304 307 309 310 309 308 308 309 309 308 308 310 313 318 318 318 319 319 318 317 315 314 314 315 314 314 313 311 313 312 313 312 311 311 312 310 314 311 312 315 318 313 312 312 311 310 310 311 311
321 317 312 306 304 304 307 309 311 310 309 309 309 309 309 308 308 308 313 317 318 319 318 319 319 317 316 314 313 316 314 313 312 310 310 311 310 310 311 311 308 311 307 310 308 311 308 309 307 308 307 308 308 310
321 317 312 306 304 304 307 309 311 310 310 309 309 308 308 308 308 308 311 315 317 318 320 320 318 317 316 315 314 313 313 312 311 312 312 313 312 310 310 309 308 309 307 308 309 308 306 307 305 306 306 307 308 309
321 317 311 305 304 304 306 309 310 311 310 310 310 310 310 310 310 311 315 317 317 318 320 319 317 317 317 316 315 314 314 313 313 313 314 315 311 311 311 310 308 307 307 308 308 307 307 306 305 306 305 306 307 309
320 316 310 304 304 304 305 309 309 312 310 310 310 310 310 310 310 315 321 317 316 316 318 320 320 319 318 317 316 316 315 316 314 315 317 312 311 311 311 310 310 308 307 307 307 306 306 305 305 306 305 304 305 307
319 316 308 304 304 305 306 308 310 310 311 310 310 311 311 310 310 315 319 316 315 314 317 321 323 321 319 318 317 318 318 317 317 318 317 315 313 311 314 311 311 310 308 308 307 307 307 305 305 306 305 303 303 304
318 313 306 304 304 305 306 306 309 310 311 311 310 310 310 310 310 312 316 316 315 315 315 321 323 325 319 321 321 319 319 318 317 318 317 316 315 313 311 310 312 313 312 309 309 308 306 306 306 306 305 304 304 304
317 309 304 304 305 305 306 305 308 310 311 311 310 310 311 311 316 318 316 315 314 315 320 323 324 323 322 326 323 321 319 321 319 320 319 318 310 307 307 313 313 313 311 310 309 308 307 307 308 307 306 307 305 305
312 305 304 304 305 305 306 305 308 310 311 310 311 315 320 320 318 317 313 315 315 316 317 321 319 321 321 324 324 324 321 321 320 320 318 317 314 313 313 314 312 313 313 312 310 310 308 309 308 308 307 307 307 305
307 304 304 305 305 306 306 306 310 310 310 313 319 322 320 318 318 318 321 322 322 323 321 323 322 320 320 326 326 323 323 322 322 321 320 321 321 316 315 313 312 313 312 312 311 311 310 309 308 308 307 307 306 306
304 304 304 305 306 306 307 307 310 311 318 317 316 316 318 321 323 324 326 326 327 327 319 322 322 325 324 323 322 322 323 321 323 318 320 320 319 315 315 313 312 313 311 311 311 311 310 309 307 307 308 308 307 307
304 304 305 306 307 309 310 309 310 312 313 315 318 323 324 326 325 328 326 328 328 325 324 321 322 321 323 321 321 323 323 323 321 321 320 314 314 314 314 313 313 313 312 311 311 310 310 309 307 306 308 308 307 307
304 305 305 306 309 309 309 312 314 312 311 322 327 318 328 328 329 327 328 329 327 324 323 326 325 321 321 320 322 322 321 319 317 318 317 313 312 313 313 313 313 313 311 311 312 310 310 307 308 307 306 306 306 307
305 305 306 308 311 311 312 313 313 312 318 325 326 321 326 326 326 326 324 326 326 324 324 324 325 322 319 318 322 318 319 318 315 315 315 315 314 314 313 312 311 312 310 312 310 309 309 307 307 308 306 306 306 307
306 308 313 311 312 310 309 308 308 315 321 324 325 325 324 326 325 322 321 325 324 324 326 323 323 322 321 321 320 318 317 316 317 315 314 314 315 313 313 313 313 310 311 309 308 308 309 308 308 307 307 306 306 307
308 316 316 312 310 312 310 315 317 321 323 324 326 325 325 326 327 325 321 325 325 321 325 322 323 320 319 320 318 318 317 316 316 314 313 313 313 314 313 312 310 310 312 310 309 307 307 307 306 305 308 307 306 307
314 314 311 310 308 315 316 315 322 323 325 327 328 328 327 328 329 327 325 322 323 323 321 319 321 319 319 317 318 316 314 314 315 315 314 314 314 312 309 311 310 310 310 310 308 307 308 308 308 305 305 305 305 306
307 307 306 306 307 314 324 323 321 324 325 326 327 325 328 328 327 324 322 323 322 322 321 320 317 318 319 317 316 315 313 314 314 315 313 313 312 312 310 310 309 310 310 308 307 307 307 307 307 304 305 304 304 305
312 314 314 316 310 316 324 326 325 329 328 329 328 327 327 327 325 323 322 321 322 319 319 318 318 319 319 318 318 316 316 315 315 314 312 309 311 308 308 308 307 310 308 306 305 306 306 306 305 304 303 304 304 303
318 320 317 316 312 316 323 326 329 328 329 327 323 324 328 324 323 321 322 322 319 319 318 318 317 320 318 318 314 314 313 315 316 314 312 311 310 308 308 307 306 306 308 308 308 306 306 306 305 304 304 304 303 303
322 321 321 317 321 325 326 324 327 329 326 326 322 324 328 325 322 322 322 322 318 320 321 320 319 320 321 319 314 312 314 315 316 313 310 309 311 310 307 306 306 306 305 306 306 306 304 304 303 303 303 303 303 301
318 318 322 325 327 322 324 325 330 331 330 329 328 328 327 328 324 323 323 321 322 321 320 320 319 318 320 315 312 313 315 315 315 314 312 309 308 307 306 305 304 304 305 305 304 303 302 301 303 304 303 303 303 303
319 322 327 328 326 324 327 331 329 330 324 322 325 329 326 329 324 325 320 321 320 319 321 322 319 321 320 317 318 316 311 313 314 312 310 310 309 308 306 305 304 304 303 304 302 302 303 303 303 303 303 303 303 302
321 320 321 313 326 330 327 328 325 323 329 328 327 329 328 328 324 321 320 319 319 318 318 316 315 314 312 311 311 309 307 307 308 310 306 308 307 306 306 305 304 303 302 302 303 303 302 302 302 302 303 301 302 303
317 324 320 324 323 325 327 330 329 323 325 330 325 323 325 328 323 321 322 321 318 316 314 313 312 311 309 308 308 307 306 305 306 306 305 304 304 304 305 304 302 302 301 302 302 302 302 302 301 300 302 302 301 302
319 322 325 324 323 325 330 329 328 329 329 329 327 325 328 324 323 324 323 318 315 310 308 307 307 307 307 306 305 306 305 304 304 305 304 303 301 300 300 301 300 300 301 301 302 302 302 302 302 302 302 302 302 302
322 323 325 325 326 325 327 329 330 325 327 328 325 325 326 326 324 325 319 312 309 308 307 306 306 305 304 303 303 303 305 305 305 304 303 303 301 300 300 299 299 297 299 300 301 301 301 301 302 301 301 301 301 301
322 321 323 327 327 328 328 329 326 325 324 325 327 326 326 326 322 319 315 312 309 309 309 308 307 306 304 303 303 303 303 304 306 307 307 304 303 302 301 301 300 299 298 296 296 298 298 299 300 301 301 301 301 300
320 321 324 327 328 330 328 326 326 325 326 321 325 324 323 322 319 317 315 314 313 311 308 307 306 306 306 305 304 303 303 304 304 304 305 304 303 302 301 301 301 301 300 299 299 299 299 299 301 301 300 300 300 300
321 323 326 327 327 327 327 324 322 323 325 324 323 326 324 320 318 317 315 315 313 309 308 307 305 304 304 305 305 304 303 302 302 302 303 303 302 302 302 301 301 301 301 300 300 300 300 300 301 300 300 299 298 299
324 328 328 328 329 324 325 324 325 327 330 324 321 324 320 320 321 319 316 316 314 311 308 307 305 303 302 302 302 303 302 302 302 302 302 302 302 301 301 301 301 301 301 301 301 300 300 300 300 299 299 299 299 299
326 326 326 325 329 327 325 325 326 327 327 328 327 327 325 325 324 320 315 315 314 313 309 305 304 303 302 302 302 302 301 300 300 300 300 300 300 300 300 301 301 301 301 301 300 300 300 300 300 300 299 299 299 298

GFSWCAN_925_thetae_072.txt.gz
Theta_e
324 323 319 315 307 304 305 308 310 310 310 309 309 308 308 309 315 317 318 317 315 312 313 315 315 312 311 310 310 310 308 307 306 307 306 302 306 311 310 311 310 311 312 313 310 310 314 310 313 315 312 309 309 310
324 323 319 315 307 304 305 308 310 310 310 309 308 309 309 308 310 309 317 317 317 315 314 317 318 315 313 312 309 308 307 308 306 305 305 300 303 304 303 310 307 312 308 305 311 317 309 309 310 308 306 305 306 307
324 323 319 315 308 304 304 308 309 311 310 310 309 309 309 308 308 308 310 312 316 311 311 313 315 317 315 313 314 310 308 306 307 304 304 303 305 308 308 305 308 308 306 307 305 307 307 307 306 305 306 305 305 305
323 322 319 315 308 304 304 306 309 311 310 310 310 309 309 309 309 310 311 312 315 314 314 313 317 317 317 314 313 313 310 310 307 307 305 305 304 304 304 304 307 303 305 305 306 305 306 306 306 305 306 304 305 306
323 322 318 314 306 304 305 306 309 310 311 310 310 310 310 310 311 314 316 317 316 315 314 312 315 316 316 315 313 312 311 307 307 308 313 312 305 305 306 308 308 307 305 305 303 302 307 306 305 305 306 305 305 304
322 322 317 313 305 304 305 306 308 309 311 310 310 311 310 310 311 316 314 314 315 315 312 314 314 317 316 316 312 310 310 308 308 311 314 311 305 304 308 308 304 304 303 302 304 303 304 304 305 305 306 306 305 304
322 321 317 310 304 304 305 306 307 309 309 311 310 310 310 310 311 313 314 316 315 315 311 315 314 317 318 316 314 313 313 313 310 313 314 308 307 306 301 306 305 305 305 304 304 305 305 305 305 305 305 305 305 304
321 319 316 307 304 305 305 306 306 307 310 310 310 310 310 310 310 311 315 314 315 314 313 316 317 319 317 315 317 315 315 314 314 315 311 312 308 306 311 306 305 307 306 306 306 306 305 305 305 306 306 306 306 305
320 317 310 304 304 305 305 305 305 306 309 310 310 309 310 311 312 316 316 316 314 314 316 318 320 320 316 319 318 316 317 319 317 318 317 313 308 309 308 305 307 310 309 309 307 307 308 307 305 305 307 307 307 306
319 313 305 304 304 305 305 305 306 308 310 310 310 313 314 317 317 315 313 313 313 313 311 315 315 320 318 318 321 320 319 320 320 319 317 315 313 308 305 305 308 309 308 307 308 308 307 306 306 306 306 306 306 306
317 308 304 304 305 305 305 306 306 310 310 313 313 316 319 316 316 317 317 317 318 318 314 315 319 321 316 318 317 319 318 319 320 320 319 317 318 316 312 311 307 310 310 309 308 307 306 306 306 305 305 306 306 305
308 304 304 304 305 306 306 307 307 310 316 315 313 314 315 316 318 321 324 324 324 324 318 319 318 317 318 319 320 320 320 320 320 317 313 312 313 313 313 311 312 310 310 310 310 309 309 309 308 305 305 306 306 306
303 303 304 305 305 306 309 310 308 310 312 313 314 318 321 319 322 327 327 322 325 323 321 320 320 317 318 317 319 319 321 321 315 312 316 314 313 312 311 311 311 311 311 310 311 310 310 309 308 306 305 307 307 306
304 304 305 306 306 309 309 309 311 313 311 315 322 317 324 324 327 325 324 323 322 321 319 319 320 316 315 314 317 319 318 315 315 313 315 308 308 308 308 309 310 309 310 310 310 310 309 308 306 307 307 306 306 306
305 305 306 308 310 311 312 313 313 312 314 319 322 318 324 324 322 321 318 319 319 317 319 317 317 314 315 317 317 314 316 314 310 308 311 308 307 306 307 307 306 307 307 308 309 309 308 308 307 306 306 305 306 307
306 309 312 312 311 310 310 309 308 311 318 320 320 322 322 325 323 319 317 316 317 319 317 315 318 317 317 315 316 316 313 310 311 308 308 310 308 307 307 306 307 307 307 308 308 307 307 307 307 306 306 306 306 306
309 316 314 311 309 310 311 311 312 315 320 323 322 322 325 325 323 320 315 318 317 314 317 315 318 317 312 315 315 312 311 309 308 308 310 308 308 307 306 307 306 309 307 307 307 307 306 307 306 305 306 306 306 306
315 313 311 310 307 309 314 314 318 323 325 321 323 325 324 324 322 321 319 315 315 314 313 316 314 314 315 315 313 310 309 308 308 308 308 308 309 309 307 306 308 308 307 308 307 307 306 306 306 303 303 306 306 306
306 306 306 306 306 313 318 319 317 321 321 321 323 324 323 323 319 316 315 316 317 314 312 313 313 313 312 310 310 310 308 307 308 308 306 310 308 309 307 307 309 307 306 305 306 305 306 306 303 303 305 305 304 305
311 315 314 314 309 312 319 321 322 323 325 323 322 323 324 321 317 315 314 313 313 312 312 314 314 312 311 310 310 310 309 308 306 306 305 304 308 308 308 305 308 306 305 305 305 305 305 305 304 303 304 304 304 304
310 319 317 316 312 311 316 320 325 324 323 320 320 320 320 320 318 316 316 314 311 312 313 312 313 312 313 313 312 312 311 310 308 307 306 306 307 307 305 307 307 306 306 305 304 304 303 303 303 303 303 303 302 305
316 319 319 315 317 321 318 321 318 323 323 321 322 320 322 322 319 317 315 315 312 313 313 311 310 312 313 311 309 312 314 315 312 311 310 309 305 302 303 304 304 304 304 304 304 303 303 303 303 303 303 303 304 305
318 318 319 322 322 317 317 324 325 323 324 320 322 325 325 322 318 317 319 314 314 314 314 313 314 316 314 314 311 312 313 314 311 311 310 306 305 304 303 304 304 304 304 304 303 302 302 303 303 303 303 303 303 303
317 319 324 325 323 317 323 327 324 323 323 322 323 323 325 321 318 320 319 315 313 314 313 313 316 314 314 312 310 312 307 314 313 311 309 306 304 305 304 303 303 303 303 302 302 302 303 303 302 301 302 303 303 303
317 316 317 311 319 326 326 326 324 323 327 326 325 324 325 321 324 323 316 313 314 313 312 308 308 308 309 309 305 304 305 309 306 305 306 306 305 305 304 302 302 303 303 302 303 301 302 301 300 301 301 302 302 302
312 319 318 323 322 323 327 328 327 323 325 326 325 321 321 324 323 320 316 313 309 307 305 304 303 302 302 304 301 302 305 304 303 301 302 305 305 304 300 299 299 301 302 302 302 301 301 300 301 302 301 301 302 302
316 322 321 319 319 325 326 325 326 325 328 329 325 323 325 325 323 319 313 308 306 307 307 306 305 304 302 305 305 304 304 304 303 301 300 300 299 300 300 300 300 301 302 302 301 301 301 301 301 301 301 301 301 301
321 321 323 322 324 322 326 327 327 325 325 323 326 325 326 325 322 318 311 309 307 306 305 304 304 304 303 303 305 305 304 303 301 301 301 300 299 299 298 298 299 301 301 301 302 301 301 301 301 301 301 301 300 300
321 321 320 322 323 326 326 327 326 323 320 324 326 326 323 321 317 310 309 308 307 306 305 305 304 303 303 303 303 304 305 303 302 299 299 297 298 299 299 299 298 297 296 299 298 298 300 300 301 301 300 300 300 299
318 316 318 321 327 329 327 322 324 319 320 320 320 320 318 317 315 312 310 309 308 307 307 306 304 303 302 302 302 303 303 303 304 302 299 298 300 301 300 300 299 298 297 297 298 299 300 301 300 300 300 300 299 299
315 317 319 324 327 326 325 323 321 321 323 323 322 324 322 317 317 314 314 314 310 307 306 304 305 304 303 302 302 302 301 302 303 303 302 301 301 301 301 301 300 299 300 299 299 299 300 300 300 300 299 298 298 299
318 319 321 329 326 323 322 323 324 325 324 324 323 322 321 318 317 313 316 312 308 307 307 303 303 303 303 303 303 302 302 302 302 302 302 302 301 301 301 301 301 300 300 300 300 300 300 300 299 299 299 298 298 298
321 322 325 328 328 326 323 323 325 326 327 324 324 324 325 324 323 317 316 315 313 308 304 303 302 302 302 303 302 302 302 301 301 301 301 301 301 301 301 301 301 301 301 300 300 300 300 300 299 299 299 298 298 298

GFSWCAN_925_thetae_075.txt.gz
Theta_e
324 324 323 322 315 307 304 306 309 311 310 309 309 309 308 309 314 316 317 316 315 310 311 314 314 311 309 308 309 308 306 304 303 304 301 300 300 302 305 308 309 307 310 308 311 309 311 309 311 314 309 307 307 307
322 324 323 322 316 308 304 305 309 311 310 310 309 309 309 308 309 309 317 314 316 313 312 316 317 317 313 311 307 304 305 305 303 301 299 297 308 305 299 301 306 306 306 303 308 308 310 309 309 306 305 304 304 304
321 323 323 322 317 308 304 305 309 311 311 310 310 309 308 308 308 309 310 313 315 308 310 312 313 316 314 313 313 308 305 304 304 301 301 300 300 299 301 301 304 305 306 305 305 303 305 305 304 304 304 304 305 304
321 323 323 322 317 308 304 305 308 309 311 311 310 310 311 310 310 311 312 313 315 310 312 312 315 315 315 313 313 313 308 306 304 302 302 302 300 301 297 300 299 301 307 302 301 302 303 305 305 305 304 305 305 305
320 322 323 321 316 307 304 305 308 309 310 311 311 311 311 311 311 312 315 316 315 314 312 311 312 315 315 314 312 311 308 306 305 307 308 306 302 303 304 306 303 304 304 302 303 300 302 302 303 303 305 306 306 305
322 323 322 319 314 307 304 306 307 309 309 310 311 311 311 311 311 314 313 314 314 315 310 313 311 312 313 311 310 308 308 307 308 308 308 308 303 303 305 307 302 302 301 300 302 300 302 302 302 303 305 305 305 306
321 321 321 318 311 305 304 306 306 307 308 309 311 310 310 311 311 311 313 315 314 314 310 312 311 311 315 309 309 308 309 310 311 312 310 308 308 304 301 301 304 302 303 302 301 302 304 303 303 303 305 305 306 306
317 318 320 317 307 304 305 305 305 306 307 309 310 310 310 310 310 312 314 314 314 313 312 315 313 315 315 313 315 313 314 313 313 315 311 310 308 308 309 306 306 305 304 303 303 303 302 303 303 303 305 306 307 305
316 316 318 312 304 304 305 305 305 306 307 309 310 310 311 311 311 315 315 315 313 314 314 316 318 319 314 317 315 317 317 319 316 317 316 313 307 311 310 309 307 306 306 307 306 304 304 304 305 305 303 304 305 306
316 318 315 306 304 304 305 305 305 307 309 310 311 314 315 315 316 314 313 313 312 312 311 314 311 317 317 318 320 319 318 318 314 317 315 315 312 310 309 305 304 306 307 307 308 308 306 306 305 305 304 303 305 306
316 316 308 304 304 304 305 305 306 308 310 313 313 315 316 314 314 315 315 316 318 316 310 310 313 316 315 316 316 317 315 315 319 318 317 312 312 313 311 312 310 309 308 307 307 307 306 306 306 305 304 304 305 306
316 308 304 304 304 305 305 307 308 309 314 315 314 313 314 314 316 319 319 320 321 322 318 319 315 314 314 315 320 315 318 318 314 315 313 313 312 312 312 311 311 310 310 309 309 309 309 308 307 306 305 304 305 305
305 303 304 304 305 305 306 308 309 309 312 312 313 316 319 316 321 327 327 320 320 321 319 316 317 314 312 312 315 316 319 319 315 315 315 311 311 311 308 308 309 309 310 311 310 310 310 309 309 307 305 304 306 306
303 304 305 305 306 308 308 309 309 310 310 313 319 321 322 321 325 323 321 318 317 319 317 315 316 313 311 313 315 317 314 311 311 311 311 306 305 307 306 306 307 308 307 309 308 309 309 308 306 306 306 306 306 306
304 305 306 309 310 311 312 313 313 312 314 316 318 317 321 321 320 319 317 315 315 315 315 315 313 311 312 314 313 311 313 311 307 305 308 306 304 304 304 304 304 305 306 307 308 308 307 307 307 307 307 306 305 305
306 311 310 310 310 309 311 309 308 311 315 316 317 320 320 323 323 319 316 315 312 314 312 311 314 313 314 312 314 315 311 306 308 306 305 305 306 305 305 305 304 306 307 307 308 307 306 306 306 306 306 305 305 306
314 315 312 310 308 308 311 309 309 312 317 321 320 318 323 323 322 319 314 314 313 311 313 312 315 316 310 313 313 310 309 307 306 306 304 305 306 307 304 305 304 306 306 307 306 306 305 306 306 303 303 304 305 305
314 312 311 309 306 306 312 313 316 321 323 321 322 322 320 319 319 319 316 312 312 311 310 314 310 312 313 314 310 308 306 305 304 305 306 305 307 310 309 305 305 306 307 306 305 306 306 305 304 302 302 304 305 305
305 305 306 307 306 310 314 317 314 317 319 317 320 322 322 322 318 314 312 312 312 310 310 309 312 311 310 307 308 307 305 304 306 305 304 306 308 309 309 306 306 306 306 304 304 304 304 302 303 303 303 304 304 305
310 310 314 313 309 309 315 317 318 318 322 321 319 320 320 320 316 312 310 310 309 308 310 312 311 309 308 307 306 307 307 305 304 305 304 304 306 305 306 305 306 305 303 303 304 304 304 303 303 303 304 304 304 304
309 318 317 313 310 310 313 316 320 320 318 319 317 317 318 317 316 313 313 309 308 309 311 309 309 308 309 310 310 310 308 307 304 304 305 303 303 302 304 305 304 304 304 303 303 304 304 302 303 302 302 302 302 304
310 317 317 313 314 315 312 315 315 319 320 320 320 317 319 320 318 315 311 310 309 309 308 308 307 309 310 309 307 310 312 312 309 308 307 307 301 302 302 303 303 302 303 304 303 303 303 302 303 303 302 303 304 304
317 317 317 318 319 314 315 320 323 319 324 319 318 321 322 320 316 313 315 312 310 309 310 310 310 312 313 312 309 310 311 311 309 308 304 303 303 303 303 303 304 303 302 302 302 302 302 302 302 302 302 303 303 303
316 316 320 322 320 316 318 325 323 322 319 319 320 321 321 320 315 317 320 313 311 311 310 310 312 311 309 309 308 304 304 309 309 308 305 303 301 302 302 303 303 302 302 302 302 302 302 301 302 302 302 302 303 301
314 314 314 310 317 324 325 324 322 322 323 320 322 322 321 317 319 320 317 310 311 312 310 307 308 309 308 306 300 302 306 309 306 303 304 304 302 300 300 301 302 302 302 302 301 301 300 300 301 302 302 302 301 302
311 317 316 322 320 320 322 326 323 321 322 324 322 320 318 321 322 320 314 309 308 307 303 303 302 303 301 301 299 302 306 307 306 304 304 304 302 300 298 298 299 301 301 301 300 300 300 301 301 301 301 301 301 301
313 319 317 315 316 322 323 322 320 323 326 326 323 321 322 324 322 317 309 305 303 305 306 306 309 304 301 302 302 305 305 305 305 304 304 304 303 300 300 300 300 301 301 301 301 300 300 301 301 301 301 301 301 301
318 318 322 318 319 319 323 323 327 327 324 320 322 325 324 323 321 315 307 307 306 306 306 305 305 305 305 304 303 303 302 301 299 299 299 300 300 300 300 300 301 301 301 301 301 301 301 301 301 300 300 300 300 300
317 317 317 319 319 322 323 324 324 320 316 319 321 321 321 318 316 307 308 306 305 304 302 301 301 302 303 304 303 303 301 300 298 296 296 295 296 297 298 299 299 300 300 301 300 300 301 301 300 300 300 299 299 299
314 314 315 316 319 324 325 322 321 317 316 318 318 319 317 314 314 310 308 305 304 303 303 303 302 302 301 302 301 300 300 300 301 300 297 295 298 299 298 298 298 296 298 298 299 299 300 300 300 300 300 299 299 298
311 312 314 314 320 323 323 322 319 318 320 320 319 321 319 315 313 309 308 307 307 305 304 302 301 301 301 301 301 300 299 301 302 301 302 301 300 300 300 299 299 298 297 298 300 300 300 300 300 300 298 298 298 298
312 314 315 320 325 322 320 322 320 320 321 321 320 319 319 316 316 312 313 310 308 306 305 305 302 301 302 302 302 302 302 302 303 302 301 301 300 301 301 300 300 299 299 299 299 299 300 300 299 298 298 298 298 298
316 320 323 323 323 322 322 321 323 324 323 323 321 321 320 319 321 317 315 311 309 307 306 305 305 305 303 302 302 302 302 302 302 301 301 301 301 301 300 300 300 300 300 299 299 299 299 299 299 298 298 298 298 297

GFSWCAN_925_thetae_078.txt.gz
Theta_e
319 320 321 323 322 316 306 304 308 310 310 310 310 309 308 308 312 313 315 315 315 309 310 311 309 309 308 307 308 307 306 303 302 303 302 300 300 302 303 307 307 305 304 310 309 308 311 309 310 314 308 306 305 305
319 321 322 323 322 317 307 304 307 310 310 311 311 309 308 308 308 308 316 311 315 312 311 314 316 315 312 310 305 303 305 303 301 300 299 297 301 301 297 302 305 305 303 304 305 307 307 307 307 306 304 303 303 303
318 319 321 322 321 317 307 304 307 309 310 311 311 311 310 310 311 311 310 311 314 308 309 310 311 314 316 313 312 307 303 302 301 299 299 297 299 297 302 300 302 303 301 300 302 302 303 304 303 304 303 303 303 304
317 318 319 318 321 317 307 305 307 309 310 311 311 311 311 311 311 311 314 313 314 308 311 309 313 314 314 313 312 311 307 304 301 300 300 300 299 298 295 298 298 300 303 302 300 300 301 302 303 303 303 304 306 305
317 318 317 318 320 315 305 305 307 308 309 311 311 311 311 311 311 312 315 315 314 313 311 310 311 313 314 313 311 310 307 304 305 306 304 305 300 301 300 301 299 301 302 301 302 300 302 301 303 302 303 304 304 306
317 317 318 317 319 314 305 305 306 307 309 309 310 310 310 311 311 313 311 313 314 314 309 312 309 310 311 309 309 306 307 307 308 309 308 306 302 302 302 303 301 300 300 299 302 300 300 302 301 302 303 303 305 305
317 317 317 316 318 311 304 305 306 306 307 308 309 310 310 310 310 311 311 314 314 313 309 311 310 309 311 308 307 306 308 309 310 311 312 309 306 304 301 301 303 301 302 300 300 302 303 302 303 302 302 304 305 306
317 317 315 315 316 307 304 305 305 306 306 306 309 310 310 310 310 312 314 313 313 313 311 314 312 313 314 311 310 309 312 312 313 314 312 311 308 308 308 308 305 304 302 303 302 302 301 302 302 302 303 303 304 305
317 316 314 315 311 304 304 305 305 306 306 308 310 310 311 312 312 315 314 315 312 314 314 315 314 316 313 315 314 316 316 318 315 316 315 311 307 308 310 310 309 307 307 307 305 303 302 303 303 303 303 303 303 303
315 314 314 315 306 304 304 305 305 306 309 310 311 314 314 316 315 313 313 312 312 311 311 315 308 315 314 315 317 318 318 316 313 312 312 309 307 311 310 307 308 308 305 306 308 308 305 305 305 305 304 303 303 303
313 313 313 307 303 304 304 305 306 307 310 313 312 312 315 314 314 314 314 315 317 315 308 311 309 313 312 316 317 313 308 308 313 313 312 312 314 312 312 311 309 307 309 309 307 307 305 305 305 305 304 304 304 304
313 313 306 303 304 304 305 305 307 308 313 314 313 313 313 313 314 319 317 320 321 318 314 315 314 313 312 311 318 312 318 312 315 315 314 311 311 312 310 310 310 310 310 309 308 308 307 308 307 305 306 305 305 304
310 305 303 304 305 305 305 306 307 308 312 311 312 316 316 315 319 325 325 319 317 316 317 314 316 313 310 309 314 315 319 316 313 313 313 307 306 308 307 306 307 307 308 308 309 309 309 309 309 308 307 306 304 304
304 303 304 305 305 307 308 308 308 310 310 311 318 322 323 319 321 321 320 317 315 316 315 313 313 313 308 311 311 315 311 309 309 304 308 305 304 306 305 305 306 306 306 306 307 308 308 308 307 306 305 305 305 304
304 304 306 310 311 311 310 310 310 310 312 314 316 316 320 319 318 318 317 315 313 313 313 312 311 310 310 312 310 310 311 309 306 305 304 305 303 303 303 304 305 304 304 306 308 307 307 306 306 306 306 306 305 304
305 309 309 310 309 309 310 309 309 311 313 314 315 317 316 320 321 319 316 315 310 312 308 308 312 311 313 310 313 314 310 305 306 304 304 303 304 304 303 304 304 303 304 306 306 306 306 304 304 305 304 305 304 304
314 313 311 309 307 307 310 308 308 310 313 319 319 315 317 319 320 318 315 313 311 310 311 310 312 314 308 311 311 309 308 305 304 304 303 302 303 304 305 306 307 305 304 306 305 305 305 305 305 303 303 304 304 305
314 313 310 309 306 305 311 313 314 318 321 317 319 318 318 319 317 318 316 311 311 309 309 313 308 311 312 313 309 307 305 303 302 303 303 303 304 306 307 307 308 305 305 305 304 305 305 305 304 303 304 304 303 304
306 306 306 305 305 307 312 315 312 315 316 315 315 318 319 319 315 314 310 310 308 307 308 307 310 310 309 306 307 306 304 303 305 305 303 304 306 307 306 305 304 305 304 302 302 302 302 301 301 301 301 303 304 302
307 307 311 313 311 307 312 314 315 315 319 318 316 317 318 316 314 310 308 309 308 306 309 311 310 307 307 306 303 305 305 304 303 305 304 302 305 304 303 303 303 303 302 303 303 304 303 303 302 301 302 303 303 304
307 314 314 311 308 309 311 313 317 317 317 318 314 315 316 314 315 312 312 306 307 308 309 307 307 306 306 307 308 308 306 305 304 304 305 304 301 302 303 303 303 303 303 303 303 303 303 302 302 302 302 301 302 303
307 315 316 313 312 312 310 312 311 314 317 317 317 315 316 318 317 314 309 310 308 308 306 307 306 306 307 307 306 308 310 309 307 306 306 305 300 300 301 302 303 301 302 303 302 302 303 302 302 302 302 303 302 303
313 316 316 315 318 313 313 316 319 318 322 318 315 319 319 319 315 310 313 311 309 305 307 307 307 309 309 311 308 308 310 310 307 305 302 302 301 302 302 302 302 301 300 301 301 301 301 302 302 302 302 303 303 303
313 314 318 318 318 315 316 321 320 320 317 317 318 321 319 318 314 315 317 313 310 308 308 309 309 308 307 307 305 302 302 307 308 306 302 302 300 301 301 301 301 301 301 301 301 301 301 300 301 302 302 302 302 302
311 311 314 309 315 322 324 322 321 321 321 318 321 320 319 315 317 318 318 313 309 310 307 306 308 308 308 305 300 300 304 309 306 302 302 302 301 300 300 300 301 301 301 300 300 299 300 300 300 302 302 302 301 301
309 313 315 320 319 320 320 324 323 320 320 322 322 318 316 319 322 321 315 309 309 309 306 306 305 306 302 300 299 301 307 307 306 303 303 302 301 300 298 298 299 300 301 301 300 300 300 301 301 301 300 300 300 299
310 315 314 312 315 317 320 320 318 320 322 322 321 320 320 323 322 317 310 305 305 306 309 309 309 307 302 301 301 304 305 305 304 304 305 304 301 300 300 299 300 301 301 300 300 300 300 300 300 300 300 300 300 299
315 316 319 316 317 317 321 320 322 323 322 319 320 322 324 322 320 314 307 306 306 306 306 307 307 308 304 303 304 304 303 303 302 301 301 302 300 300 300 300 300 301 301 300 300 300 301 300 300 300 300 300 299 299
313 315 316 318 316 316 320 322 322 319 316 318 321 320 319 315 315 309 307 305 305 305 303 302 301 303 302 302 303 303 301 300 298 297 297 296 296 298 298 300 300 300 301 300 300 300 301 300 300 299 299 298 298 299
310 311 315 314 315 316 318 320 321 316 314 316 316 317 316 314 313 310 305 303 302 302 303 302 302 302 300 301 300 300 299 299 300 299 297 296 297 299 298 298 297 297 299 299 299 300 300 300 300 300 299 299 298 297
309 311 312 310 312 316 320 319 317 317 317 318 317 320 319 316 311 308 305 304 303 302 302 300 300 301 301 301 300 299 298 299 299 300 301 302 300 300 299 299 298 297 297 298 299 299 299 299 299 299 298 297 298 297
311 312 313 316 319 319 320 322 321 320 319 319 318 317 318 316 315 310 309 305 303 302 302 301 300 300 302 302 302 302 303 303 301 300 300 301 301 300 300 300 299 299 298 297 298 298 298 299 299 299 298 298 297 297
312 315 317 321 321 321 319 320 323 323 322 321 319 320 318 317 317 314 312 312 307 305 305 305 304 303 302 302 302 302 302 302 302 302 302 301 301 300 300 300 300 300 299 299 299 299 298 298 299 298 298 298 297 297

GFSWCAN_925_thetae_081.txt.gz
Theta_e
319 318 319 320 322 322 317 309 305 308 310 310 311 309 308 308 310 311 314 314 316 317 316 312 312 313 312 313 317 312 312 310 310 315 315 311 315 312 313 312 313 316 318 317 316 317 316 312 313 316 315 311 310 309
319 318 318 319 321 322 318 310 305 308 310 311 311 309 308 309 309 308 314 311 312 316 316 313 314 312 313 313 313 309 312 310 309 313 310 310 313 310 312 316 310 314 313 317 316 316 313 312 311 310 309 309 308 308
318 318 317 317 319 321 319 311 305 307 309 310 311 311 310 311 311 312 312 312 314 316 316 315 316 314 315 314 312 314 310 309 308 307 309 310 314 311 313 314 312 310 308 313 311 310 312 311 308 307 308 307 307 306
316 317 316 317 317 319 319 310 304 306 308 310 311 311 311 311 312 312 314 314 314 313 319 315 312 315 313 313 310 311 309 305 306 307 309 310 313 307 311 309 311 311 310 311 310 307 307 308 307 307 307 306 306 306
317 317 316 317 316 319 318 308 304 306 307 308 310 310 311 311 311 313 315 315 314 316 319 319 313 312 311 311 310 309 309 309 310 312 312 314 308 309 308 308 311 308 311 313 318 312 310 310 308 307 307 307 307 307
317 316 317 317 316 317 314 307 304 306 306 307 309 310 310 310 311 313 318 313 314 314 317 321 313 313 312 309 309 309 310 310 310 311 313 309 308 312 314 313 310 309 308 309 310 307 308 308 308 307 308 307 306 307
317 317 316 317 316 317 314 304 304 305 305 306 307 308 310 310 310 312 317 314 313 313 317 319 317 313 311 310 310 310 310 312 312 313 314 313 309 308 311 313 312 309 308 307 306 306 307 307 308 306 306 306 307 307
314 316 316 316 315 315 308 303 305 305 305 306 307 309 310 310 311 314 314 312 313 314 314 317 317 318 315 317 317 312 313 315 315 316 313 312 308 309 308 310 310 309 307 306 305 305 308 308 307 307 306 307 308 309
313 316 316 314 314 312 305 304 305 305 305 308 309 310 312 312 315 314 314 314 312 315 319 317 319 320 316 320 318 319 317 318 314 316 314 311 305 308 309 311 311 309 307 309 306 307 306 306 307 309 309 309 310 310
313 314 314 314 313 307 305 304 305 305 308 309 312 314 320 315 314 313 313 315 315 315 315 317 314 320 318 320 321 320 311 310 313 312 310 309 311 309 310 309 308 311 309 309 311 311 309 309 310 310 310 309 309 309
313 313 313 314 309 305 304 305 305 306 309 313 315 318 314 313 314 316 318 319 318 319 315 315 316 320 317 322 321 314 314 312 315 315 315 314 314 314 312 310 310 310 311 311 310 311 311 310 311 310 310 309 309 309
312 313 312 307 304 303 304 304 305 307 312 314 314 312 313 316 318 321 322 321 321 323 318 320 321 316 318 316 318 315 318 315 315 316 316 315 314 314 313 312 310 310 310 311 311 311 311 311 310 311 311 310 310 309
312 308 304 303 303 304 304 304 305 307 313 311 313 318 319 319 318 325 326 325 324 321 322 321 323 319 317 317 317 318 320 316 315 316 316 315 313 313 313 312 311 310 310 311 311 312 312 312 311 311 310 310 309 307
305 304 304 304 304 305 305 305 306 310 310 315 321 321 323 324 326 327 327 325 322 321 321 321 321 321 316 318 318 320 316 315 313 315 313 313 313 313 313 312 311 312 311 311 311 311 312 311 311 310 310 309 307 307
305 305 307 309 310 311 309 307 308 310 312 317 320 318 324 324 323 324 322 321 320 319 320 320 318 318 318 318 316 315 314 314 313 312 313 314 313 312 311 311 311 312 311 311 311 311 310 310 309 309 309 309 307 307
308 309 308 309 308 310 310 311 309 310 313 316 317 319 321 324 326 324 323 323 318 320 315 316 318 317 318 316 316 316 314 313 312 312 312 312 312 312 312 311 311 310 310 308 308 309 309 309 308 308 307 307 306 306
312 311 310 308 306 306 310 308 308 311 313 318 321 320 321 324 326 324 321 320 316 317 318 319 316 316 314 316 315 315 315 312 312 312 312 312 312 312 310 309 309 310 310 309 309 309 308 308 307 308 307 307 306 306
312 311 309 309 306 305 311 311 314 318 321 322 321 323 323 324 324 322 322 317 318 317 316 318 315 315 314 313 313 315 313 312 311 311 312 311 311 311 309 311 310 308 309 308 307 307 307 307 307 308 307 306 305 305
307 306 308 308 306 306 313 315 313 318 319 321 322 321 324 325 323 320 317 315 314 313 315 315 315 315 316 315 314 312 313 312 313 313 311 310 310 310 308 308 307 308 306 306 306 306 305 304 304 303 303 306 307 305
307 307 310 307 307 307 312 316 315 318 323 324 323 324 325 324 321 317 317 315 315 315 315 316 314 315 316 315 315 314 314 313 312 313 312 310 308 306 307 307 307 306 306 306 306 306 306 304 303 302 302 306 305 305
308 313 312 311 308 308 314 318 322 323 324 325 321 322 324 320 323 321 318 313 315 316 316 315 315 315 312 313 311 312 312 311 314 311 313 310 305 306 307 306 306 306 307 305 305 305 304 302 302 301 301 303 304 305
307 314 314 312 313 312 313 313 315 317 323 324 323 322 325 324 324 322 315 317 317 317 314 315 315 314 314 313 312 311 313 311 310 309 306 305 307 307 306 305 304 304 304 304 305 305 305 303 303 303 303 303 303 304
310 315 315 314 318 315 315 317 323 323 326 325 321 323 325 325 322 315 321 319 319 315 312 313 312 312 314 313 310 310 311 312 313 310 307 306 305 304 304 303 303 303 303 303 303 303 303 302 303 304 303 302 303 303
312 315 320 320 317 317 320 324 324 325 323 323 323 324 323 324 320 321 322 320 319 314 313 313 312 313 312 311 312 310 308 309 311 308 305 305 305 304 303 302 302 302 302 302 302 303 302 302 303 304 304 304 304 303
311 314 315 310 318 325 327 326 326 326 327 323 324 325 324 321 324 322 322 322 316 316 315 313 314 315 316 314 308 304 304 310 310 307 304 305 303 302 302 302 302 301 302 302 302 302 302 302 303 304 304 303 304 303
309 313 317 323 322 324 325 327 327 326 324 326 326 325 322 325 326 326 324 318 316 316 314 315 315 314 311 308 306 307 309 308 307 307 305 304 304 303 302 302 302 302 301 301 302 302 303 303 303 302 302 302 300 302
311 315 317 316 319 320 324 325 324 324 325 326 325 326 324 325 325 324 319 314 314 313 313 312 312 312 309 303 302 305 306 305 305 305 304 303 301 301 300 301 301 301 301 301 301 302 302 302 302 302 302 302 301 300
318 318 320 320 321 322 324 324 325 326 327 326 325 326 326 325 324 321 316 309 307 308 309 308 308 309 306 303 303 304 303 302 302 303 302 300 299 299 300 300 300 301 301 301 301 301 302 301 301 301 301 301 301 300
315 317 319 320 319 319 322 324 326 327 325 325 327 327 324 322 321 319 310 305 304 305 305 305 303 304 302 302 303 302 303 301 301 303 304 302 301 299 299 300 300 301 301 301 300 300 301 301 301 301 300 299 299 300
314 314 319 319 319 320 324 325 326 322 321 322 322 323 323 321 318 314 306 303 305 307 306 306 303 304 303 302 302 301 300 300 301 302 303 302 301 300 299 299 299 299 300 300 300 300 300 300 300 300 300 300 299 299
313 314 315 314 315 318 322 324 322 320 321 323 323 324 326 321 313 308 305 305 305 304 303 302 302 303 302 303 303 303 302 299 299 300 301 301 300 299 299 299 298 298 299 299 299 300 300 300 301 300 300 299 299 299
316 317 317 318 320 323 324 325 325 325 324 325 324 323 323 321 320 314 306 304 304 304 304 303 302 302 302 302 302 302 302 302 301 300 300 301 300 300 299 299 299 298 298 298 299 299 299 299 300 300 299 299 299 299
317 316 316 316 321 326 325 324 326 327 327 327 325 324 323 323 323 319 312 308 304 304 304 304 303 303 303 304 302 302 302 302 302 302 301 301 301 300 300 300 299 299 299 299 299 299 300 300 300 300 300 299 299 299

GFSWCAN_925_thetae_084.txt.gz
Theta_e
319 319 319 318 318 320 322 319 309 304 308 310 310 309 308 308 308 312 316 315 319 318 319 316 316 317 316 316 317 317 316 314 314 319 320 321 322 318 320 318 319 320 321 320 320 320 321 317 316 318 320 317 316 315
317 318 319 318 317 318 321 320 312 304 307 310 311 311 311 311 311 309 316 313 312 317 320 317 317 316 316 316 317 316 317 314 313 318 318 318 320 319 320 322 316 319 318 321 319 321 319 316 317 317 314 313 314 312
313 314 316 317 316 317 320 320 312 304 307 310 311 311 311 312 312 314 316 316 318 320 320 318 319 318 317 316 316 318 316 316 314 314 314 316 320 318 322 320 318 314 314 316 317 316 317 314 311 311 311 312 311 310
313 314 315 316 316 318 318 318 311 304 307 308 311 311 311 311 312 313 318 316 318 319 320 318 316 318 316 316 316 316 316 313 314 313 314 314 316 313 319 319 319 318 315 317 317 314 313 314 312 311 311 310 310 309
314 314 316 316 317 317 316 316 307 304 307 308 309 311 311 311 311 315 317 316 317 320 321 320 318 316 316 316 316 314 314 316 316 316 317 318 316 314 313 313 318 314 317 319 322 315 314 313 312 311 311 311 311 310
311 314 316 316 317 316 315 314 306 304 306 307 308 309 310 310 311 316 321 317 317 317 321 322 318 318 318 316 316 316 316 317 315 315 317 316 315 316 321 322 317 315 313 314 314 313 313 313 313 310 311 311 310 310
308 310 315 316 316 315 315 316 308 305 306 306 306 308 309 310 312 316 321 317 315 316 320 321 319 318 316 316 316 317 316 317 316 316 316 315 313 314 316 323 317 314 313 313 312 312 312 312 313 311 310 310 309 309
308 308 314 316 316 315 314 312 305 305 305 305 306 308 309 310 312 318 316 313 314 318 318 320 320 322 320 322 322 317 318 317 316 317 315 315 311 311 310 312 312 312 311 311 310 310 312 312 311 311 310 310 311 311
309 309 315 315 314 314 313 306 305 305 305 307 309 310 313 315 320 318 315 315 314 318 322 322 324 323 320 323 323 320 319 317 314 313 313 312 308 311 312 311 310 309 309 309 308 309 309 310 311 312 311 311 311 311
309 312 314 313 313 312 306 306 305 305 307 309 313 318 323 320 315 315 317 319 319 320 319 324 320 323 320 323 323 322 316 317 318 317 312 314 316 316 314 310 309 309 309 310 310 310 310 311 312 311 311 311 311 311
311 312 313 313 310 306 306 304 305 306 309 314 320 321 318 315 318 319 320 322 322 324 322 322 322 324 321 323 322 318 319 317 317 318 317 316 316 315 315 311 310 311 311 311 311 312 312 312 313 313 312 311 310 310
312 312 312 309 306 303 304 304 305 307 314 317 317 316 317 320 321 324 325 324 325 326 325 324 323 322 321 319 321 319 319 317 318 317 317 319 315 315 315 313 311 311 312 312 312 313 312 313 313 312 312 312 311 311
311 308 306 303 303 304 304 305 304 307 314 313 317 321 323 323 324 329 328 328 326 324 324 323 323 322 319 319 319 321 321 318 317 318 318 314 314 315 315 315 314 313 313 313 312 311 311 311 312 312 311 311 311 311
306 305 304 305 305 305 305 305 305 310 312 318 322 321 326 328 329 328 327 325 324 323 322 321 323 323 321 322 320 321 319 318 317 316 314 313 315 314 314 314 314 313 312 312 311 310 310 310 310 310 310 310 310 310
306 306 309 309 310 311 308 307 307 309 316 318 319 321 328 327 327 327 326 325 324 322 322 322 322 321 320 320 319 317 317 316 315 314 312 313 314 314 315 314 314 313 312 311 310 310 310 310 310 310 310 310 310 309
308 309 308 307 307 309 310 310 310 312 316 317 318 319 326 327 327 326 326 326 323 323 321 319 319 318 318 317 317 316 314 314 312 313 313 314 315 315 315 315 314 313 312 311 310 310 310 310 310 310 309 309 310 309
313 313 309 308 305 307 309 311 312 314 314 316 318 317 320 323 327 325 324 323 322 320 315 315 316 316 315 315 315 314 313 313 313 313 314 316 316 316 315 313 313 312 311 311 310 310 310 310 310 310 309 309 308 308
314 311 309 309 308 308 312 312 315 317 319 319 319 323 325 326 329 327 325 323 322 319 317 315 314 315 314 312 312 313 312 313 314 315 313 315 315 313 313 313 312 311 312 310 310 309 309 308 308 309 309 309 308 308
308 307 307 308 308 309 314 318 316 319 319 320 323 325 326 327 327 326 324 322 321 319 317 316 315 313 313 314 314 312 312 313 313 312 313 314 313 312 311 311 311 311 310 310 309 308 307 307 306 306 306 307 309 308
308 308 312 308 306 311 315 319 320 324 326 328 326 330 328 329 326 326 325 323 321 319 319 318 317 315 313 314 314 312 312 312 312 312 312 312 310 311 311 310 309 309 308 308 307 304 306 305 304 303 303 305 308 307
309 312 313 310 310 311 316 319 324 325 328 329 327 327 328 326 327 326 324 322 321 320 321 319 318 317 314 314 313 314 315 313 311 311 311 311 310 310 309 308 306 305 305 304 305 306 305 306 305 302 300 304 305 305
311 310 314 313 317 317 318 317 319 319 323 325 326 326 327 328 327 326 324 323 323 323 322 321 320 319 318 319 317 315 315 316 315 312 309 308 311 310 307 305 304 304 304 304 304 304 304 305 305 305 304 305 305 305
307 313 316 317 320 318 319 321 325 325 326 328 327 327 327 327 327 322 325 325 324 323 321 320 320 317 315 317 317 315 315 315 314 313 312 310 309 307 305 304 303 303 304 303 303 304 305 304 305 305 304 304 303 304
312 318 320 322 320 320 323 327 327 329 329 330 328 327 326 327 326 326 326 325 323 321 319 320 318 318 317 317 317 315 315 314 313 313 310 308 307 306 305 303 303 303 303 303 304 304 305 305 305 306 305 305 305 304
316 318 317 314 322 324 328 327 328 329 328 328 328 327 327 325 327 327 326 324 324 323 321 318 317 316 316 316 316 313 310 310 312 311 308 307 306 305 304 303 303 302 303 303 304 304 304 304 304 304 303 303 304 303
312 316 320 322 323 327 326 327 328 328 328 328 329 328 326 327 327 327 325 323 322 322 321 319 318 318 317 315 313 310 312 311 308 308 307 306 305 305 304 304 303 303 303 304 304 304 303 303 302 302 302 302 302 302
313 316 318 319 321 322 325 326 326 327 328 328 328 329 328 328 326 325 324 320 320 319 318 317 316 314 313 310 309 310 309 308 308 307 306 305 304 303 302 303 303 302 302 302 303 303 302 302 302 302 302 302 302 301
318 318 318 319 321 320 322 323 325 327 328 328 328 328 327 325 325 324 320 315 314 317 316 314 311 310 308 307 308 308 306 306 306 305 304 303 302 301 302 302 302 301 302 302 302 302 302 302 302 301 301 301 301 301
317 318 318 318 318 319 322 322 322 325 328 328 327 327 326 325 324 323 315 312 313 313 310 309 309 307 306 306 306 306 305 305 305 306 306 305 303 302 301 302 301 301 302 301 301 301 302 301 301 301 301 301 300 301
316 315 317 317 317 317 317 320 322 324 326 326 325 326 326 325 324 322 313 309 310 310 309 307 307 306 306 306 306 305 305 305 304 305 306 306 304 302 302 302 302 302 302 301 301 300 300 300 300 301 301 301 301 301
315 315 316 316 315 314 315 318 321 322 323 324 325 327 326 326 321 316 315 311 310 309 309 307 307 306 306 306 306 306 306 305 304 304 304 304 303 302 301 301 300 301 301 302 302 302 302 302 302 302 302 301 301 300
317 316 317 317 317 320 324 325 326 328 328 328 327 326 326 326 325 318 309 306 306 307 307 307 307 307 306 306 306 306 305 305 304 303 303 303 303 302 301 301 300 300 301 301 302 302 302 302 302 302 302 301 300 300
318 317 317 317 317 321 325 327 328 329 329 330 329 327 326 326 326 322 313 308 306 306 306 308 310 310 306 305 305 305 304 304 304 303 302 302 302 302 302 301 301 301 301 301 301 302 302 302 302 302 302 301 301 301

GFSWCAN_925_thetae_087.txt.gz
Theta_e
315 316 317 318 318 317 318 318 319 310 306 311 312 311 310 309 309 312 319 317 319 321 321 317 318 319 318 319 320 320 318 317 317 321 322 326 325 325 324 322 322 321 322 322 321 323 323 320 318 318 324 321 320 320
314 314 314 316 318 317 317 318 319 311 306 309 311 312 312 312 313 312 319 317 317 319 323 319 317 317 318 318 320 318 320 316 317 320 319 321 323 322 322 325 320 323 321 324 321 326 324 320 320 322 320 320 318 317
315 314 313 316 316 316 317 318 318 313 305 308 311 312 312 312 313 315 319 320 320 321 322 320 321 318 317 317 318 320 319 319 316 317 318 319 323 320 325 324 322 318 318 321 321 321 321 319 318 316 314 315 314 314
311 313 314 315 316 316 317 317 318 311 305 308 309 311 311 312 312 315 320 319 320 320 322 322 317 319 318 318 318 318 319 318 318 317 318 318 319 317 322 323 323 321 319 319 319 318 319 317 315 314 313 313 313 313
309 309 311 315 316 316 316 315 315 305 306 307 308 310 311 311 311 316 320 320 320 323 325 323 320 319 318 318 318 318 318 319 319 320 319 320 319 319 319 318 321 317 320 323 325 318 318 317 317 314 314 314 313 313
311 309 309 313 316 316 315 315 310 305 306 307 307 308 309 310 311 317 324 320 320 319 323 324 321 320 320 319 319 319 319 319 319 319 320 319 319 321 325 325 322 320 318 317 318 316 316 315 315 314 314 314 313 312
310 310 308 309 315 316 315 315 313 308 307 306 306 307 309 310 312 319 323 320 316 319 324 323 322 321 320 320 320 320 319 319 319 318 320 320 315 316 317 321 320 319 318 317 316 315 316 314 315 314 313 313 311 311
310 310 309 309 314 315 314 315 311 305 306 306 306 308 309 311 313 317 317 317 316 320 321 323 322 323 321 322 324 320 320 319 319 318 315 315 312 312 313 315 314 315 313 314 314 314 314 314 313 314 313 313 313 313
310 309 309 311 313 314 314 309 305 305 306 307 309 310 314 315 321 320 315 315 318 322 326 324 322 327 322 324 325 323 322 323 317 319 315 313 311 311 317 318 316 314 312 313 312 311 312 313 314 314 314 313 313 313
309 309 311 312 312 313 311 305 306 306 308 309 314 320 323 321 317 316 320 322 322 323 323 324 320 325 321 323 324 322 320 321 320 318 316 318 320 318 317 317 314 311 310 310 311 311 310 311 311 312 312 312 312 312
311 312 312 312 312 308 309 308 305 308 310 316 321 323 321 317 319 321 323 324 325 326 324 324 323 322 322 323 323 320 322 320 321 321 319 320 319 319 317 316 314 313 313 312 313 312 311 311 312 312 313 312 312 312
312 312 312 308 307 309 305 305 305 311 317 319 319 319 320 321 323 326 326 326 326 326 324 323 322 322 322 321 322 320 321 319 320 319 319 321 319 317 316 315 314 314 314 313 312 313 313 313 313 313 314 314 313 312
308 308 307 304 303 304 304 305 305 309 315 317 320 322 323 324 330 329 330 329 326 324 323 322 324 322 322 321 321 321 321 319 317 318 318 318 319 316 315 316 315 313 313 314 314 313 312 312 312 312 312 312 312 312
305 305 306 306 305 304 304 305 305 309 315 321 322 324 327 329 329 330 325 324 324 321 320 319 322 321 321 322 322 322 319 317 318 319 314 316 318 315 315 314 314 313 313 313 312 312 311 311 311 311 310 310 310 311
307 308 309 308 309 310 308 307 306 312 319 320 319 322 328 328 328 327 325 324 323 320 319 321 321 319 321 318 318 317 316 316 315 317 315 318 317 316 315 314 314 315 314 313 312 312 312 311 311 311 311 310 310 311
309 311 310 306 307 310 308 308 311 316 318 318 319 321 326 327 327 327 325 323 320 320 319 318 319 318 318 317 317 316 314 315 314 314 315 316 318 317 317 316 315 313 313 313 311 311 311 311 311 311 311 310 310 310
316 316 309 309 307 308 309 313 315 317 317 317 319 318 324 326 328 328 325 322 318 321 317 316 317 317 315 315 316 315 314 314 314 314 316 318 318 316 315 315 314 313 313 312 312 311 311 311 311 311 312 311 310 310
316 313 310 310 310 311 315 314 317 317 319 318 319 322 324 327 330 328 327 322 321 321 319 317 315 315 315 314 314 315 314 314 314 315 314 316 315 314 313 313 312 312 313 312 311 311 310 310 310 309 309 310 310 310
310 309 308 307 309 311 316 319 317 321 320 319 321 323 326 327 329 328 327 325 321 321 320 320 316 315 314 314 315 315 314 314 315 314 315 314 313 312 311 311 310 311 310 310 309 308 307 307 307 306 306 306 309 310
309 309 313 310 307 315 318 320 322 324 325 326 324 325 326 329 328 327 327 325 323 322 321 321 320 318 316 314 315 314 314 313 312 313 314 314 312 312 312 310 310 309 309 308 307 305 305 306 306 306 305 305 306 309
312 314 313 311 311 314 318 320 322 323 325 328 327 328 328 327 328 327 326 325 326 324 323 321 321 320 318 316 314 313 315 313 313 312 313 313 312 310 310 309 307 306 306 306 306 306 305 306 307 305 304 307 306 306
314 311 317 317 319 320 321 318 320 321 321 323 324 324 326 327 329 328 328 327 326 325 325 325 324 323 320 318 315 314 315 316 314 312 309 310 312 312 311 308 306 306 306 305 305 305 305 306 307 307 306 306 305 306
311 312 319 320 321 322 321 320 322 324 324 328 329 329 329 328 328 327 327 326 325 326 325 324 324 322 320 317 316 317 317 316 315 314 313 312 311 309 308 306 305 305 306 305 305 305 306 305 305 306 306 306 305 303
313 318 321 322 322 323 321 325 327 329 331 331 331 329 328 328 328 328 327 326 327 325 324 326 324 321 319 319 318 317 317 316 314 313 312 311 310 309 307 306 305 305 304 305 305 305 305 306 306 307 306 306 305 305
320 320 322 317 322 324 325 325 326 329 330 329 329 328 328 327 329 329 326 326 326 325 325 324 322 320 319 319 317 316 316 314 312 313 311 309 309 308 307 305 305 304 305 306 305 305 305 304 304 304 304 305 304 305
318 318 319 320 321 326 327 325 327 329 329 329 329 329 328 329 328 326 328 324 324 323 323 322 321 320 318 317 317 315 313 311 312 311 309 308 307 308 308 307 306 305 305 305 305 305 304 304 303 303 303 302 302 304
319 318 319 318 322 323 323 324 325 326 328 328 328 329 329 330 326 327 326 324 323 321 319 319 319 318 317 314 312 311 311 310 309 309 308 307 306 306 305 306 306 305 304 304 304 304 304 304 303 303 303 303 303 303
320 319 319 319 319 319 321 324 325 327 327 327 328 329 329 328 327 327 325 321 320 320 319 318 316 313 312 311 310 309 309 309 308 307 306 305 304 304 304 305 304 303 303 303 303 304 304 304 303 303 303 302 302 302
320 320 319 319 319 320 322 323 325 323 327 327 330 330 327 324 326 326 321 319 319 318 316 314 311 309 308 308 308 308 307 307 307 308 307 307 306 304 304 304 302 302 303 302 301 302 302 302 303 303 303 302 302 302
320 319 320 320 319 318 318 319 320 322 325 325 323 324 325 327 326 325 321 318 316 313 312 310 308 308 307 307 307 307 306 306 306 307 308 308 307 305 304 304 303 304 304 303 303 302 299 300 301 302 303 303 303 302
318 319 320 320 319 318 317 316 318 321 322 322 321 324 328 328 324 321 320 315 312 311 309 308 308 307 307 308 308 308 307 306 306 306 306 306 306 304 303 304 304 304 304 304 304 304 304 303 304 304 304 303 303 301
320 319 318 318 318 318 319 322 323 324 326 329 330 328 328 330 328 322 314 312 312 310 310 310 310 308 310 310 310 308 307 308 307 305 305 305 305 304 303 303 303 303 303 303 303 304 304 304 304 304 304 304 302 302
320 319 318 318 319 320 321 325 327 329 329 330 330 328 327 326 328 324 315 311 312 314 313 309 308 309 311 310 310 308 306 307 306 306 305 305 304 304 303 303 303 303 303 303 303 303 303 304 304 304 304 303 303 302

GFSWCAN_925_thetae_093.txt.gz
Theta_e
314 313 313 314 314 314 315 317 317 319 320 307 310 312 313 313 314 314 319 321 320 324 323 318 319 320 319 320 326 321 320 320 319 322 326 331 330 330 324 323 324 324 321 322 321 323 327 323 320 326 327 323 324 324
310 310 310 310 311 313 315 316 316 318 320 308 308 312 313 312 313 315 323 322 321 325 323 321 319 319 319 319 321 319 321 323 319 326 324 326 329 324 324 326 322 325 324 326 327 328 324 324 323 321 320 321 320 320
310 310 310 310 310 310 313 316 316 317 321 310 308 311 312 312 312 312 319 323 320 325 324 323 319 318 318 318 318 321 323 321 321 318 320 322 324 324 326 325 325 323 321 322 324 325 324 323 321 320 319 318 317 316
313 312 313 312 310 309 311 313 316 318 320 309 308 310 311 311 311 311 315 321 322 325 327 324 321 320 319 319 319 319 321 320 319 319 319 320 324 322 324 325 326 324 323 321 322 323 322 321 319 317 318 317 316 314
311 312 312 312 311 310 310 312 316 318 319 306 308 309 309 310 310 310 314 321 321 324 329 326 320 320 317 319 318 318 320 320 321 323 323 324 323 322 323 323 325 322 322 323 324 321 321 322 317 316 315 315 314 314
312 312 311 311 311 310 310 314 316 317 309 307 307 308 309 309 309 319 326 322 319 319 325 327 323 323 319 319 319 320 321 321 321 321 322 322 318 320 323 323 323 321 320 320 320 318 318 318 318 315 315 314 314 313
311 311 310 311 310 309 312 315 315 309 307 309 306 307 308 309 310 319 324 320 316 317 326 329 322 322 320 320 322 322 321 322 322 323 324 322 317 318 322 322 320 320 319 319 318 316 319 319 318 317 316 315 314 314
310 310 310 310 310 311 313 315 313 309 310 307 306 307 309 310 315 318 318 319 317 320 326 328 325 325 321 325 325 322 323 322 322 322 319 317 314 313 313 315 316 316 317 317 317 316 314 314 316 317 316 316 314 314
310 310 310 310 311 313 314 314 314 309 306 306 308 309 314 315 322 322 317 317 317 323 330 330 327 330 324 325 322 322 324 325 320 321 318 316 311 310 312 316 318 317 318 316 314 314 314 315 316 314 315 316 314 314
312 311 310 311 313 314 314 313 306 306 307 309 312 319 325 322 319 317 322 326 325 327 327 329 324 327 324 326 326 325 324 324 323 322 318 318 317 313 317 317 319 317 314 313 314 314 314 313 314 314 313 313 313 314
313 313 314 313 313 313 307 307 307 308 310 315 322 325 323 318 321 324 327 328 329 329 329 326 326 325 324 325 325 324 324 323 324 323 322 323 323 322 320 318 316 315 313 313 313 314 314 314 313 313 313 313 312 313
310 310 311 312 309 308 310 306 307 312 317 315 315 317 321 323 325 328 328 329 328 330 327 327 325 326 325 323 322 323 323 323 323 320 323 325 324 321 319 318 317 315 314 315 314 315 314 313 313 313 313 313 312 311
306 308 309 309 310 308 305 305 306 307 312 319 320 324 325 326 324 328 331 332 332 328 328 325 326 326 324 323 322 321 324 323 322 323 325 323 322 321 319 317 317 316 315 315 316 315 316 315 314 313 312 312 311 310
306 309 309 309 306 305 305 305 306 308 313 323 326 316 328 328 329 333 330 330 328 327 326 324 325 326 325 324 323 325 324 323 322 323 321 323 319 316 317 318 317 316 316 315 315 315 315 316 313 313 313 314 313 311
308 308 308 307 309 310 309 307 306 310 319 324 324 321 327 327 328 329 326 327 324 323 323 321 323 324 325 324 324 323 322 319 320 321 322 321 320 320 319 318 317 317 315 315 315 314 313 314 313 312 312 313 314 313
312 313 311 310 309 309 308 309 307 315 320 322 322 323 326 329 327 327 329 329 325 323 322 324 324 325 324 324 323 321 319 321 320 321 321 323 321 320 318 316 317 316 316 315 314 314 314 312 312 313 313 312 312 311
315 317 312 310 310 311 311 315 318 320 320 320 321 320 322 325 324 326 326 327 328 325 325 326 320 320 320 317 317 319 320 321 323 322 322 322 321 319 316 317 315 315 314 314 314 314 312 311 311 312 313 311 311 310
315 315 313 310 308 313 315 312 319 319 319 319 319 319 327 328 327 328 327 325 328 327 326 325 322 319 319 319 319 321 319 319 321 320 319 321 320 316 315 315 313 313 313 313 312 310 309 311 310 310 307 307 307 307
309 307 308 308 308 310 318 321 319 320 322 321 322 322 328 329 330 324 324 325 330 328 326 326 325 321 323 323 321 320 320 320 320 320 321 320 316 315 313 312 313 313 311 312 311 310 309 307 308 308 307 307 307 307
309 311 313 313 309 315 320 320 321 324 323 327 326 327 326 331 330 328 328 330 331 330 327 326 324 326 325 323 319 320 319 318 316 319 319 318 316 314 314 313 311 311 311 312 311 309 308 308 308 307 307 308 309 309
312 314 314 313 311 313 318 322 324 325 324 325 324 327 329 330 330 330 327 328 330 329 329 327 326 323 323 323 318 319 319 317 320 319 319 318 316 315 315 314 310 309 309 308 309 307 309 308 308 307 307 308 307 307
316 314 316 316 319 321 322 320 321 322 324 325 325 326 326 330 328 327 329 331 328 328 329 330 327 324 325 325 323 319 318 316 315 312 311 309 312 313 314 310 309 308 308 307 307 308 306 306 307 307 307 307 307 307
313 314 316 319 322 318 318 320 323 324 323 327 326 324 325 330 328 330 331 330 328 328 328 327 327 324 327 323 320 319 318 318 318 316 314 314 314 311 310 308 307 308 308 307 307 306 306 307 306 307 306 306 306 306
315 316 320 321 322 320 321 325 324 324 327 331 330 330 331 333 332 332 331 330 328 326 326 327 328 326 324 322 320 320 319 316 316 316 316 315 314 312 310 309 307 306 306 306 308 307 307 306 306 307 307 306 307 306
317 317 318 314 322 322 323 322 324 326 328 329 329 330 329 331 334 332 331 329 328 329 328 327 328 324 323 322 321 320 318 318 316 317 315 313 312 310 309 308 307 306 306 307 308 307 307 306 307 307 307 306 306 306
315 319 317 321 322 322 323 326 328 326 331 330 328 329 326 329 333 331 328 325 325 324 326 328 325 324 324 322 321 321 319 318 315 314 314 311 310 311 310 308 307 306 306 306 307 307 307 306 306 306 304 303 301 301
317 321 321 321 319 321 324 326 325 328 329 330 328 329 329 329 330 329 326 322 323 322 325 322 322 323 321 319 317 317 315 312 312 313 311 309 309 308 307 309 309 307 306 306 306 306 306 305 305 305 305 305 305 304
319 321 323 323 323 321 321 322 322 324 330 326 326 327 328 328 328 330 326 325 323 323 322 316 314 313 313 313 312 312 312 311 310 309 308 307 306 306 306 305 306 306 306 306 305 305 305 305 305 305 305 304 304 304
319 320 321 323 323 323 323 323 321 323 326 328 328 327 328 328 326 326 326 327 323 321 319 312 312 311 311 311 311 310 311 311 310 311 310 308 307 306 306 305 305 304 304 304 304 304 304 304 304 304 304 305 304 304
319 319 320 320 322 323 324 322 321 321 323 325 327 326 327 327 321 321 322 323 322 319 312 311 310 309 309 310 310 310 310 310 309 309 310 310 309 306 306 305 303 303 304 304 303 302 300 302 302 302 302 305 305 305
319 319 321 321 322 323 323 322 320 320 320 322 323 326 327 326 325 321 320 319 313 311 311 313 312 311 309 309 311 311 311 309 308 308 308 308 307 306 306 305 305 304 305 305 304 304 302 302 303 305 305 306 305 304
322 323 322 323 323 323 323 322 320 320 321 328 327 327 325 326 326 325 320 319 316 313 312 314 313 311 310 311 311 310 310 308 308 307 306 307 307 306 306 305 305 305 306 306 305 305 304 305 305 306 306 306 306 305
322 322 323 322 323 323 323 322 321 324 328 328 327 325 326 327 328 323 318 317 318 317 315 315 313 311 310 310 309 310 310 309 309 309 310 309 308 306 306 305 304 304 305 305 305 305 305 305 305 305 306 306 305 305

GFSWCAN_925_thetae_096.txt.gz
Theta_e
311 310 310 310 310 311 314 314 315 316 319 319 307 311 313 313 313 316 322 322 319 315 316 319 317 317 316 316 317 314 314 316 312 317 321 315 317 318 317 319 319 320 315 316 316 318 320 322 322 326 322 321 327 326
310 310 310 310 310 310 310 311 315 316 318 320 307 310 312 312 312 314 319 320 321 317 317 320 320 317 318 317 314 312 316 316 312 316 317 317 317 317 316 316 317 321 319 322 322 322 319 318 319 317 318 320 319 321
310 311 313 313 312 311 309 310 313 315 318 320 307 309 312 312 310 311 317 321 321 317 317 316 317 317 318 318 319 315 315 315 314 310 312 315 319 315 315 315 321 318 316 319 320 320 321 317 316 316 315 315 316 317
311 310 311 313 312 312 311 309 312 315 317 320 307 308 311 310 310 310 312 318 321 319 322 319 319 319 318 319 318 320 316 315 313 310 310 314 318 316 316 316 316 318 317 316 317 320 319 318 315 315 314 313 312 313
310 310 311 311 311 311 311 309 311 315 317 318 307 308 309 309 309 311 316 318 318 319 322 321 319 318 318 318 318 319 318 314 313 315 315 318 315 316 316 316 316 317 317 316 315 316 316 317 314 313 313 312 311 312
310 310 310 310 310 311 310 309 313 316 318 309 307 308 308 309 309 321 319 321 316 316 317 322 319 317 319 319 318 317 316 313 313 314 316 315 312 314 315 309 317 317 317 316 316 315 315 314 313 313 312 311 312 310
310 310 309 310 310 310 309 312 315 316 308 308 308 307 308 309 310 318 321 320 318 316 319 322 318 318 319 318 317 315 317 315 315 315 314 313 311 311 313 310 314 315 317 317 316 313 316 313 313 312 312 312 312 312
310 310 310 310 310 310 312 314 315 307 307 309 307 307 309 312 318 320 318 318 318 318 319 324 323 320 319 319 321 314 317 314 315 313 311 311 308 308 310 309 309 312 313 315 315 313 312 312 313 313 313 313 311 310
311 310 310 310 310 312 314 315 311 310 310 306 307 309 314 316 320 322 317 318 315 321 324 323 325 325 318 321 318 318 315 317 312 313 312 309 305 309 307 307 311 313 315 313 312 312 313 314 314 313 313 313 311 310
313 312 311 312 313 314 314 314 312 307 306 308 312 317 321 322 318 317 321 320 318 319 319 322 319 325 322 319 320 318 315 316 316 314 311 310 309 307 307 307 310 312 311 310 312 313 312 311 312 313 313 312 312 312
312 313 314 314 314 314 311 306 306 308 310 315 319 321 321 319 320 319 321 323 321 324 320 319 320 321 316 320 319 315 316 315 314 314 314 314 314 316 311 312 311 310 310 310 310 311 312 310 310 312 312 313 313 312
308 311 312 312 310 306 308 306 308 313 315 311 312 315 318 319 322 324 322 323 323 325 321 318 318 317 317 313 316 316 318 316 318 314 316 312 314 314 313 313 312 310 311 311 312 312 313 312 312 312 311 312 312 313
306 307 308 309 310 309 306 305 306 306 309 317 317 321 319 321 322 326 327 326 325 322 320 318 319 316 315 314 314 316 320 317 316 318 317 315 315 314 312 313 312 312 313 312 313 313 313 314 313 312 311 311 311 311
307 309 308 308 307 305 305 305 306 307 312 318 321 315 322 324 325 325 326 326 324 321 320 318 319 318 316 317 315 320 318 317 319 316 317 315 314 314 313 312 312 312 312 313 313 314 313 314 314 314 313 313 311 312
309 310 310 308 309 309 310 307 306 307 316 321 322 317 323 323 323 322 322 326 319 314 318 317 317 316 317 319 317 319 322 322 316 315 315 314 312 311 310 313 311 311 311 312 313 314 313 313 312 312 312 313 312 312
313 315 313 310 310 309 308 309 307 312 318 319 320 320 322 324 324 325 326 326 319 312 313 315 318 319 320 318 319 320 317 316 313 313 314 312 312 312 311 310 311 312 312 312 313 312 312 312 311 311 312 311 311 310
312 316 311 310 309 311 311 314 315 316 320 320 317 315 316 322 320 321 320 319 322 320 320 318 321 318 313 315 315 314 316 315 317 315 314 313 313 311 310 311 312 313 312 312 312 313 312 312 311 311 309 307 309 311
313 313 311 310 308 311 314 311 316 319 319 315 315 314 315 319 321 319 320 323 323 323 322 321 315 315 314 315 314 312 312 316 316 316 315 312 311 311 312 310 312 312 311 311 310 310 309 310 308 306 306 306 306 307
309 308 308 308 309 308 314 318 316 319 318 316 315 315 316 320 321 322 322 320 320 323 324 318 319 315 312 314 313 313 315 316 317 314 312 313 313 312 312 311 311 311 311 311 310 308 308 308 307 306 306 307 307 308
309 310 311 312 312 312 318 318 319 318 321 318 317 319 320 322 322 320 320 319 321 324 323 320 318 318 318 315 314 313 314 313 315 315 314 312 312 312 311 310 311 312 311 310 310 308 307 307 306 306 306 306 306 307
312 313 314 313 311 309 312 315 319 320 318 319 318 321 321 324 327 324 324 322 324 324 323 322 321 318 315 317 319 316 311 310 313 312 313 311 313 312 311 312 311 308 308 308 306 307 307 306 306 306 307 306 306 307
313 314 315 314 316 318 315 318 316 316 317 318 318 318 320 321 324 323 322 327 325 324 322 322 320 320 319 319 318 315 313 314 313 314 313 314 311 310 310 313 312 307 305 306 306 306 306 307 306 306 306 307 307 306
312 314 315 317 321 315 314 318 320 320 321 319 321 320 319 322 322 323 325 324 323 320 322 322 321 321 322 323 320 317 315 313 310 309 309 308 311 312 312 312 311 305 304 306 306 306 305 306 307 306 306 305 306 306
314 314 319 320 318 316 318 321 320 321 321 321 324 328 327 326 326 328 326 325 322 320 321 321 319 319 318 317 316 315 316 314 313 314 314 312 308 308 307 307 307 307 307 307 306 306 305 306 306 306 307 306 306 305
315 313 313 310 318 320 321 322 322 322 325 326 327 327 325 325 328 328 328 323 323 323 322 319 320 319 318 315 313 317 317 316 313 312 315 314 310 308 307 306 306 306 306 306 306 306 306 307 306 306 306 306 306 305
316 315 314 320 320 321 321 324 324 323 326 326 328 326 323 323 325 326 327 323 322 322 323 323 323 321 320 317 315 316 318 317 316 313 313 312 310 307 305 303 303 305 306 307 307 307 306 305 307 306 306 303 302 304
316 319 318 316 317 317 320 321 323 326 327 328 329 327 326 327 326 327 323 320 319 321 321 320 323 323 318 317 319 319 318 317 314 313 310 309 309 309 308 305 304 306 306 307 307 307 307 306 306 305 304 304 303 304
316 318 319 319 320 318 320 319 320 321 329 325 325 327 327 327 325 324 323 324 324 324 322 313 314 316 315 315 312 311 310 309 307 306 306 306 306 306 307 308 307 306 306 306 305 305 305 305 305 305 305 305 304 304
317 317 317 320 321 321 322 320 319 319 322 322 325 327 326 325 324 322 321 322 321 313 312 311 311 312 312 312 313 313 309 308 306 303 303 302 302 304 306 306 306 305 305 305 305 305 305 304 304 304 304 304 304 304
316 315 318 319 320 321 320 319 319 318 321 322 322 324 325 324 321 319 320 321 320 312 311 310 309 310 309 310 309 310 310 309 308 307 303 303 304 305 305 305 304 304 304 304 303 303 303 303 302 303 303 304 305 304
316 316 318 318 319 318 318 317 317 318 320 321 322 323 324 323 324 323 321 318 312 311 310 310 310 310 308 308 308 307 306 309 309 308 308 308 307 306 305 305 304 304 304 304 303 302 300 303 303 303 303 305 305 305
319 320 321 321 320 319 319 319 318 318 324 324 323 322 322 324 325 320 319 319 318 311 312 312 311 310 311 311 310 310 309 308 308 307 307 308 306 305 305 305 304 304 304 304 304 304 304 303 304 304 305 306 306 306
321 321 321 321 320 322 324 323 323 326 325 325 327 326 325 323 318 315 319 319 317 314 313 312 311 311 310 310 309 308 307 307 306 308 309 308 307 306 306 305 305 305 305 306 305 305 304 304 304 305 305 305 306 305

GFSWCAN_925_thetae_102.txt.gz
Theta_e
312 311 310 309 309 310 311 311 310 309 311 315 317 308 311 311 310 315 319 319 317 312 314 317 315 314 314 312 314 311 313 312 311 316 317 310 311 313 315 315 316 318 313 314 312 315 318 317 319 321 317 322 333 329
310 310 310 309 309 311 312 312 311 310 310 314 317 308 310 311 310 314 318 319 320 314 314 319 319 314 315 315 311 309 313 312 311 313 313 312 312 311 309 310 313 318 315 318 317 315 314 315 316 315 314 322 325 325
311 311 310 309 309 309 310 311 312 310 309 313 316 308 309 310 309 311 316 318 319 313 312 312 315 316 317 316 317 314 311 309 308 307 310 311 315 310 312 312 316 316 312 318 318 318 318 315 315 315 317 319 320 320
311 311 310 310 310 309 310 311 311 311 310 312 315 309 308 309 309 310 317 317 319 315 314 315 317 315 316 318 318 316 312 310 307 306 310 311 316 310 310 311 312 313 313 314 315 317 316 315 314 313 317 318 319 319
311 310 310 310 310 309 309 310 311 310 310 313 316 307 308 308 308 315 316 316 318 317 319 316 314 314 316 317 316 316 314 309 309 313 313 314 310 311 309 311 312 313 313 314 317 313 313 313 312 312 315 317 318 318
311 310 310 310 310 310 310 310 311 310 313 314 311 307 307 308 309 319 317 318 316 317 314 318 314 314 316 317 316 314 312 308 308 312 310 308 307 309 311 306 310 312 312 309 313 313 311 312 311 312 311 313 315 315
312 312 311 310 310 310 310 310 310 312 314 314 307 307 307 308 310 317 319 318 317 316 316 317 316 314 316 315 313 311 312 309 311 308 309 309 307 306 307 308 310 312 314 314 313 313 314 312 313 311 311 311 313 313
313 312 310 310 310 310 310 311 313 314 312 307 308 307 308 311 316 318 317 318 317 318 315 317 317 316 315 315 316 310 312 310 308 308 306 307 302 307 307 307 308 310 309 310 311 312 311 310 311 311 312 310 311 311
312 312 311 311 311 312 313 314 314 308 308 309 307 309 313 316 318 320 317 315 316 318 319 317 319 320 314 314 313 312 309 314 307 310 309 306 306 302 306 305 308 307 311 312 311 311 311 312 311 311 312 308 308 308
311 312 313 313 313 314 314 313 309 311 307 307 310 318 319 319 316 315 319 315 314 313 314 320 314 321 315 315 316 315 309 311 313 310 306 308 307 304 303 302 304 307 308 309 311 312 311 310 310 312 311 310 311 310
308 312 313 313 313 311 308 306 307 308 310 315 318 320 319 316 318 313 318 319 316 321 315 316 315 318 313 318 317 311 311 309 309 310 312 310 311 310 309 305 303 304 306 308 309 309 310 308 308 310 313 313 312 311
306 308 309 309 308 306 306 306 310 315 313 310 311 313 316 315 313 320 318 318 320 321 316 316 316 313 313 309 316 312 314 311 315 309 313 309 310 309 310 308 308 308 309 309 309 309 310 310 309 309 311 312 313 313
307 307 308 308 308 309 306 305 305 306 313 315 315 318 315 315 315 321 323 321 321 317 315 314 316 313 310 309 311 313 317 315 311 315 314 312 310 309 310 310 310 308 308 309 310 310 311 311 311 310 310 312 313 312
308 309 309 308 308 308 307 305 305 306 312 316 318 311 318 320 319 318 319 319 317 317 314 313 314 314 311 313 311 317 314 314 318 315 315 311 310 310 309 309 309 309 308 309 310 311 311 312 312 312 311 310 310 310
308 311 311 309 310 309 309 308 306 306 315 318 318 318 319 318 317 319 317 318 318 314 313 315 314 312 313 315 314 314 318 320 317 316 312 309 308 309 309 309 308 308 308 308 310 310 311 312 312 312 312 312 312 311
310 313 310 309 309 309 308 309 307 308 314 316 318 320 315 319 319 319 317 317 314 310 310 312 315 316 318 315 318 319 320 318 314 311 308 308 309 309 309 309 309 309 309 310 310 312 312 312 311 311 311 311 311 311
314 313 311 307 308 308 311 311 311 312 315 318 317 313 315 317 319 316 317 318 310 312 316 313 318 318 312 317 318 315 316 313 310 308 307 308 309 309 308 308 309 310 310 310 311 311 311 311 310 309 309 309 307 306
313 314 310 309 308 309 313 311 313 317 319 316 316 311 311 312 315 315 314 314 318 316 314 317 311 314 314 315 312 309 308 307 309 309 309 308 309 308 309 308 310 310 310 310 310 310 310 310 308 308 308 307 305 305
308 308 308 308 309 309 310 314 311 314 315 314 312 310 310 311 310 312 314 315 316 317 318 316 319 314 313 309 310 309 307 311 313 312 311 309 310 309 310 310 310 309 309 309 308 309 310 310 309 307 306 305 304 305
309 309 309 311 310 309 313 313 314 313 316 314 311 312 311 312 314 315 315 315 317 318 320 321 317 314 311 310 307 309 308 310 312 314 312 309 309 309 309 309 309 309 308 308 307 307 306 305 306 306 305 304 304 305
310 311 312 311 311 310 309 311 314 314 316 317 314 314 317 315 320 319 317 314 318 319 321 317 316 314 310 310 310 310 312 313 316 317 313 312 309 309 309 308 308 307 306 306 305 305 305 305 306 305 304 304 305 305
310 312 312 311 312 312 309 311 311 312 313 313 313 312 314 315 315 318 315 319 320 319 317 317 316 318 314 315 317 313 314 317 317 313 312 313 309 307 306 308 306 305 306 307 307 306 306 306 305 305 304 305 305 305
310 312 312 312 316 314 312 315 318 317 318 316 314 318 315 314 314 314 320 318 318 314 316 316 317 319 318 319 318 317 315 313 311 312 312 313 312 311 310 309 309 307 305 306 306 307 307 306 306 305 305 305 305 304
310 311 313 313 312 312 314 317 316 317 317 318 317 321 321 320 317 320 323 320 318 316 317 318 317 317 316 316 315 315 316 312 311 310 312 311 308 309 311 311 310 309 310 309 306 306 307 306 306 305 305 304 304 304
308 308 308 306 312 320 319 320 319 319 322 320 323 322 321 317 320 321 321 319 319 319 319 319 318 317 318 315 313 312 312 310 307 307 307 310 309 307 308 309 310 310 310 309 306 306 306 306 305 305 305 304 304 304
311 309 312 316 317 319 320 322 322 322 320 322 322 320 317 318 321 323 320 320 319 320 320 321 321 321 319 317 316 312 312 311 311 312 312 310 310 307 306 305 303 305 307 308 307 306 305 304 304 305 305 305 305 305
309 311 312 311 314 315 315 316 321 322 324 324 323 321 321 324 325 322 317 317 317 318 319 320 320 320 321 317 317 317 314 314 315 316 316 315 313 313 311 306 304 308 307 306 306 306 306 304 304 304 304 305 305 305
311 312 315 314 315 315 318 317 318 318 322 320 322 325 325 325 323 319 318 321 321 320 319 320 320 316 313 315 318 316 316 315 315 315 314 314 313 310 307 306 307 307 306 305 306 306 306 305 305 305 305 305 305 303
312 312 312 314 314 315 317 318 317 316 317 320 321 320 320 318 319 319 319 319 319 314 310 309 309 310 312 313 315 315 316 315 308 303 303 303 302 305 306 306 306 306 305 304 305 305 306 305 306 306 306 305 305 304
310 310 313 315 317 318 317 315 316 314 315 316 316 319 318 316 319 320 318 313 314 312 309 309 310 309 307 307 306 308 309 309 309 306 303 302 304 306 305 305 306 305 305 305 305 305 305 305 305 305 304 305 304 304
310 310 312 313 314 313 313 312 314 317 317 318 317 319 319 317 318 319 317 314 311 310 310 308 306 308 308 307 307 306 305 307 306 306 307 306 306 306 306 305 305 305 305 304 304 304 304 304 304 304 304 303 303 303
311 313 314 316 315 313 312 314 317 321 319 318 319 318 318 318 319 316 318 318 318 315 309 310 308 307 307 307 308 308 309 309 309 307 307 307 307 306 305 305 305 304 304 303 303 302 303 303 303 302 302 302 302 302
316 314 313 316 318 319 320 320 323 323 321 321 320 320 320 317 317 314 316 317 317 317 314 311 311 310 309 309 309 309 309 308 308 307 307 307 308 308 307 304 304 303 303 303 302 302 301 301 302 302 302 302 303 303

GFSWCAN_925_thetae_108.txt.gz
Theta_e
312 313 312 311 311 311 311 310 310 311 312 311 310 312 311 310 310 312 322 320 323 324 322 321 319 321 322 322 322 323 322 322 320 321 320 325 323 328 324 326 326 326 325 323 324 325 328 327 327 332 331 330 331 339
312 312 312 312 311 311 311 310 310 310 312 312 310 312 312 309 309 310 322 319 320 324 324 322 319 317 318 320 321 322 323 321 322 322 324 324 325 324 322 321 324 325 325 328 326 328 328 326 327 328 330 331 330 338
312 312 312 312 311 311 311 310 310 310 312 312 310 311 312 309 309 309 319 319 322 324 322 321 321 319 319 318 318 322 322 322 322 322 323 323 324 322 323 322 321 324 324 327 327 327 326 325 326 326 329 332 333 334
311 312 312 312 311 311 311 311 310 310 312 312 310 312 311 308 308 309 319 319 322 323 323 322 319 320 318 319 319 320 321 319 320 321 322 322 322 322 324 326 325 325 325 325 325 327 326 325 325 326 327 329 331 331
310 312 313 313 312 311 311 310 310 310 311 311 310 312 309 308 308 314 318 319 320 325 323 322 320 319 320 320 320 320 321 322 322 322 321 322 323 323 323 324 323 323 323 324 326 328 327 327 323 323 325 328 329 330
309 311 313 311 311 311 310 310 310 310 311 310 311 313 307 307 310 320 321 320 318 321 324 323 321 321 321 321 321 322 321 321 321 322 323 323 321 325 325 327 324 325 325 323 325 324 324 323 321 321 323 325 327 328
308 310 312 311 310 310 310 310 311 311 310 311 314 307 306 307 315 321 322 320 317 319 325 323 323 322 321 322 322 323 322 323 323 323 324 323 322 321 326 329 321 324 325 324 323 323 324 322 323 320 320 320 322 325
307 310 312 312 311 311 310 310 310 311 312 314 307 306 307 309 314 319 319 317 316 323 326 323 325 324 321 324 325 323 324 323 323 323 322 323 321 322 328 323 321 323 323 322 322 321 321 320 320 320 319 319 323 325
307 309 312 313 313 313 313 313 313 313 309 307 307 308 313 318 322 322 317 316 320 323 325 324 325 326 322 325 325 324 324 325 322 323 321 319 323 319 321 321 320 321 319 316 317 317 317 316 317 319 320 320 320 323
307 308 312 313 313 313 313 310 309 308 309 306 311 318 322 322 317 318 321 321 322 323 325 327 324 327 324 326 326 326 324 323 322 322 320 322 325 321 320 317 318 319 317 316 317 317 316 316 316 317 317 318 319 320
307 307 310 311 311 308 306 306 307 307 307 314 320 322 320 316 321 322 322 319 319 323 323 324 325 327 324 326 326 324 324 322 323 323 321 323 322 319 320 317 318 318 317 318 317 317 316 316 316 317 317 318 317 318
307 307 308 309 308 306 305 305 308 312 315 317 317 317 320 322 323 324 323 323 323 320 324 325 326 325 325 324 325 324 323 322 321 320 321 325 321 321 321 318 317 319 318 317 316 316 315 316 316 317 318 318 317 317
307 308 308 308 309 308 308 306 305 308 311 314 318 319 321 321 327 323 325 324 325 325 326 326 326 325 323 324 324 322 321 320 320 322 324 321 323 323 322 319 318 317 316 315 315 315 316 316 316 317 318 317 317 318
306 307 308 309 309 309 309 307 305 310 313 322 322 321 322 323 322 322 322 322 325 325 325 324 325 324 323 324 322 321 321 321 323 324 323 319 322 325 322 321 319 318 316 316 315 315 315 316 316 316 316 316 317 317
306 309 310 309 310 310 309 308 305 305 315 321 322 328 324 322 324 325 323 326 327 326 325 325 324 323 322 322 321 322 323 325 324 323 319 319 326 325 324 322 320 318 316 316 315 314 315 315 315 315 315 315 316 316
306 311 308 309 309 309 309 308 307 307 314 318 321 325 324 325 326 327 327 328 327 325 324 323 323 323 323 323 324 324 323 324 321 321 320 325 327 325 324 322 321 317 315 315 315 314 314 315 314 314 316 316 315 315
307 312 310 308 308 308 309 312 312 314 314 317 319 320 323 325 327 327 327 327 325 325 325 324 325 325 324 324 324 323 324 322 322 322 322 323 326 326 324 322 320 317 316 316 315 314 314 315 316 316 316 315 314 313
307 311 310 310 308 309 314 313 315 314 315 316 317 316 319 320 323 323 323 325 325 326 325 325 325 325 324 325 325 324 323 322 322 323 322 324 325 323 321 322 320 318 317 316 316 317 316 316 316 315 314 314 311 310
307 308 308 308 308 311 314 315 315 317 317 316 318 318 318 318 319 321 321 323 324 324 325 325 325 325 325 324 324 323 324 323 323 324 323 322 321 321 320 321 320 320 319 319 318 318 317 316 314 312 311 310 309 309
309 309 309 309 309 314 316 317 317 317 316 317 317 317 317 317 319 320 320 322 325 325 326 326 325 324 324 324 324 325 325 324 322 322 320 319 318 319 320 319 318 318 318 318 318 316 314 313 311 310 309 310 310 310
309 310 310 311 312 314 317 317 320 321 320 320 321 322 320 321 321 324 326 325 326 326 327 326 327 326 327 326 325 323 325 322 324 323 324 321 321 319 319 318 317 315 314 314 313 311 310 310 310 310 311 311 310 310
311 311 313 312 316 316 317 317 319 320 321 321 322 322 322 322 322 325 328 328 328 327 326 326 326 327 327 330 329 326 323 321 321 323 320 319 323 322 320 318 315 314 313 312 311 311 310 310 311 311 311 311 309 308
309 311 314 315 317 317 317 318 321 319 319 319 320 321 320 320 321 323 325 323 324 324 326 327 328 329 330 328 328 327 326 325 325 324 321 320 321 321 319 317 315 314 313 312 311 311 311 312 311 311 311 309 307 307
308 314 316 317 316 316 319 322 322 323 322 322 321 321 320 323 327 329 325 322 324 328 329 330 329 329 329 329 329 328 325 321 321 320 321 319 320 319 318 317 315 313 313 312 312 312 312 312 311 310 309 307 307 307
312 313 316 314 318 320 320 320 321 322 323 322 323 322 326 329 327 326 327 325 327 328 328 328 329 330 330 329 326 324 322 321 320 321 320 318 318 318 318 317 316 314 313 313 313 312 312 312 311 310 309 307 307 307
314 315 314 315 318 319 319 321 322 322 322 323 323 325 328 328 327 327 327 328 329 328 326 327 328 327 329 328 325 322 319 317 318 318 317 316 317 317 317 317 316 315 314 313 313 313 313 313 311 310 309 307 306 306
315 316 316 315 319 320 321 321 322 322 322 323 325 327 327 327 327 327 327 327 329 326 325 325 325 327 328 326 324 324 323 316 314 315 315 314 314 315 315 315 315 314 314 314 314 314 314 313 310 309 308 308 307 306
316 315 315 316 317 319 321 322 323 323 323 325 326 325 325 325 325 329 329 326 324 322 319 317 317 318 319 319 320 319 316 315 314 314 314 314 314 314 314 314 314 313 314 312 313 314 313 311 310 309 308 308 308 307
315 315 314 316 317 319 320 322 323 322 323 326 324 324 323 326 327 327 324 321 319 320 318 318 316 316 316 317 317 316 315 315 317 319 319 318 317 314 313 312 310 309 310 309 309 310 311 310 309 309 308 308 308 308
313 314 316 316 317 318 319 320 323 321 322 323 323 326 327 325 325 323 320 319 319 319 318 318 316 316 319 319 318 318 317 317 316 313 313 313 312 310 310 310 309 309 308 308 308 307 307 308 308 308 308 309 308 308
313 314 314 315 317 318 318 320 320 321 323 324 325 326 327 326 322 321 320 319 318 317 316 315 314 314 314 314 317 318 316 315 315 314 311 311 310 310 310 310 309 308 308 308 307 308 307 307 308 308 308 308 309 308
315 316 317 316 316 315 316 319 320 321 323 325 327 326 326 326 325 322 321 321 319 316 311 314 314 312 311 310 311 312 310 311 312 312 313 310 310 310 310 309 309 308 307 307 306 307 307 307 308 308 308 308 307 307
318 317 318 319 320 321 318 316 318 321 323 324 328 326 324 323 324 321 319 319 319 317 315 314 313 312 312 312 312 311 310 309 308 308 309 309 308 308 309 309 308 308 307 306 306 306 306 306 306 306 306 306 306 306

GFSWCAN_925_thetae_114.txt.gz
Theta_e
313 312 311 312 312 313 312 312 312 311 311 310 312 312 312 312 311 311 319 324 326 329 327 323 322 324 322 320 322 327 326 322 322 322 323 324 325 326 326 326 332 329 332 333 331 331 335 329 332 335 336 332 333 333
313 310 311 311 312 313 313 313 312 312 311 311 311 312 312 312 311 309 318 324 324 328 328 323 323 323 321 321 321 323 322 328 324 325 326 324 325 323 324 325 327 325 327 329 334 335 329 328 329 328 330 332 332 334
312 310 310 310 310 312 313 313 313 312 312 311 311 312 312 312 311 310 315 321 324 326 328 325 323 320 320 319 320 321 325 324 324 323 325 326 327 326 326 326 325 323 325 324 325 329 328 328 327 327 327 328 329 332
311 309 309 310 309 313 312 311 311 311 311 311 311 312 312 312 311 309 315 321 324 327 325 322 321 322 322 321 320 321 322 323 323 323 321 322 324 325 325 326 329 327 329 325 324 328 329 327 327 325 326 327 329 332
310 308 309 309 310 312 311 311 311 311 311 311 311 312 312 312 310 308 312 318 323 326 334 325 324 323 321 321 321 322 323 323 324 324 324 323 324 327 326 323 323 324 324 324 328 331 332 330 328 325 324 326 326 329
309 307 309 308 311 312 312 311 311 311 311 311 311 312 311 312 309 312 320 318 322 324 329 329 325 323 322 322 322 323 324 324 324 324 324 325 327 327 322 326 326 324 325 326 329 328 326 329 326 324 323 324 325 327
307 308 308 308 312 313 313 313 310 311 311 311 312 311 312 310 307 317 322 321 320 324 329 329 326 325 323 323 324 324 324 326 325 326 325 324 326 321 321 333 327 325 324 324 324 325 325 322 322 323 323 323 323 325
306 308 308 307 312 313 313 313 312 310 310 311 311 313 309 307 307 314 320 319 318 322 325 324 326 327 324 325 325 325 325 326 326 324 326 326 327 327 337 326 326 324 324 324 323 322 322 325 324 323 322 322 323 324
306 309 307 307 312 313 313 312 312 313 313 313 309 306 309 311 316 317 321 317 319 325 324 322 325 327 325 324 325 328 325 326 327 328 325 325 333 326 325 322 322 323 323 323 321 320 320 320 321 320 321 321 322 322
307 308 307 307 310 311 311 308 308 307 307 307 309 314 319 315 322 317 317 320 321 323 327 328 323 330 327 325 328 328 327 326 333 326 325 327 329 328 324 321 324 322 320 319 318 318 318 318 318 317 318 318 319 321
308 307 307 308 309 309 307 306 307 308 307 310 317 325 323 320 321 321 319 319 319 318 319 325 327 330 327 326 327 327 327 327 328 325 326 324 325 329 328 323 322 321 320 318 318 319 319 319 319 319 318 317 317 318
307 306 307 307 308 309 307 307 307 308 315 314 315 321 320 319 322 321 323 320 321 321 322 321 323 326 327 328 329 328 326 325 326 325 325 324 326 331 324 322 321 321 320 319 319 319 317 316 317 317 317 318 319 318
306 306 306 307 308 309 308 307 307 307 311 316 318 320 323 322 326 325 324 323 322 321 322 322 322 329 328 326 327 326 325 325 323 325 324 324 332 327 326 322 320 319 319 319 319 318 317 317 317 318 319 319 319 319
305 306 306 310 309 309 308 308 308 309 315 321 320 319 322 323 323 323 323 322 322 322 322 322 323 326 325 325 326 326 324 324 325 325 326 326 333 329 326 322 321 321 321 321 320 318 317 318 318 318 319 319 319 319
305 306 308 310 309 310 309 309 307 310 315 320 320 323 322 322 323 323 323 322 323 322 324 323 325 324 325 326 325 325 325 326 325 326 325 330 332 331 330 326 323 322 322 322 319 318 317 317 318 317 318 318 318 318
306 307 310 309 309 309 309 307 306 309 312 316 320 325 324 323 324 324 324 323 324 326 325 324 324 325 327 325 324 324 325 326 325 326 330 334 336 334 334 328 327 324 322 321 319 318 317 316 317 316 316 316 317 316
306 310 309 308 309 310 309 311 311 313 315 317 322 322 322 325 325 325 325 327 325 325 324 325 325 326 326 326 324 325 325 325 325 327 330 337 339 337 331 328 325 323 323 320 319 318 317 316 316 317 317 317 316 315
309 311 309 309 309 310 310 310 315 317 318 318 319 321 320 324 323 326 326 328 326 329 327 326 326 326 325 327 326 326 328 329 332 333 333 337 338 335 327 329 325 324 323 321 319 318 317 316 318 318 316 314 314 314
310 309 310 310 310 310 313 313 313 318 318 318 321 320 319 322 325 327 327 328 327 329 327 329 328 329 327 327 328 327 327 326 327 329 332 332 330 329 327 325 324 323 323 321 320 318 317 316 316 316 316 316 315 315
307 308 308 309 309 312 316 318 315 317 319 320 319 319 320 319 324 326 324 327 328 328 327 329 328 327 329 328 328 328 329 330 328 329 330 329 329 328 328 324 323 323 322 321 319 318 317 317 317 316 315 316 315 313
309 310 310 309 310 311 316 319 320 318 319 318 319 319 319 319 319 323 323 326 325 326 326 326 327 326 325 328 329 326 331 328 328 329 330 327 326 327 326 324 323 322 322 320 320 319 317 318 318 317 315 316 315 312
312 312 313 310 314 316 317 316 320 319 322 322 322 322 320 320 320 320 322 324 324 324 325 325 327 328 328 332 332 329 332 330 329 328 325 324 326 326 325 323 323 323 322 320 320 320 319 316 317 317 313 312 311 312
311 313 314 315 316 316 318 316 321 320 320 323 322 322 322 321 321 321 321 323 325 325 326 327 336 332 332 331 330 330 327 328 328 325 323 326 327 325 325 325 322 322 319 318 317 316 316 314 313 312 312 313 313 311
311 315 317 317 318 318 317 320 320 320 320 320 321 320 320 320 321 323 323 324 324 323 326 333 326 325 326 331 326 325 326 329 329 328 328 328 328 323 323 319 319 318 318 318 318 316 314 313 312 312 313 313 312 312
312 312 318 318 319 318 319 321 321 322 321 322 321 321 321 323 323 324 323 322 320 321 326 330 329 329 331 329 330 328 326 327 325 325 326 325 323 323 320 319 320 320 318 317 317 317 314 314 313 313 313 311 312 312
316 316 316 319 319 319 319 321 322 323 324 322 323 323 325 326 323 323 325 331 331 330 330 330 331 332 333 330 333 327 328 326 325 326 324 322 321 322 322 322 321 320 319 318 317 317 315 314 314 314 313 312 311 311
315 319 319 318 319 318 319 321 323 325 324 325 325 327 326 324 325 330 334 331 330 328 327 326 328 329 329 329 328 325 323 321 320 319 318 318 319 318 320 320 320 319 318 317 316 316 315 315 315 315 314 313 312 310
317 319 320 319 319 319 320 323 323 325 326 325 323 324 324 326 328 329 327 318 318 326 324 324 324 324 324 324 323 321 319 319 319 318 319 318 318 317 317 317 316 315 317 315 316 316 315 316 315 315 313 311 311 311
320 319 319 318 318 318 318 320 325 324 323 323 326 327 327 326 324 326 326 325 324 323 323 322 322 321 320 320 320 320 319 319 320 320 321 320 319 317 317 316 316 316 316 316 314 314 314 316 316 314 313 311 310 311
317 317 317 317 317 317 319 323 324 322 321 322 322 324 327 327 325 324 324 323 322 322 321 320 320 321 320 320 320 319 319 319 317 319 320 319 317 316 315 314 313 313 313 313 313 312 312 314 315 314 313 311 311 312
317 316 316 317 318 318 319 321 321 322 324 324 324 325 328 326 323 322 321 320 320 320 319 319 317 317 319 319 319 318 317 316 315 315 313 313 313 313 313 313 313 312 312 311 311 311 311 311 311 312 312 312 311 311
316 318 317 317 318 318 319 320 322 325 322 322 322 326 328 329 326 323 322 322 319 317 316 317 315 315 315 315 315 314 313 315 314 313 313 314 314 314 313 313 312 312 312 311 310 310 311 310 310 310 310 311 311 311
319 318 318 319 320 319 318 320 321 322 324 325 328 324 325 327 326 322 321 320 319 318 317 316 315 315 315 315 315 315 314 311 309 309 309 310 311 312 312 312 312 312 311 310 310 310 309 309 309 310 310 310 310 311

GFSWCAN_925_thetae_117.txt.gz
Theta_e
316 316 313 311 311 312 312 313 313 312 312 311 311 311 312 312 312 312 313 318 322 330 330 330 327 324 324 322 325 327 326 324 322 324 325 330 334 328 332 333 332 326 328 333 331 332 336 330 332 332 331 332 333 341
316 314 312 310 310 310 311 313 313 313 313 312 311 311 312 312 312 312 311 319 323 328 330 327 325 322 321 320 320 321 327 330 328 326 328 329 329 324 324 327 329 330 327 331 331 330 331 330 330 326 327 330 329 337
315 313 311 309 309 309 310 313 312 312 312 312 312 311 311 312 312 312 312 312 321 327 326 326 326 323 320 319 319 321 324 327 329 325 325 327 332 327 329 330 328 330 328 324 330 330 331 328 328 327 327 328 330 335
314 313 310 308 310 309 312 312 313 312 312 311 312 311 311 312 312 312 311 316 316 325 329 324 324 322 320 321 320 320 321 322 323 323 324 322 324 327 328 328 328 329 329 326 325 329 329 329 326 325 327 327 329 333
314 310 308 308 310 308 312 312 313 311 311 311 311 311 311 312 312 311 311 310 314 323 334 331 325 322 322 321 320 321 324 325 325 325 325 324 331 330 327 324 323 326 330 327 333 332 331 330 327 325 325 325 327 334
312 308 307 309 309 309 313 313 313 312 311 311 311 311 312 312 312 309 321 315 314 320 330 331 325 326 323 321 321 323 325 325 326 326 326 329 327 327 327 328 329 326 327 328 332 329 331 328 326 324 323 325 325 333
311 308 307 309 308 310 312 313 314 312 311 312 311 312 312 312 311 313 322 321 319 320 330 332 329 325 324 323 324 324 324 325 327 327 329 326 326 323 322 326 330 329 326 326 324 326 326 325 323 324 322 324 321 331
309 307 307 309 308 311 312 313 312 312 310 311 311 311 312 311 308 309 312 317 318 322 326 331 330 327 324 325 326 325 327 328 328 325 328 327 328 330 328 328 327 327 326 324 323 323 322 325 324 324 322 321 323 330
308 306 308 308 307 311 311 310 309 310 312 313 312 309 308 308 314 314 315 321 318 323 331 326 330 333 325 326 327 328 328 328 330 329 329 328 326 319 324 326 324 325 323 324 323 322 321 321 325 322 320 321 321 328
306 306 308 307 308 310 310 307 308 307 308 307 308 312 319 315 316 319 316 325 325 326 330 331 328 332 328 327 330 330 330 330 332 331 328 329 333 328 328 325 325 327 322 321 321 321 318 318 318 318 318 317 318 322
305 306 307 307 307 309 309 307 307 308 307 311 316 324 323 320 321 324 325 325 322 321 323 327 328 331 326 330 332 331 331 329 330 329 329 330 327 329 328 325 325 325 321 320 319 320 319 320 320 320 318 318 318 318
305 307 306 307 308 308 309 307 307 308 313 311 311 317 320 323 325 324 326 323 324 321 323 318 322 326 328 329 332 331 329 329 328 329 329 330 330 331 327 326 324 323 321 320 319 319 318 317 317 318 318 319 319 318
304 306 306 306 307 308 309 308 307 307 309 315 318 320 322 321 323 325 325 325 325 323 323 321 320 330 329 328 331 332 328 330 328 328 329 328 332 330 328 324 323 322 321 320 321 319 317 317 317 318 318 322 321 322
304 304 306 306 309 309 309 308 309 310 315 319 321 320 323 323 324 325 324 324 322 323 321 323 322 333 331 331 330 330 328 327 328 329 328 330 329 327 325 323 322 322 321 321 322 319 318 319 318 318 320 319 320 319
305 305 306 309 309 309 309 309 309 312 315 319 319 320 321 321 321 322 324 325 324 322 325 325 323 328 329 328 328 327 328 327 328 328 327 329 328 327 327 325 323 322 322 322 321 320 318 319 318 319 320 319 318 318
307 306 307 309 309 309 309 307 308 311 313 316 319 322 323 324 323 322 324 326 324 326 327 327 328 329 329 329 328 328 325 328 328 333 331 329 330 329 329 328 326 324 323 323 321 320 318 318 319 319 318 319 318 317
307 309 310 308 309 309 307 309 309 312 315 316 319 318 320 322 325 324 326 327 326 330 329 329 328 328 330 329 328 326 325 328 335 330 329 332 334 335 334 332 330 328 326 323 321 320 319 317 318 317 319 318 317 316
308 311 308 308 309 309 310 310 313 314 316 316 318 319 321 323 323 325 326 326 327 328 327 329 329 329 329 328 328 327 330 334 335 334 334 337 337 336 333 333 331 328 326 323 322 320 319 318 319 318 318 317 317 315
310 309 309 309 310 310 312 311 312 317 319 319 319 318 319 321 321 325 326 325 327 326 327 329 332 328 328 332 332 333 332 334 336 336 336 336 336 335 333 330 329 327 325 323 323 321 320 317 319 318 317 316 315 315
306 308 308 309 310 311 314 315 314 316 318 321 319 318 319 321 325 326 323 324 328 328 329 331 330 331 333 335 334 332 333 331 332 332 335 334 334 333 332 330 328 326 326 324 322 321 320 319 317 318 316 316 316 315
307 308 308 308 309 309 313 317 319 319 320 321 322 322 321 322 325 327 327 325 326 325 325 329 328 330 332 335 332 331 329 327 327 328 329 329 330 330 330 329 326 325 324 323 321 320 319 319 317 317 317 316 315 315
310 311 310 309 311 314 316 316 319 320 321 323 323 325 324 324 323 323 324 326 327 327 328 332 335 334 331 333 330 328 323 318 318 319 320 325 327 330 329 328 326 325 324 322 321 320 319 318 318 318 317 316 316 314
311 312 313 312 314 314 314 316 320 319 322 324 323 324 325 326 324 324 325 325 326 330 329 331 333 335 337 333 332 330 326 323 322 324 328 329 327 327 323 325 325 322 318 318 319 320 318 318 317 317 316 316 314 312
311 313 316 317 316 315 318 322 319 321 323 324 323 323 324 326 326 327 326 323 326 329 331 335 335 334 335 335 335 332 331 328 329 328 326 325 325 322 321 320 320 320 320 318 319 319 317 316 316 313 315 313 311 311
313 312 315 313 318 319 319 321 321 321 322 323 323 323 326 327 326 325 326 326 326 326 330 335 332 332 332 332 330 330 326 327 326 326 326 325 322 321 322 321 320 318 318 318 317 316 316 316 316 312 313 313 313 312
311 315 315 319 318 319 320 323 323 322 322 324 323 325 325 329 327 325 330 328 324 324 331 331 332 331 329 330 331 329 327 327 325 328 325 323 322 322 322 322 322 321 319 318 317 316 317 317 317 314 314 313 312 313
315 317 318 319 318 320 322 322 324 325 325 325 327 327 326 325 326 331 326 320 322 319 323 327 327 329 328 327 325 324 322 321 322 322 320 319 318 317 317 320 321 320 320 318 317 316 317 317 316 315 315 314 313 312
315 318 322 320 320 320 320 322 323 326 326 328 328 327 328 328 330 329 326 320 321 323 324 326 324 324 326 325 322 320 320 320 319 319 319 318 317 318 319 319 318 318 318 317 316 316 316 315 314 314 313 312 313 313
319 319 319 321 320 319 319 320 324 325 323 324 328 325 324 323 324 328 319 319 320 324 324 323 321 320 320 320 320 320 320 319 320 322 322 321 320 318 317 317 315 315 316 316 316 316 315 315 315 312 313 313 313 313
318 319 320 319 319 318 319 321 326 322 322 322 321 320 319 319 318 322 323 323 323 324 323 322 321 321 321 320 320 321 320 320 320 320 321 319 318 317 316 316 313 313 314 317 316 314 313 314 314 315 315 313 311 311
317 317 317 317 318 318 322 321 322 321 320 323 324 324 325 325 323 323 323 322 322 320 320 320 320 320 320 319 318 318 317 315 315 314 314 315 315 314 313 313 313 312 312 311 312 312 314 316 315 314 312 312 311 311
317 317 317 317 319 322 324 324 324 323 323 323 324 325 327 328 328 327 322 322 319 317 317 316 316 317 316 316 315 314 313 312 312 312 312 313 313 314 314 313 313 312 312 311 311 310 311 310 310 312 313 313 313 312
318 319 318 319 320 320 320 323 324 325 324 324 326 326 326 328 327 326 322 320 318 318 317 316 315 315 315 315 314 313 311 310 309 309 309 310 311 311 312 312 312 312 312 311 310 310 310 309 309 310 311 311 312 312

GFSWCAN_925_thetae_123.txt.gz
Theta_e
317 315 314 315 316 313 311 309 310 310 312 312 311 311 311 311 311 311 312 313 313 316 319 323 323 326 322 315 319 318 319 319 313 314 315 321 324 324 324 323 325 317 322 323 322 326 327 326 328 329 324 326 328 337
315 314 313 314 314 312 311 309 310 311 312 312 312 311 311 311 311 311 311 312 313 312 316 323 324 324 322 321 317 313 317 318 316 317 317 319 321 321 318 319 320 321 320 322 321 322 319 324 325 324 323 330 334 334
314 313 313 314 314 311 309 309 309 311 312 312 313 311 310 311 311 311 311 312 313 316 319 318 319 319 322 321 320 317 317 317 316 312 317 318 321 316 320 320 324 323 317 322 320 320 324 326 326 323 324 331 332 328
312 312 312 313 313 310 308 309 308 312 313 313 313 312 311 311 311 311 311 312 312 312 321 321 324 324 321 318 319 320 317 315 312 310 311 311 313 313 317 320 321 320 318 321 322 324 324 325 325 323 329 331 331 329
311 312 311 311 310 308 308 308 308 312 313 313 313 311 311 310 311 311 311 312 312 313 323 320 321 323 319 318 319 319 317 314 313 312 313 314 312 318 314 315 315 318 318 321 324 320 321 323 323 322 331 332 331 331
312 312 311 311 310 307 308 308 310 312 312 312 312 312 312 311 311 311 308 313 312 311 317 324 320 321 322 319 319 316 315 313 313 315 316 317 317 315 317 318 318 318 318 314 322 319 321 322 321 320 324 330 330 329
310 311 311 311 308 307 309 307 311 311 309 312 311 312 311 311 311 309 310 311 311 311 318 325 323 318 321 317 315 315 315 313 314 315 317 318 316 312 313 317 319 320 323 323 322 322 325 323 322 318 325 330 330 329
309 310 310 309 307 307 308 308 311 309 308 310 311 311 311 311 311 312 313 313 312 311 318 324 323 320 318 316 318 313 316 315 315 314 316 318 318 313 315 313 314 318 321 320 320 320 321 319 319 318 322 329 328 327
308 310 310 309 306 308 307 308 310 308 308 307 309 311 310 309 306 310 311 315 314 316 320 320 323 324 318 316 315 317 314 319 315 318 317 319 314 317 318 316 319 319 319 319 317 317 318 319 317 316 323 327 325 325
309 310 310 307 307 307 307 308 310 308 308 307 306 307 309 311 315 317 318 316 316 315 318 323 319 322 319 317 320 321 317 319 322 320 316 321 319 317 316 314 317 316 316 315 316 317 315 317 318 317 314 317 321 322
309 309 309 305 307 307 307 308 309 308 307 309 310 313 317 319 317 314 317 317 316 318 317 321 319 321 318 323 320 319 321 321 322 320 323 319 320 318 317 315 314 313 313 314 315 315 312 311 311 311 312 312 313 322
309 309 307 305 306 306 308 308 309 308 311 308 308 313 317 317 318 321 320 318 316 316 314 318 319 319 321 321 323 321 325 322 322 317 320 321 317 315 317 318 315 312 314 313 314 313 312 312 313 313 313 314 316 321
309 308 305 305 307 306 306 309 309 308 308 312 315 319 318 316 317 323 322 320 317 316 313 315 322 321 320 321 325 325 328 325 317 322 323 319 315 317 318 316 315 314 313 314 313 314 314 314 314 314 314 315 316 320
309 307 305 304 306 306 308 309 309 309 310 316 319 316 321 321 318 318 319 318 316 316 315 311 317 321 320 323 323 328 326 319 322 322 321 316 316 316 317 316 315 314 313 313 313 313 313 314 314 315 316 318 319 320
307 306 305 304 305 308 309 309 309 309 313 317 318 320 320 317 316 316 316 316 318 319 316 313 315 321 321 325 324 325 326 325 321 320 316 315 313 317 317 314 314 313 312 312 313 312 313 314 315 317 318 319 320 321
306 305 306 306 307 309 309 308 308 311 313 316 317 319 318 316 317 318 319 320 319 321 318 316 317 321 323 321 323 324 325 324 320 316 314 314 315 316 316 314 313 313 313 313 314 313 314 314 313 316 318 318 319 320
306 307 309 309 308 308 308 307 308 311 315 316 316 314 313 314 316 316 318 319 319 323 323 324 326 323 320 323 322 321 321 317 316 314 316 317 316 315 314 314 312 313 312 313 314 314 314 315 315 315 314 316 317 318
308 309 309 308 309 308 307 308 312 313 316 314 312 312 312 312 314 317 318 318 320 323 324 325 323 326 327 327 323 318 316 314 317 317 317 317 315 313 316 315 315 315 314 314 315 315 314 313 313 315 317 317 315 315
309 309 309 309 309 310 311 311 311 314 316 313 310 309 315 314 315 319 320 320 320 322 323 323 325 326 325 321 323 321 318 322 323 321 320 319 317 316 316 317 317 318 318 317 315 314 314 314 314 315 316 316 314 314
308 308 308 309 309 310 313 313 311 313 315 314 312 316 316 316 316 317 319 319 322 323 325 325 326 324 324 322 320 321 320 319 323 325 324 322 323 322 321 320 320 321 322 322 320 317 315 313 314 314 315 315 314 313
305 306 308 308 309 309 311 313 315 315 312 313 314 316 316 313 316 322 323 322 324 324 324 323 324 321 321 319 320 322 318 320 323 322 323 324 323 326 326 327 326 324 321 319 316 316 315 315 315 313 314 314 315 315
307 307 308 307 309 312 313 311 313 315 316 319 317 315 318 319 319 322 321 323 324 324 322 320 317 318 321 324 323 323 322 321 318 319 321 322 321 321 321 323 323 321 320 319 318 317 317 317 316 315 315 315 316 316
308 309 310 309 312 311 312 313 317 317 319 321 321 320 319 319 317 319 321 321 322 320 319 317 318 320 320 322 323 322 323 322 316 314 316 318 321 321 321 321 322 318 315 318 319 319 318 317 317 317 316 315 315 315
308 311 313 314 312 315 315 318 316 317 318 321 321 322 320 318 318 321 322 319 318 319 319 318 318 321 322 323 323 322 323 323 319 320 321 320 316 318 319 319 319 320 320 319 319 318 318 318 318 317 317 316 316 316
311 310 312 310 315 317 319 319 319 319 320 323 322 320 321 318 320 322 324 322 320 319 320 320 319 320 322 323 322 323 324 324 321 320 322 321 318 317 317 318 317 318 318 318 317 317 316 316 317 316 316 315 315 315
313 311 310 316 316 317 320 323 323 322 320 321 322 320 319 322 323 324 322 319 319 319 319 322 323 322 322 320 319 318 322 324 323 320 322 322 320 318 315 315 315 317 318 317 317 315 315 314 315 315 315 315 314 314
311 312 312 311 315 318 321 321 321 322 322 323 321 321 320 323 323 320 318 316 316 316 318 320 323 321 320 320 321 321 325 323 323 322 322 321 320 320 320 317 316 317 319 317 317 314 314 314 315 315 314 313 312 311
312 312 316 316 317 319 320 322 323 323 323 320 321 323 324 325 323 320 319 318 318 322 322 323 324 324 322 320 320 322 321 321 321 320 319 318 317 317 317 317 318 318 319 318 317 316 316 315 315 315 315 315 313 312
311 312 314 317 317 317 319 321 323 321 319 321 324 324 321 316 316 317 317 321 323 321 322 322 323 323 319 318 317 317 317 317 317 316 316 313 311 316 317 317 317 316 318 319 318 317 316 315 315 315 315 314 314 313
313 313 318 319 319 318 316 320 321 317 315 317 318 317 316 315 316 319 321 321 321 320 321 320 322 321 317 316 316 317 318 318 317 317 315 314 315 317 317 317 317 317 316 317 317 316 316 315 315 314 314 313 313 313
311 314 316 316 315 316 319 317 316 318 321 321 318 318 319 318 319 322 320 320 323 322 320 317 318 318 317 316 316 311 310 312 312 314 315 315 315 316 315 315 314 315 314 314 315 315 315 315 314 313 312 313 313 313
313 314 315 316 317 319 318 321 321 321 321 322 320 321 320 319 321 317 322 320 321 320 321 320 318 316 318 318 317 314 312 311 310 311 311 312 313 313 312 312 312 312 312 313 313 313 314 314 312 313 313 313 312 310
314 313 314 317 321 321 322 323 324 323 322 321 323 322 320 320 323 318 317 315 316 316 315 317 319 318 316 313 311 309 309 309 309 309 309 310 310 311 311 311 310 310 310 310 309 310 311 311 311 312 313 313 313 312

GFSWCAN_925_thetae_129.txt.gz
Theta_e
314 315 316 316 316 314 312 313 311 309 309 309 312 312 312 311 311 311 311 311 312 315 317 318 324 325 324 320 323 319 321 320 317 322 321 327 328 330 326 326 329 325 328 330 330 333 330 329 329 331 331 330 333 339
314 314 314 315 314 312 312 313 311 309 309 309 311 312 313 312 311 311 311 310 311 312 316 313 315 317 322 323 324 318 322 323 322 323 322 326 329 326 328 327 325 327 325 327 329 328 326 329 330 327 330 337 337 339
313 314 314 314 313 313 312 312 310 309 309 309 311 312 313 313 311 311 311 310 311 313 315 316 317 317 317 317 319 322 320 322 321 319 324 326 330 325 331 328 329 326 321 329 328 326 327 329 328 328 330 333 333 334
311 313 313 313 312 312 311 312 309 309 309 309 311 312 313 313 312 311 311 311 311 312 319 323 320 322 321 320 320 320 319 316 316 318 322 325 325 321 326 325 328 326 325 330 328 325 327 328 329 329 331 332 332 333
308 310 311 311 312 311 311 311 308 308 308 310 312 311 313 312 312 311 311 311 311 313 320 320 318 320 320 319 317 321 318 318 319 321 322 323 318 323 321 323 326 324 328 328 327 331 331 331 330 328 333 332 332 332
306 307 310 311 311 311 311 310 308 308 308 311 310 310 312 312 312 310 312 311 311 311 314 323 321 324 318 314 315 318 318 319 320 323 321 318 320 325 327 332 327 324 324 326 328 324 327 327 329 328 333 332 331 330
306 307 308 309 311 310 310 308 308 308 308 309 308 310 311 312 311 312 314 308 310 311 314 324 329 323 319 318 318 320 318 319 322 322 325 327 323 322 325 331 328 324 325 324 321 325 327 327 329 328 332 331 330 329
306 306 307 308 308 309 310 307 307 307 310 308 307 309 311 311 311 311 312 311 310 312 313 326 329 324 318 321 324 317 323 322 321 322 321 325 321 320 331 326 326 323 325 326 326 324 325 327 325 327 331 332 332 331
305 306 306 306 308 309 308 307 307 307 309 308 307 307 311 311 311 311 311 310 311 310 320 323 327 328 320 319 321 322 321 325 320 325 325 325 326 329 329 329 325 323 327 329 328 326 324 326 326 327 330 332 332 331
304 305 307 309 309 309 306 307 307 308 309 308 307 306 309 307 309 312 312 312 312 314 316 323 323 327 322 321 323 326 322 326 328 327 322 327 328 327 329 326 329 326 325 326 328 327 326 326 326 325 328 329 331 330
304 305 306 309 309 307 306 307 307 309 307 306 309 312 313 313 314 316 320 319 318 320 320 323 324 327 322 325 326 323 327 325 329 328 328 329 328 328 328 326 325 324 324 325 328 329 328 328 326 325 325 327 330 329
304 305 306 309 309 306 306 306 308 308 309 309 308 309 313 316 319 321 323 320 320 320 318 322 323 324 326 325 329 325 327 325 328 322 328 331 328 328 324 323 323 322 321 323 322 324 323 323 324 323 323 324 327 328
303 304 306 309 308 305 306 306 306 309 308 309 312 318 320 319 321 323 322 324 321 319 317 319 322 325 326 328 330 331 328 328 322 327 329 328 328 326 324 322 323 321 320 322 322 321 321 320 319 321 321 319 319 319
303 304 306 308 306 305 306 306 308 309 309 315 319 315 322 322 321 323 323 321 319 319 323 317 323 324 324 329 330 330 328 324 327 327 326 326 329 329 324 323 323 322 321 321 322 320 320 320 319 318 318 318 318 318
305 307 308 308 307 305 305 308 309 309 312 316 318 320 321 319 318 318 318 319 319 321 322 317 323 325 327 328 327 327 329 329 328 328 326 326 326 324 323 324 324 322 321 321 320 320 320 319 319 318 318 318 319 320
307 308 308 307 306 307 308 309 308 309 313 315 317 319 318 320 319 318 319 320 321 322 322 318 322 327 326 327 328 326 327 328 326 325 325 323 324 324 325 325 324 322 321 320 319 319 319 318 318 319 318 318 319 319
307 306 308 308 306 308 309 307 308 312 314 316 316 316 317 317 318 319 320 322 320 323 327 325 325 323 322 326 327 326 326 325 326 324 323 323 325 327 324 324 324 321 320 320 319 319 318 318 318 318 319 319 319 320
306 307 308 308 308 308 308 309 311 312 315 315 316 316 314 315 316 318 318 319 321 323 325 325 326 327 327 326 324 324 323 322 324 323 322 322 323 325 323 324 323 321 320 319 319 319 318 317 317 318 319 319 319 319
307 307 308 308 309 308 309 309 310 314 315 315 314 313 313 314 314 315 317 319 321 321 324 325 325 325 325 326 327 327 327 327 328 328 327 326 325 324 323 321 321 321 320 319 319 318 318 318 318 318 318 317 318 318
308 308 309 308 309 309 312 313 310 312 313 314 315 315 315 315 315 315 315 318 320 323 325 325 325 324 328 327 326 327 326 325 326 329 329 327 325 321 321 321 321 321 320 319 318 316 318 317 317 316 317 317 317 318
308 308 308 308 309 309 311 313 314 313 314 315 315 316 318 317 318 320 321 320 321 323 323 323 322 322 326 326 324 325 324 323 325 326 327 328 325 324 323 322 321 321 322 322 323 323 319 322 322 319 317 317 317 317
306 307 308 308 309 311 312 311 313 313 315 316 317 318 320 319 320 320 321 322 322 322 323 324 323 323 325 325 324 323 324 323 322 321 318 320 327 327 327 326 328 329 328 327 327 327 326 324 321 320 318 318 316 317
307 308 309 309 310 311 311 312 314 316 317 320 320 322 322 321 320 320 321 321 323 324 321 320 320 322 323 322 322 323 323 323 325 322 321 323 322 323 324 324 325 326 326 322 321 322 321 318 317 319 318 318 318 318
307 309 312 312 311 312 313 315 315 317 318 320 321 323 322 321 322 324 325 323 324 321 320 319 320 322 322 323 325 325 323 323 324 324 324 325 325 322 322 321 321 321 321 321 321 321 320 318 319 320 319 319 318 318
310 309 311 309 314 314 316 318 318 320 320 320 321 322 323 321 325 324 326 326 325 324 323 322 321 323 323 325 326 324 323 323 324 326 323 323 321 319 318 318 318 318 318 319 319 319 318 319 319 319 319 319 319 318
309 311 309 314 316 316 317 319 320 321 321 321 322 321 322 325 325 325 326 322 323 322 322 323 323 323 325 325 327 325 324 323 325 326 322 321 321 320 320 322 322 320 317 318 317 317 317 318 318 318 318 317 316 316
311 313 313 311 312 315 318 319 319 321 323 323 324 323 324 324 323 325 324 321 322 321 319 320 322 323 326 324 323 322 322 322 324 324 321 320 319 319 320 318 318 318 316 316 317 316 317 317 317 317 316 315 315 315
311 313 314 315 316 318 318 320 321 323 322 322 323 323 324 325 326 325 323 320 318 320 320 320 320 322 322 322 322 320 319 320 320 319 319 319 319 319 317 317 317 317 318 317 318 316 316 316 316 316 316 316 316 316
310 312 313 315 317 318 320 320 322 323 321 322 324 325 324 321 320 321 320 321 322 322 320 319 318 319 319 318 319 319 319 319 318 318 317 317 317 316 316 317 317 316 318 318 317 317 318 317 317 317 316 316 315 315
311 311 316 318 320 321 321 319 320 319 319 319 319 322 321 320 318 318 322 321 322 322 319 318 317 317 318 319 318 317 317 317 317 317 316 315 315 316 316 316 317 317 317 318 318 317 317 316 316 315 315 315 315 315
312 313 316 317 318 319 321 320 320 320 322 320 319 322 323 322 320 320 320 321 320 320 318 317 316 317 318 318 319 319 317 311 310 311 312 313 314 316 318 317 316 316 317 317 317 316 316 316 316 316 316 315 315 313
313 315 317 318 321 320 320 321 322 323 323 324 324 323 323 324 322 322 320 321 321 321 320 319 318 317 316 316 316 311 310 309 308 308 309 310 311 312 313 313 314 315 316 316 315 314 314 314 314 314 314 314 314 314
315 316 316 317 323 322 322 323 323 324 323 324 325 323 322 324 325 322 314 316 321 322 321 320 318 317 317 316 310 309 308 307 307 307 308 309 310 310 310 311 311 312 312 311 310 310 310 311 311 312 311 312 311 311

GFSWCAN_925_thetae_132.txt.gz
Theta_e
314 314 314 315 315 315 315 313 313 313 310 309 309 311 312 312 311 312 314 311 314 320 320 319 321 327 328 324 323 322 319 320 320 323 323 325 325 329 327 327 327 326 327 327 328 330 331 330 331 333 335 335 335 337
313 314 314 314 314 314 314 312 312 312 309 309 309 311 312 313 312 311 313 312 312 314 319 317 318 319 321 323 327 322 325 322 323 324 325 326 326 329 325 326 330 326 324 328 326 331 333 331 332 331 332 335 336 334
310 312 313 313 313 313 313 312 312 310 309 309 308 311 312 312 313 311 313 311 311 314 319 319 319 317 317 317 320 325 323 325 325 328 326 326 327 326 327 326 326 329 327 326 329 328 330 331 331 331 333 330 328 328
308 310 311 312 313 312 312 311 311 309 309 309 308 311 312 312 314 312 312 312 311 315 321 322 322 322 319 318 318 319 323 323 325 327 327 326 326 328 324 328 328 329 330 328 329 329 331 332 331 332 331 329 329 328
306 306 309 310 312 312 312 311 311 309 308 308 309 311 310 312 313 312 312 312 312 316 321 323 318 320 322 321 322 321 321 324 325 326 326 326 326 327 327 327 323 329 327 330 326 328 328 327 331 331 331 331 331 329
306 306 307 308 311 311 311 311 311 308 308 308 310 309 309 312 312 311 313 313 312 311 318 323 323 326 324 321 323 324 325 325 325 326 326 326 327 327 325 327 325 325 327 328 328 330 329 330 327 330 331 331 330 329
306 306 306 307 309 310 311 311 309 308 308 308 309 308 309 311 312 313 315 312 312 311 318 325 327 327 320 320 322 325 324 325 326 325 324 325 327 324 323 325 324 325 327 329 329 329 331 329 329 329 330 330 329 328
305 305 306 306 307 308 309 310 308 307 307 309 309 307 311 311 312 312 313 311 311 313 317 326 329 328 321 324 325 324 325 325 326 325 326 326 327 326 333 325 325 325 327 329 329 328 326 328 329 330 329 331 331 330
304 305 306 306 307 307 308 309 307 307 307 309 308 307 311 311 312 315 312 310 312 315 322 326 330 327 323 324 325 325 325 325 326 325 326 327 329 338 327 326 326 328 329 327 328 329 328 328 329 330 331 332 330 330
304 304 305 306 307 309 310 307 307 307 308 308 308 308 309 311 312 311 313 318 317 318 318 323 326 330 325 324 324 325 324 326 328 327 328 327 327 328 326 325 328 327 328 327 329 332 330 330 328 329 331 330 329 328
303 304 305 306 309 309 308 306 307 308 308 308 308 311 313 311 314 318 322 321 320 323 322 323 325 329 325 326 326 326 326 327 327 327 327 327 329 327 327 328 328 328 328 327 327 327 327 326 328 329 329 328 327 326
303 304 305 306 309 309 306 306 307 309 310 310 310 310 311 316 319 323 323 323 324 323 322 323 324 325 328 328 327 327 326 327 325 328 327 328 328 328 328 328 329 331 329 328 327 328 327 324 326 327 327 328 327 327
303 303 304 305 308 309 306 306 306 308 308 308 312 316 321 321 323 322 322 324 323 322 321 321 323 324 331 332 330 330 327 327 327 327 327 327 326 328 330 328 328 328 328 327 327 327 325 325 327 326 323 322 324 325
302 303 304 305 309 307 305 306 306 308 309 313 319 322 324 323 322 323 322 321 323 321 325 323 322 324 326 330 329 328 328 328 328 328 328 327 327 330 330 328 328 328 328 327 327 326 325 326 325 324 323 322 323 324
303 304 305 307 308 306 304 306 308 309 312 316 319 325 322 320 321 321 322 322 322 323 327 322 323 324 326 327 328 329 330 330 328 327 326 326 331 331 330 329 329 328 328 327 326 325 324 325 324 324 322 322 321 322
303 307 307 308 308 306 305 308 309 312 313 316 317 320 320 323 322 322 321 323 322 324 325 323 323 322 324 325 327 327 328 329 327 327 325 327 332 331 331 330 329 327 328 326 324 323 322 324 322 321 321 321 321 322
305 307 307 307 306 308 309 310 311 314 315 317 317 318 319 321 322 321 321 323 322 324 325 325 325 321 322 324 324 324 325 324 326 325 326 332 332 332 331 331 330 327 327 325 324 323 323 323 321 321 323 321 321 322
307 309 308 307 307 309 308 311 311 313 315 316 318 318 319 319 319 320 319 320 321 322 324 323 325 325 322 321 322 323 324 325 326 328 328 331 333 332 330 330 329 327 327 325 324 324 324 323 323 323 322 322 323 322
308 308 308 308 308 309 310 310 312 314 315 315 316 316 317 317 317 317 317 318 318 322 325 326 324 323 324 324 326 327 327 327 327 328 329 332 332 332 331 329 329 329 327 326 325 324 323 323 322 322 322 322 323 322
306 308 308 309 309 310 312 313 311 314 315 316 316 316 317 317 317 317 317 317 318 323 324 324 323 322 323 323 325 326 328 328 329 327 327 330 330 328 329 327 327 327 327 325 324 322 323 323 323 322 322 322 322 323
308 308 308 308 309 310 312 313 313 313 316 316 317 317 319 318 318 319 320 318 319 321 322 322 323 323 322 323 326 326 327 327 328 328 329 329 328 327 325 326 326 325 325 324 324 323 320 323 323 324 324 323 322 322
307 308 308 309 310 311 313 313 315 315 317 317 318 318 319 319 321 320 324 321 321 321 321 322 323 322 323 324 324 324 325 328 328 325 322 325 330 330 329 328 328 329 328 329 330 329 330 329 327 327 326 326 323 323
307 308 310 310 312 313 313 313 316 316 316 319 320 321 322 323 323 323 323 322 322 322 323 324 323 322 323 321 322 324 325 325 329 327 326 327 327 328 328 328 328 329 329 328 327 327 325 323 322 324 323 323 323 323
308 310 311 312 311 313 314 316 315 316 318 320 321 322 323 325 325 325 325 326 328 326 323 322 321 322 322 324 326 327 324 325 328 328 327 327 328 328 327 326 325 325 324 324 323 322 322 322 322 322 321 321 321 321
309 310 311 310 314 314 316 317 318 319 320 320 320 322 325 325 327 327 326 328 327 325 324 325 325 325 326 326 327 326 325 325 327 328 328 328 328 324 323 321 321 321 321 320 320 320 320 320 320 319 319 319 319 319
312 311 311 314 316 316 317 319 319 320 321 322 323 323 326 327 325 325 327 327 327 324 323 326 326 326 326 326 329 329 325 324 325 326 324 324 324 322 322 321 321 320 319 318 318 317 317 316 317 317 317 317 316 316
312 312 313 313 312 314 317 318 317 317 323 324 324 326 327 325 325 329 326 324 326 324 322 322 323 326 327 326 324 324 324 326 327 327 324 323 322 321 320 318 316 317 316 316 315 315 315 315 315 316 316 316 316 315
311 313 315 316 316 317 318 318 320 324 324 324 325 325 325 326 328 327 325 323 324 324 322 322 324 325 325 325 326 326 325 324 322 321 321 320 319 317 315 314 315 316 315 315 315 315 315 315 315 316 317 316 316 316
313 313 314 316 316 317 319 320 322 323 323 324 326 325 326 324 324 326 325 324 324 324 324 324 324 325 324 324 323 323 322 321 320 319 317 317 317 315 315 315 316 317 317 317 316 318 319 317 316 316 316 315 315 315
312 311 316 318 319 319 320 319 321 321 322 322 324 325 325 323 323 324 325 325 324 322 321 320 319 319 319 319 319 319 317 316 315 314 315 315 314 314 315 316 316 316 315 316 316 316 316 316 317 317 316 315 314 313
314 315 316 317 320 320 322 322 323 322 324 321 322 325 326 326 324 323 322 321 320 318 318 317 317 317 317 318 318 318 317 315 315 315 315 316 316 316 316 315 316 316 316 316 315 314 314 314 314 314 314 314 315 315
315 316 319 320 322 321 321 322 323 324 325 325 325 325 324 324 323 326 324 321 319 319 318 318 319 320 319 317 313 312 312 312 312 312 313 314 316 317 317 318 317 316 317 318 316 314 314 313 313 314 313 314 314 314
317 318 319 319 321 321 322 323 324 324 324 324 324 323 323 322 323 322 318 322 320 319 319 319 319 319 316 313 312 311 309 308 307 308 308 309 311 313 315 315 316 316 315 314 313 312 312 312 313 313 313 313 313 312

GFSWCAN_925_thetae_135.txt.gz
Theta_e
313 313 314 314 315 316 316 315 315 313 313 310 309 309 311 312 312 313 316 315 316 321 322 322 323 324 328 330 329 325 323 322 322 325 326 326 327 330 326 325 328 328 329 327 327 328 333 332 330 328 338 335 336 336
311 312 313 314 314 315 315 314 314 312 312 309 309 309 311 312 313 312 315 315 314 315 320 318 319 320 322 327 329 325 323 322 322 323 326 326 328 327 329 327 327 326 325 327 330 337 333 331 332 333 333 334 335 336
308 309 311 313 313 314 314 313 313 312 311 309 309 309 311 312 312 313 316 315 313 316 321 321 321 318 318 321 324 330 325 326 325 328 327 328 328 329 328 329 330 329 327 326 326 327 328 328 329 328 331 332 331 330
306 307 308 310 312 313 313 313 312 312 311 309 308 308 311 311 311 313 314 314 313 315 322 322 322 320 319 318 322 323 325 325 327 326 325 328 328 329 328 328 330 331 330 329 327 331 329 328 328 328 329 329 328 327
306 306 306 307 310 311 312 312 311 311 311 308 308 308 311 310 312 313 313 314 313 315 322 324 320 321 322 320 321 322 322 324 326 324 326 326 328 330 328 326 326 325 327 329 327 329 331 326 329 327 329 329 329 329
305 306 306 306 308 310 311 312 311 312 310 308 308 309 309 309 312 313 315 315 314 312 319 324 322 326 322 321 322 324 324 325 327 327 326 326 329 329 325 327 327 326 325 326 329 329 329 326 328 327 328 328 329 329
305 305 306 306 307 309 311 311 311 310 308 308 308 309 308 309 312 314 316 313 313 312 318 324 325 325 326 323 324 325 324 326 328 327 328 331 331 325 325 327 326 325 325 326 326 329 329 328 326 327 327 328 328 328
304 304 305 306 306 307 309 309 310 309 307 307 309 308 308 311 311 312 313 311 312 314 319 325 327 328 323 322 324 325 328 328 328 328 327 327 331 329 335 327 327 326 325 326 326 328 326 327 327 327 327 328 330 328
304 304 305 305 306 307 308 308 310 308 307 307 309 308 310 311 313 314 314 312 313 315 324 325 328 329 324 325 324 326 326 328 326 327 328 327 329 344 330 328 326 326 326 327 327 328 327 326 327 327 328 328 329 328
304 304 304 305 306 307 308 308 309 307 307 308 310 309 311 314 314 312 313 317 316 319 321 325 326 334 324 326 326 326 326 326 328 328 326 329 330 329 329 330 327 327 326 326 327 327 328 328 326 327 328 328 329 327
304 304 304 304 306 308 310 309 307 307 308 311 310 311 312 311 314 318 323 324 322 322 322 322 324 328 327 327 325 325 326 326 332 329 329 329 328 328 329 329 328 327 327 326 327 327 328 327 327 328 328 328 327 327
303 303 303 304 305 308 309 306 306 309 312 311 310 311 311 315 319 323 325 323 323 323 324 324 323 327 328 329 328 330 330 332 329 326 328 330 328 328 329 328 328 328 327 327 326 327 327 327 326 327 327 328 327 327
303 303 303 304 305 308 308 306 306 308 309 309 311 313 319 320 322 324 325 325 323 323 323 323 325 325 329 328 329 332 326 329 327 328 328 328 331 329 328 328 327 328 329 329 328 326 327 327 324 326 327 327 327 326
303 303 303 303 305 308 307 306 306 307 309 312 317 320 322 324 324 324 323 323 322 323 322 322 324 325 326 328 326 327 326 327 328 327 327 327 332 329 328 329 328 328 328 328 328 328 328 327 325 326 326 324 322 325
302 303 303 304 305 308 306 305 306 308 310 314 318 324 322 322 322 323 323 324 324 323 325 324 324 324 327 328 326 327 328 328 325 326 327 332 332 330 330 330 329 328 327 328 328 329 328 325 325 325 323 322 323 324
303 304 306 307 308 308 305 305 309 311 313 315 317 321 322 323 324 323 322 323 325 322 324 325 323 323 325 325 326 326 324 328 328 328 329 332 336 333 332 330 328 328 328 328 328 327 325 324 325 324 323 323 323 323
303 306 308 308 307 306 306 310 312 313 316 318 319 319 320 322 324 325 323 325 323 327 324 324 325 323 322 323 324 324 324 327 326 328 330 335 336 336 333 331 328 327 328 327 326 324 324 324 324 323 325 323 323 323
304 309 307 308 307 308 309 309 312 314 317 318 319 318 319 320 322 322 320 321 323 325 325 325 326 326 322 322 324 324 326 326 326 329 329 334 336 335 332 333 329 328 327 326 325 324 324 325 325 324 324 323 323 323
307 309 308 307 308 310 311 311 314 316 317 316 316 317 316 318 318 319 319 320 320 322 326 326 324 323 323 323 325 327 327 326 328 330 329 333 333 333 333 332 332 329 328 327 327 326 326 325 325 324 324 324 325 325
305 307 308 307 308 311 313 315 312 316 317 317 316 316 317 317 318 318 318 319 319 321 324 324 323 323 323 326 328 329 329 328 327 326 325 328 330 332 332 331 330 331 329 328 327 325 326 326 325 325 324 324 325 325
305 307 308 308 309 311 312 314 315 315 317 318 318 319 320 320 319 318 319 319 319 320 322 322 322 324 325 327 327 328 328 327 328 329 330 327 329 329 329 329 330 330 330 328 327 325 323 326 325 325 325 324 324 324
307 308 309 308 310 311 314 314 316 318 318 319 320 319 321 320 320 321 319 320 321 320 320 321 322 324 327 325 324 324 324 327 327 326 325 326 331 331 329 327 328 328 327 327 325 325 325 326 329 330 329 329 328 327
308 309 309 311 313 316 316 315 317 317 318 319 321 322 323 323 325 321 322 322 322 321 322 322 325 324 325 324 323 323 324 326 329 327 326 327 328 329 330 330 330 331 331 330 329 329 329 326 325 327 326 326 326 326
309 311 312 313 314 313 314 317 317 317 318 320 320 322 323 325 326 325 326 328 330 326 326 326 325 325 325 325 324 325 324 325 325 325 327 326 329 330 329 328 328 328 328 327 326 326 325 324 322 324 323 322 321 321
310 311 312 311 315 315 317 318 319 319 320 321 322 323 326 328 328 327 328 329 327 327 326 325 325 325 327 328 328 327 326 325 326 329 326 327 328 327 326 325 324 324 323 323 322 322 321 321 320 320 319 319 318 319
311 313 316 315 317 317 317 319 320 320 321 321 323 324 327 328 327 328 328 328 328 326 326 327 328 328 329 330 330 329 326 324 324 327 326 326 326 325 325 324 323 321 320 320 319 318 318 317 317 317 318 317 315 317
313 314 315 314 315 314 317 318 318 318 319 324 326 326 327 327 327 329 329 328 329 326 325 325 327 328 330 325 323 323 324 324 323 323 323 325 325 324 323 323 321 319 318 317 316 316 316 316 316 316 316 316 316 315
312 314 316 317 316 317 318 319 318 323 325 327 327 327 327 328 330 329 328 326 326 324 326 327 326 327 325 323 325 324 324 327 326 325 324 323 322 319 316 316 316 315 316 316 316 316 316 316 315 315 315 315 315 315
314 314 315 317 317 318 318 318 321 324 325 326 328 328 329 328 329 329 326 325 323 327 328 326 326 326 326 326 325 325 324 324 323 323 322 320 318 315 315 314 315 316 315 313 315 316 315 315 315 315 314 314 314 314
315 314 316 318 316 316 316 319 321 321 323 325 325 327 328 329 327 326 326 325 325 324 325 325 325 324 324 323 322 320 318 317 316 316 317 317 316 315 316 317 317 316 316 316 315 312 310 312 313 314 315 316 314 315
315 315 316 317 320 321 320 322 323 323 325 325 324 327 328 326 324 324 324 322 319 318 318 318 318 317 317 317 318 318 318 317 318 317 317 317 316 316 316 316 316 316 316 315 315 315 315 314 314 314 314 314 315 315
317 318 320 321 323 321 321 324 324 325 325 326 327 326 325 324 321 321 318 321 318 318 318 319 319 318 317 316 315 314 314 315 315 315 316 316 317 317 317 317 317 316 316 316 316 315 315 315 313 313 313 313 314 313
317 318 320 321 321 321 322 324 325 325 325 326 324 323 323 321 323 323 323 322 320 319 319 319 318 316 315 313 312 311 310 309 309 310 310 312 314 315 316 316 316 316 316 315 315 314 314 314 314 314 313 313 312 312

GFSWCAN_925_thetae_138.txt.gz
Theta_e
310 312 313 314 314 315 316 316 316 315 314 313 310 310 310 311 312 313 316 317 317 321 321 321 322 325 325 327 332 332 330 325 325 328 325 326 328 328 329 327 327 329 329 325 326 330 336 334 333 338 339 336 336 338
307 310 311 312 313 314 315 315 315 314 313 312 310 310 309 311 312 313 316 317 315 316 319 317 318 320 321 323 326 331 327 330 325 324 325 327 329 329 332 330 327 330 328 328 329 333 335 333 335 333 332 334 336 337
306 307 308 309 312 313 313 314 313 313 312 311 309 309 309 311 312 312 315 317 316 316 320 321 321 318 317 320 322 332 327 326 326 324 326 326 330 332 332 332 329 329 332 329 330 334 332 332 330 329 329 332 332 331
305 306 306 307 308 311 313 313 313 312 311 310 309 309 309 311 312 311 315 317 315 315 321 323 322 322 321 319 320 325 327 327 327 329 328 330 332 331 332 330 331 331 331 331 330 330 329 328 327 328 328 329 329 328
305 305 306 306 306 309 311 312 312 312 311 311 309 309 309 310 310 311 315 316 316 315 321 322 319 320 323 321 320 322 325 327 328 328 326 327 328 329 330 329 331 329 333 330 329 331 337 334 329 327 328 328 328 328
304 305 306 306 306 307 309 311 312 312 311 310 309 308 309 310 309 313 317 317 316 314 317 324 322 322 323 322 321 321 325 326 326 328 325 325 328 330 331 332 331 329 328 329 332 331 330 330 330 328 327 328 328 328
302 304 305 306 306 306 308 311 311 311 311 308 308 308 309 309 310 315 317 313 315 313 316 325 323 322 324 323 323 323 324 325 326 327 327 328 332 330 332 335 332 327 326 326 326 327 331 328 327 327 327 327 327 328
302 303 304 305 306 306 307 309 310 310 309 308 308 309 309 308 310 312 313 312 314 313 317 326 326 329 327 325 325 324 327 327 328 327 330 330 332 335 335 335 328 327 326 326 326 327 327 328 327 326 327 327 329 327
302 303 304 304 305 306 307 308 309 309 308 308 308 309 309 311 313 314 314 314 313 315 321 325 326 335 327 324 324 324 326 328 328 331 332 329 334 332 333 334 329 327 327 325 326 326 326 326 328 328 328 327 330 329
302 303 304 304 305 306 307 308 308 308 307 308 310 313 313 313 313 313 314 316 317 317 319 324 324 330 328 328 327 325 326 328 330 330 330 329 329 333 336 333 335 329 327 326 326 330 328 327 326 326 326 327 328 329
304 304 304 304 304 306 308 310 309 307 308 311 313 313 313 311 314 317 322 323 321 324 323 322 321 331 326 332 333 329 328 331 331 331 331 331 331 333 336 334 338 335 328 327 326 327 327 328 329 326 327 328 327 328
304 304 303 303 304 305 308 309 307 308 311 311 312 311 312 315 317 321 326 325 324 324 324 324 322 325 330 332 330 332 330 330 334 330 327 330 332 337 329 329 331 333 327 327 326 327 327 328 327 329 331 329 327 328
304 303 303 303 304 305 308 307 306 308 309 310 311 312 316 319 322 325 326 326 326 324 324 324 324 323 332 328 332 332 331 331 331 331 332 331 338 333 330 330 328 329 327 327 327 326 327 327 326 326 328 327 327 327
303 303 303 303 303 305 308 307 306 307 310 312 315 317 319 322 323 324 325 325 326 324 325 323 323 325 325 327 330 329 330 331 332 334 331 328 340 337 334 328 328 328 328 328 330 328 328 329 327 325 326 328 328 328
303 303 303 303 304 305 308 306 306 308 310 314 315 321 321 321 323 324 324 326 325 325 326 324 325 325 329 330 325 329 331 331 328 327 332 334 341 332 336 332 329 329 329 328 329 329 328 329 327 325 327 327 325 325
302 303 304 305 306 306 307 305 307 310 312 314 317 320 322 324 325 326 325 325 324 326 326 325 325 326 328 332 326 329 326 326 329 333 332 337 341 336 338 333 331 329 328 328 328 329 329 329 327 326 326 323 324 325
303 305 308 308 308 308 306 308 310 313 315 318 319 318 319 320 324 324 325 325 324 325 327 327 328 327 324 326 325 325 326 328 332 331 324 326 333 343 332 330 329 331 331 330 331 331 330 326 325 327 331 326 324 325
305 308 308 307 307 307 307 308 312 315 317 317 318 318 320 321 323 322 322 322 326 326 326 327 326 329 325 325 326 325 324 325 329 330 332 331 330 337 334 332 328 329 331 331 330 328 327 327 329 327 327 326 325 326
306 307 308 307 310 311 311 311 312 315 316 316 316 317 317 317 320 321 320 323 321 324 326 327 326 325 325 325 327 329 331 328 329 328 328 327 323 336 333 332 331 331 331 331 330 326 326 327 326 325 325 325 325 324
303 305 307 308 308 311 313 315 312 316 317 317 317 317 317 318 318 318 319 320 321 323 323 324 324 323 323 323 330 329 328 325 330 334 328 324 330 333 334 332 332 331 330 330 328 327 327 327 327 326 326 326 326 326
305 308 308 308 308 309 312 314 316 317 317 319 319 322 319 319 319 319 319 319 321 322 321 321 322 323 326 328 327 326 329 329 329 332 332 329 329 328 330 330 330 330 331 329 329 328 326 328 327 326 326 325 325 325
309 307 308 308 310 311 313 313 317 319 320 320 321 321 321 321 322 321 320 320 320 321 321 322 322 323 327 331 329 326 322 326 330 328 325 325 330 331 333 328 327 328 330 331 329 328 327 329 329 330 331 330 330 329
308 309 310 311 312 313 314 314 318 317 319 321 321 322 323 324 324 323 322 322 321 321 321 323 325 323 328 324 326 326 326 326 326 326 326 325 325 325 320 332 329 332 334 330 328 331 328 327 326 328 327 327 327 327
308 311 311 313 314 316 315 318 318 319 319 321 322 322 323 325 327 326 325 326 330 325 326 326 326 325 326 328 331 327 325 324 325 325 325 327 329 332 328 329 328 329 329 328 328 327 327 324 323 325 324 323 322 321
311 310 312 314 315 315 317 318 319 320 320 321 323 324 325 326 329 328 329 328 327 325 326 326 325 325 326 326 327 326 324 325 329 331 327 329 328 329 328 326 325 325 325 324 324 323 323 323 322 321 320 318 318 319
310 313 315 316 317 317 318 319 321 320 320 322 323 325 328 329 328 328 330 329 327 328 326 327 328 330 330 330 330 331 328 325 326 330 327 327 326 325 324 327 324 323 322 322 321 320 320 319 318 319 318 316 315 316
314 315 316 314 318 317 318 319 319 319 320 323 326 328 329 329 329 331 330 330 329 328 327 326 327 330 330 329 328 327 326 325 325 327 326 325 323 322 323 325 322 321 320 319 317 317 316 317 317 317 317 317 316 316
314 314 316 317 318 318 319 320 320 321 324 325 327 328 329 329 332 331 331 327 327 327 327 327 326 326 324 324 324 326 325 322 321 322 323 325 323 324 320 318 316 316 317 317 317 316 316 316 316 316 315 315 315 315
315 314 315 317 318 319 319 320 320 323 324 328 329 329 330 330 330 330 327 325 327 328 328 327 325 324 324 324 322 321 322 324 324 326 326 326 322 317 316 315 316 316 316 316 316 314 316 316 316 315 314 314 315 315
315 315 317 319 318 318 318 318 320 321 323 326 326 328 330 330 327 325 325 326 326 328 327 326 326 326 326 325 325 325 325 323 321 320 319 318 317 316 316 317 317 317 316 315 314 312 310 311 311 312 315 316 316 315
317 316 317 317 317 320 318 319 320 322 324 326 325 328 328 329 326 325 324 324 323 323 322 323 323 322 322 320 319 319 318 318 318 318 317 316 316 317 317 317 317 317 317 317 317 315 316 315 315 315 315 315 315 315
317 319 320 321 322 321 323 323 325 326 326 328 327 327 325 324 325 321 321 322 319 320 319 319 319 318 318 317 316 316 316 316 315 315 314 317 318 318 317 317 317 317 318 317 317 316 316 316 314 314 314 314 314 314
319 320 320 321 323 323 323 325 326 324 325 327 325 325 320 320 321 321 321 321 320 320 319 317 316 315 314 313 312 311 311 310 309 309 310 311 314 314 316 316 317 317 317 316 315 316 315 315 315 314 314 313 312 311

GFSWCAN_925_thetae_144.txt.gz
Theta_e
304 305 306 307 309 310 311 313 314 315 315 314 314 313 311 310 310 312 313 317 317 316 316 316 315 316 318 321 327 325 328 329 324 322 323 323 325 326 326 326 326 322 325 323 320 327 338 331 331 334 332 335 336 335
304 304 305 307 307 308 310 312 314 314 314 314 313 313 310 310 310 312 312 316 316 315 315 316 315 315 314 316 319 322 327 329 327 325 324 325 326 327 328 330 326 327 324 326 324 327 324 329 328 330 335 335 336 333
304 304 305 306 306 306 307 311 313 313 313 312 312 311 310 309 309 311 312 312 315 316 316 314 315 316 317 315 315 322 324 324 324 324 325 324 326 326 329 330 329 326 326 327 328 331 331 331 325 328 334 335 336 332
303 303 304 305 305 305 306 309 311 313 312 311 311 311 309 309 309 311 311 313 312 315 318 314 315 314 314 314 316 316 321 321 321 323 325 326 328 327 328 329 328 326 327 327 326 326 326 329 327 329 332 329 325 324
300 301 302 304 305 306 306 306 309 311 311 310 311 310 310 309 309 310 310 310 311 316 317 315 314 315 318 315 316 316 317 321 323 325 325 328 326 325 323 325 326 327 328 325 324 323 323 324 326 326 325 324 322 323
300 301 301 302 304 305 306 306 308 310 310 310 311 310 309 308 309 311 313 314 314 315 315 318 313 313 316 318 316 315 316 319 324 326 325 324 325 321 325 327 326 326 324 326 329 324 322 324 324 324 325 323 322 321
300 302 303 302 304 305 305 306 307 308 309 310 310 309 308 308 309 310 314 314 315 315 314 318 316 317 322 318 315 314 315 318 322 325 326 325 327 324 325 328 327 325 325 325 325 322 322 323 322 324 325 325 324 322
300 303 303 302 303 304 305 306 307 307 308 309 309 308 308 309 308 309 312 312 313 313 313 319 319 322 324 325 321 316 317 317 320 323 324 329 324 322 326 325 327 324 325 326 323 320 321 320 320 323 323 325 325 323
299 303 303 303 304 304 304 305 307 308 308 309 308 308 308 309 310 313 314 314 313 313 318 320 324 328 324 327 325 320 319 321 319 323 322 325 326 320 323 326 325 325 324 323 323 323 324 324 324 323 323 324 325 323
299 301 303 303 304 304 304 305 306 307 308 308 308 310 312 313 313 313 314 314 314 315 314 318 317 321 325 326 328 324 320 322 325 323 322 327 326 322 322 322 321 323 324 323 323 322 321 324 324 324 322 323 325 323
299 301 304 304 304 303 304 305 307 309 308 308 310 312 313 313 313 314 319 318 317 319 317 317 317 317 325 327 329 327 329 327 329 326 327 327 327 328 324 323 321 322 323 324 321 320 320 319 321 322 321 324 323 324
298 300 304 304 303 304 304 305 309 308 309 310 309 310 312 313 314 318 322 321 321 322 320 321 319 316 322 322 327 326 329 327 330 328 329 328 325 323 324 325 323 322 325 326 324 323 323 323 322 321 320 320 326 325
298 301 304 303 303 303 304 305 308 308 309 310 310 312 314 315 317 321 322 325 325 325 324 324 324 323 322 320 324 327 330 332 327 329 332 328 322 323 324 325 325 323 327 327 324 324 324 326 326 323 322 324 327 326
299 303 304 303 303 303 303 305 307 307 307 312 314 311 317 319 319 321 322 326 324 323 324 324 326 325 322 325 326 329 329 330 333 332 332 331 330 328 327 327 329 326 326 325 324 323 324 324 324 326 327 328 328 328
299 303 303 303 302 303 303 305 307 307 309 313 314 315 317 315 316 317 321 322 324 324 324 323 326 324 329 329 328 327 330 330 328 331 331 329 331 334 331 326 327 326 323 321 321 323 324 323 324 325 328 328 329 330
302 303 303 305 303 303 303 306 306 307 310 312 313 316 315 316 319 320 320 321 322 322 321 322 324 325 328 327 329 329 329 329 327 327 327 329 329 331 330 330 329 323 323 322 322 322 324 324 321 323 328 328 329 330
303 303 305 305 304 305 305 306 306 308 311 314 313 312 314 314 315 319 319 318 320 320 326 325 326 327 324 326 327 325 325 326 327 323 324 327 330 330 327 325 327 327 325 322 323 326 325 325 323 325 320 323 325 327
303 305 307 307 306 306 307 306 309 312 314 313 314 314 314 315 316 317 320 320 320 320 323 326 322 325 328 329 328 327 327 324 323 323 324 323 324 323 325 324 325 327 325 327 328 328 327 323 323 320 322 325 328 327
304 305 305 308 308 308 307 307 309 313 314 311 312 312 312 313 314 314 315 319 320 319 320 320 325 325 324 324 328 328 324 323 322 322 322 322 321 323 324 325 326 328 329 329 326 324 324 325 325 325 325 324 325 326
303 303 303 307 307 308 312 311 310 313 314 312 312 312 313 313 312 313 315 315 317 319 320 323 322 322 322 321 320 324 323 323 319 319 318 317 321 322 324 325 326 327 330 327 325 325 325 325 327 326 325 326 326 326
303 304 307 307 307 308 309 311 314 313 312 313 313 314 315 315 315 314 314 314 318 320 320 317 316 315 320 322 323 323 322 320 319 317 318 319 320 323 325 324 327 328 328 326 322 324 325 323 326 326 325 324 323 324
305 307 308 307 309 309 310 309 310 311 313 314 314 315 317 318 317 316 314 316 316 314 315 316 315 315 319 323 322 323 322 324 320 318 318 320 323 323 323 321 324 323 323 323 324 325 325 327 327 327 327 327 327 326
307 307 309 308 310 310 309 311 313 315 317 318 319 320 319 318 318 316 318 316 315 314 313 315 317 319 318 322 324 325 326 324 319 317 320 322 323 321 319 321 325 322 321 322 324 325 324 326 326 326 325 325 324 325
307 308 309 311 310 311 311 315 315 316 318 319 320 322 321 321 319 320 322 319 318 319 316 317 317 317 319 320 322 322 324 324 324 324 325 321 321 323 325 326 325 323 323 322 323 323 324 323 324 325 326 325 325 324
308 308 309 307 311 314 317 317 317 318 319 320 321 320 320 321 323 324 325 323 322 321 322 322 321 320 321 322 321 322 324 325 321 322 325 325 324 323 323 324 324 324 323 322 323 321 321 322 324 320 320 323 323 321
309 310 309 314 314 315 316 319 319 319 318 320 320 321 322 323 326 326 323 326 324 323 323 322 322 322 321 319 320 321 323 325 324 322 324 323 323 322 321 322 323 323 325 325 325 326 323 320 316 314 314 315 316 318
310 312 312 310 313 315 316 318 318 317 320 321 322 324 325 328 329 323 323 322 321 323 325 324 323 322 322 322 325 325 325 325 324 324 324 324 322 322 321 321 322 323 323 323 324 321 318 317 316 315 316 316 315 315
311 313 316 316 316 315 318 319 319 321 322 321 321 327 323 330 328 325 323 324 326 325 325 324 325 325 325 325 325 326 325 325 324 325 325 324 322 321 322 322 319 321 318 317 316 316 317 316 316 316 315 314 314 315
313 314 314 315 316 317 318 319 319 320 319 319 321 327 327 325 325 325 325 325 323 324 323 323 322 324 324 324 325 324 323 322 321 321 320 320 320 322 321 317 316 316 316 317 316 316 315 315 315 315 315 315 315 315
312 312 314 316 319 319 317 316 317 319 318 319 321 323 323 323 323 324 325 324 323 323 324 325 322 321 319 321 320 322 323 323 323 321 320 321 321 317 316 316 316 315 315 314 315 314 313 314 315 315 315 315 314 313
316 315 316 317 318 317 316 314 314 316 320 322 322 324 324 323 323 323 323 323 324 324 324 324 324 325 324 322 321 320 320 323 323 320 322 321 318 317 316 316 317 316 313 314 311 312 312 314 315 315 314 314 314 312
317 317 318 319 320 319 318 320 322 323 324 324 324 322 324 325 325 324 324 324 323 323 324 322 316 313 314 321 323 321 316 313 314 316 319 319 315 315 315 316 316 315 314 313 314 314 314 314 315 314 314 314 312 308
318 317 318 319 320 323 322 324 325 325 324 324 324 323 322 320 322 320 321 321 320 315 313 313 312 310 311 312 311 310 311 312 314 314 315 315 316 316 316 317 316 315 314 315 315 315 315 315 315 314 312 309 308 307

GFSWCAN_925_thetae_147.txt.gz
Theta_e
304 304 304 305 306 308 308 310 312 314 315 314 314 313 313 311 310 311 312 314 315 317 314 315 315 316 316 317 321 323 325 326 331 331 324 322 323 325 324 323 321 321 323 322 318 329 328 328 330 330 326 334 334 333
304 304 304 305 306 307 306 307 311 313 314 314 313 312 312 310 310 311 311 314 313 314 314 315 315 315 315 315 317 319 325 327 331 329 326 325 325 326 323 328 325 328 322 323 320 320 318 326 326 330 330 333 333 331
303 303 304 304 305 305 305 306 309 313 313 312 311 311 311 310 310 310 310 311 313 314 314 314 315 315 315 315 315 317 321 324 322 322 325 324 324 324 328 329 328 327 324 326 325 329 329 328 327 332 332 332 333 329
301 301 302 302 304 305 306 305 307 310 312 311 311 311 311 310 309 310 310 312 312 313 317 314 314 314 315 315 315 314 315 320 321 322 325 329 324 324 328 328 326 325 324 324 325 325 328 328 327 331 334 332 332 330
300 300 300 301 302 304 305 306 306 308 311 310 309 310 311 310 309 309 309 310 310 313 316 316 314 315 314 314 313 314 314 315 322 326 327 326 324 326 323 324 325 325 324 323 324 321 325 325 324 330 331 331 331 327
299 300 301 302 302 303 305 305 306 307 309 310 309 310 310 309 308 310 311 314 313 311 317 319 313 312 314 315 312 314 314 315 320 322 325 323 322 321 326 326 322 324 322 319 324 322 322 323 323 325 327 326 323 325
299 299 302 303 302 303 304 305 306 307 307 308 309 310 309 308 308 309 311 314 314 313 314 318 315 314 318 319 312 312 314 315 318 322 324 323 326 323 323 326 324 324 322 323 324 321 322 322 323 322 322 321 322 325
299 299 302 303 303 303 304 304 305 306 306 308 309 309 308 308 308 309 312 312 311 312 313 318 317 318 321 323 318 312 313 314 317 321 324 325 325 323 324 322 323 322 323 325 324 321 320 318 319 321 323 322 320 322
299 299 301 303 303 303 304 304 305 306 307 308 308 308 308 308 308 311 313 314 312 313 317 319 321 323 321 324 324 320 315 318 315 320 321 324 323 325 326 322 324 323 323 324 324 322 322 322 319 321 323 323 320 320
299 299 300 303 304 304 303 304 305 306 307 308 308 309 311 310 313 313 314 314 314 315 315 318 315 317 321 325 328 327 320 319 322 322 323 324 325 323 321 319 322 322 321 320 323 324 322 321 321 321 322 323 322 320
300 299 299 303 305 304 303 304 305 307 308 308 308 311 312 313 313 314 318 318 316 318 317 315 314 316 317 326 329 326 328 325 327 325 324 325 325 324 322 320 319 318 320 320 320 319 318 318 319 321 320 322 323 320
299 298 299 303 304 303 303 304 305 309 309 309 309 309 311 312 314 316 320 320 319 321 320 320 319 315 316 320 326 327 328 327 330 325 328 327 324 320 321 322 322 318 320 322 322 321 320 319 318 320 319 320 323 322
298 298 299 304 304 303 303 304 306 308 308 308 309 311 312 314 315 319 322 323 325 324 325 324 324 321 319 318 323 325 329 328 325 327 328 324 320 320 319 322 322 320 320 322 323 324 322 322 322 320 319 322 322 322
300 299 301 304 303 303 303 303 307 307 307 311 314 311 316 319 318 320 321 322 323 323 324 324 325 324 321 323 323 325 324 326 330 330 328 326 327 326 327 323 323 323 322 323 324 323 321 322 322 322 321 322 324 323
300 299 302 303 303 302 303 303 307 306 309 312 313 313 316 316 316 316 317 320 322 321 323 324 325 324 327 327 325 325 328 329 329 330 327 326 327 327 326 326 325 324 322 322 321 320 321 322 321 322 324 325 325 325
299 302 303 305 305 302 303 304 306 306 309 312 312 314 315 316 317 318 317 318 319 320 320 323 327 327 329 329 330 329 328 329 325 323 323 326 327 325 324 324 325 324 321 319 318 321 321 320 320 323 326 326 327 326
301 303 304 305 305 303 304 306 306 308 310 313 313 310 312 313 313 314 316 316 316 319 325 326 326 326 322 325 325 323 325 323 323 321 323 324 325 325 325 324 324 325 322 320 318 319 322 323 321 323 321 324 327 328
302 304 305 304 304 305 306 306 308 311 312 312 311 311 311 311 313 315 315 317 317 318 319 325 323 323 326 327 327 324 323 321 319 319 320 321 321 321 325 325 324 325 323 321 320 322 321 320 320 320 323 325 327 327
302 303 304 306 305 307 307 307 307 311 313 310 309 310 310 310 310 312 313 315 318 318 319 320 325 323 321 322 322 321 321 321 321 318 317 316 318 320 323 325 325 325 326 326 325 323 322 322 322 321 322 324 324 326
302 303 302 304 307 307 311 310 309 311 313 312 309 310 309 310 311 311 311 312 316 319 319 321 320 319 319 318 317 321 322 320 319 319 316 315 320 322 321 321 323 327 327 323 322 322 321 322 322 321 323 325 324 324
302 303 304 306 307 307 308 310 312 313 311 312 311 312 313 311 313 313 312 311 315 317 319 316 316 314 314 317 319 319 319 318 317 315 315 317 318 322 322 322 324 324 323 322 322 323 322 322 323 322 322 322 323 323
304 305 308 307 309 309 310 308 308 309 310 312 312 312 313 314 315 313 310 312 313 313 314 314 313 313 313 317 318 321 321 321 320 315 317 319 320 320 319 321 322 321 322 323 324 323 323 325 324 323 324 323 323 323
304 307 309 308 310 309 308 309 311 311 314 314 316 317 316 316 315 313 316 313 312 310 310 311 312 314 313 316 319 321 321 321 317 315 317 320 320 320 319 322 323 323 323 323 325 325 325 325 325 324 324 324 323 323
305 308 308 310 309 309 310 313 312 314 316 318 319 321 320 319 316 318 320 317 315 313 311 312 312 313 314 316 318 318 321 323 321 320 322 321 319 321 323 323 322 323 323 322 323 324 326 325 325 324 324 323 323 322
304 304 306 307 311 312 314 316 317 317 319 319 320 319 318 320 323 321 321 319 319 318 318 318 313 313 314 315 315 317 319 322 319 320 323 323 322 322 322 323 323 323 323 323 322 322 322 323 323 324 325 324 323 323
308 309 308 313 313 314 315 317 318 318 317 318 318 317 320 322 325 325 321 322 322 320 320 319 319 318 317 316 317 318 320 322 322 321 322 324 323 322 319 320 320 323 323 323 321 323 321 323 321 321 322 323 323 321
310 310 309 308 312 314 314 315 315 316 318 320 321 322 323 326 327 323 320 319 319 321 323 323 322 318 318 317 321 323 323 324 324 324 324 324 323 322 322 321 320 321 324 324 324 323 322 320 315 314 315 317 318 318
310 311 315 315 313 313 316 318 319 320 321 320 319 320 320 320 327 324 323 324 324 323 323 323 324 323 323 323 323 324 324 324 324 324 323 323 323 322 321 321 321 320 322 323 322 321 318 315 315 315 315 314 316 317
310 310 311 313 314 315 316 317 318 318 318 318 319 318 323 324 324 323 321 323 322 322 320 320 321 323 323 323 323 323 323 323 322 323 322 321 319 321 321 321 317 319 319 316 316 316 316 316 315 314 314 314 314 314
309 309 312 314 317 317 316 315 316 318 317 318 319 321 323 322 322 323 324 323 323 321 322 321 321 322 319 320 321 321 321 321 321 319 319 319 320 320 320 315 315 316 316 315 315 315 315 315 315 315 314 314 315 314
312 313 315 315 316 315 314 313 313 316 319 320 321 323 323 321 322 323 323 323 323 323 322 321 321 320 320 320 320 318 319 322 321 320 321 321 318 318 316 315 315 315 315 314 314 314 315 315 315 314 313 311 311 310
316 317 318 319 318 317 317 318 321 322 323 324 323 322 323 323 324 322 323 322 323 322 322 319 315 318 321 321 321 321 320 317 316 319 321 320 317 316 316 316 315 312 312 312 312 314 315 315 314 314 313 310 307 307
317 317 317 318 320 321 321 324 325 325 323 323 323 322 322 321 320 317 318 323 321 317 313 313 314 317 322 322 319 312 313 315 317 318 319 317 315 315 316 316 316 315 313 313 313 312 313 314 314 314 314 312 307 306

GFSWCAN_925_thetae_150.txt.gz
Theta_e
303 303 304 304 305 305 307 307 308 310 312 315 314 314 313 312 311 310 311 312 313 317 313 314 314 315 315 315 317 316 322 324 330 334 331 325 323 324 324 322 322 322 321 319 318 325 325 324 332 331 327 328 332 333
303 303 303 304 304 305 306 306 306 310 312 313 312 312 311 312 311 310 311 313 312 312 315 315 314 314 315 314 314 316 320 322 329 331 331 328 326 325 322 329 322 323 319 321 320 321 317 324 327 325 325 331 331 331
302 302 302 302 302 304 305 306 305 308 311 312 311 311 312 311 311 310 311 311 311 312 313 312 314 314 314 314 314 316 316 320 322 322 329 330 327 323 327 328 328 326 320 324 325 328 329 327 328 330 330 330 329 327
300 300 300 300 301 301 304 305 306 306 309 312 310 309 310 311 310 310 310 311 311 312 316 314 313 313 314 314 314 315 315 315 320 322 328 330 331 322 327 327 325 324 323 323 323 325 327 327 328 331 332 331 327 326
300 300 300 301 302 302 302 304 305 305 307 309 310 309 309 310 310 309 309 309 309 311 315 314 313 314 314 313 314 314 314 313 321 326 328 327 326 325 322 323 324 324 323 324 327 323 325 326 325 331 332 332 329 328
300 300 299 301 303 302 302 304 305 306 306 307 309 309 308 309 309 309 312 313 312 309 313 318 313 312 313 314 313 314 313 312 316 322 326 328 322 324 324 324 322 322 321 318 323 320 321 323 324 330 331 330 330 327
300 300 299 301 303 303 303 304 304 305 306 306 308 308 308 308 308 309 310 312 312 310 315 317 315 313 314 314 311 311 313 314 315 321 323 326 327 323 323 325 322 322 323 321 321 321 323 323 325 326 327 326 326 325
300 300 300 300 302 303 303 304 304 305 306 306 307 308 308 308 308 308 311 312 310 310 314 319 317 317 320 321 314 309 312 312 315 318 323 326 324 322 325 322 322 323 322 323 322 319 320 320 321 322 320 321 324 325
300 300 299 299 302 304 304 304 304 305 306 307 308 308 307 307 307 309 313 313 313 312 317 318 320 321 318 323 321 317 312 316 313 319 321 323 321 321 324 323 323 322 323 324 322 320 318 320 321 322 321 320 323 323
300 300 299 299 302 304 304 303 303 305 305 307 307 308 310 309 312 313 314 315 313 315 315 317 314 316 315 324 326 325 319 319 321 319 319 321 321 321 322 322 322 322 321 321 323 323 322 321 320 321 322 321 321 322
300 300 299 299 302 305 303 303 304 305 308 308 307 310 311 312 313 313 317 318 317 317 316 316 315 315 313 327 327 325 328 326 325 322 322 322 324 323 321 322 321 318 319 319 319 321 320 320 320 320 320 321 320 319
300 300 298 298 302 304 303 303 304 307 308 308 308 308 309 312 314 315 319 319 318 320 319 320 320 314 314 319 326 324 329 327 329 324 327 328 324 321 322 323 321 317 318 320 321 321 319 319 317 318 319 321 321 321
298 298 299 299 303 304 303 303 304 306 308 308 309 311 311 313 314 319 322 322 323 322 324 324 325 319 318 319 324 326 330 330 325 328 329 326 319 325 323 318 320 319 319 321 322 322 321 320 321 318 319 320 322 321
298 301 300 299 303 303 302 303 304 307 307 309 313 309 312 317 317 319 320 319 319 322 322 322 324 323 319 322 324 325 324 325 328 329 327 324 326 325 324 324 319 321 320 321 322 322 323 322 321 321 320 321 321 321
300 300 299 301 303 303 302 303 304 307 308 311 312 312 313 315 316 316 317 318 319 320 322 323 323 323 324 325 325 324 327 328 327 328 325 325 324 325 323 325 325 323 321 321 321 321 322 321 321 322 320 320 321 321
300 300 303 305 305 304 302 303 306 306 308 311 312 314 313 315 315 316 316 316 316 320 320 323 326 326 328 326 329 330 327 328 324 321 322 324 325 326 323 324 324 324 321 320 319 320 320 320 320 321 321 321 322 323
300 302 303 305 306 304 302 305 306 308 309 311 312 309 310 311 312 313 312 313 314 319 323 325 326 328 323 325 325 323 325 323 323 322 321 320 321 321 323 325 324 324 320 317 318 320 320 320 320 321 321 323 325 324
301 303 304 304 303 304 305 306 308 310 311 309 310 309 310 309 311 312 313 314 316 319 320 324 323 323 324 327 326 323 321 321 318 317 317 317 316 317 322 324 325 324 324 320 318 318 319 318 319 321 322 324 324 325
301 302 303 304 305 306 306 307 306 310 311 310 308 307 309 309 309 310 311 310 316 317 320 321 323 323 321 320 321 319 319 318 319 316 315 313 316 319 321 322 325 325 325 324 321 320 319 320 320 322 322 322 324 325
301 301 302 303 305 307 310 309 307 309 311 309 307 308 308 308 308 308 309 310 315 319 319 321 320 319 318 317 316 317 318 317 317 317 315 314 318 320 320 320 323 324 321 321 321 320 320 320 320 320 321 323 324 324
302 302 303 303 307 307 307 309 312 311 310 309 309 309 311 309 310 311 311 309 314 315 316 315 315 314 312 313 316 316 317 316 317 315 316 318 317 318 320 321 322 322 323 324 322 322 321 320 319 320 322 322 323 322
303 305 307 306 308 308 309 307 306 307 308 309 309 309 311 311 312 312 309 312 312 313 313 313 313 313 313 314 314 318 319 318 314 314 315 316 319 319 318 319 321 321 321 323 323 322 322 321 321 322 322 321 322 322
303 306 308 307 308 308 309 308 310 310 313 313 312 316 314 316 313 310 314 311 311 309 309 310 311 313 312 314 315 318 319 318 316 315 315 318 319 319 317 320 323 322 322 322 323 323 322 322 322 322 321 322 322 321
304 305 309 310 304 308 310 311 311 311 314 317 318 319 319 320 314 316 318 315 313 311 309 309 309 311 312 313 314 315 318 320 318 317 318 320 319 320 322 323 322 322 322 322 322 323 323 323 323 323 323 322 321 317
306 306 303 304 310 311 312 314 314 315 318 318 319 318 316 318 323 322 319 316 316 317 315 315 311 311 313 314 314 315 318 320 317 318 319 322 320 320 320 321 321 323 323 323 323 323 323 323 323 323 322 321 319 317
306 308 304 311 312 312 314 315 317 318 318 318 317 316 317 322 324 324 320 318 320 319 318 318 318 315 312 311 313 313 316 318 319 319 320 322 323 321 320 319 320 321 322 322 322 321 322 322 323 324 323 323 322 321
309 310 308 307 309 312 315 314 315 317 318 319 320 320 321 324 326 324 321 320 320 319 322 322 320 319 317 315 316 319 320 320 321 321 323 323 323 323 322 321 321 321 324 323 322 322 321 319 319 321 322 322 321 320
309 311 313 313 311 311 315 316 317 319 321 319 318 318 317 318 323 325 323 322 323 322 321 321 322 321 321 320 321 322 321 321 322 323 322 322 322 322 321 321 321 321 324 323 322 320 316 314 316 319 318 317 318 319
309 309 310 312 312 313 315 316 317 318 317 318 317 318 318 318 322 322 321 323 320 321 319 319 319 321 321 321 321 323 323 323 322 323 323 322 321 321 321 320 318 318 320 319 320 315 315 315 315 314 315 315 317 318
308 307 311 313 315 316 315 315 317 318 317 317 317 319 319 321 322 322 323 322 320 319 319 318 319 320 318 319 317 319 322 323 323 323 323 322 320 320 320 315 318 317 316 316 316 315 315 314 314 313 314 314 314 314
308 310 313 314 315 314 314 314 313 315 318 319 319 321 322 321 321 322 322 322 321 320 320 319 318 320 320 319 318 318 319 319 321 321 321 321 320 319 315 315 315 315 314 314 314 314 314 315 314 314 314 313 313 313
313 315 317 318 318 317 317 319 320 322 322 323 322 321 322 322 323 321 321 322 321 320 320 320 319 319 320 320 319 319 320 319 318 320 319 319 318 315 315 315 314 314 314 314 314 314 314 314 314 313 313 313 312 310
316 317 316 317 319 321 321 322 324 323 322 323 322 322 321 320 320 317 314 319 322 317 313 315 317 320 320 315 311 312 314 317 319 318 317 316 316 316 316 315 313 312 313 313 313 314 314 314 313 312 311 310 308 306